<?xml version="1.0" encoding="UTF-8" standalone="no" ?>
<gpx xmlns="http://www.topografix.com/GPX/1/1" xmlns:xsi="http://www.w3.org/2001/XMLSchema-instance" xsi:schemaLocation="http://www.topografix.com/GPX/1/1 http://www.topografix.com/GPX/1/1/gpx.xsd" version="1.1" creator="VisuGPX - https://www.visugpx.com">
  <metadata>
    <name>Cross Triathlon Levens</name>
    <desc><![CDATA[Trail du cross triathlon. Départ de la piscine, rues du village perché, remonter vers la Môle, retour par le chemin de la pierre tourniole, remontée vers la piscine par le sentier.]]></desc>
  </metadata>
  <trk>
    <name><![CDATA[Levens]]></name>
    <trkseg>
      <trkpt lat="43.8611" lon="7.22402">
        <ele>548.587646</ele>
        <time>2017-02-10T14:21:34Z</time>
      </trkpt>
      <trkpt lat="43.8611" lon="7.22409">
        <ele>549.752014</ele>
        <time>2017-02-10T14:21:36Z</time>
      </trkpt>
      <trkpt lat="43.86108" lon="7.22415">
        <ele>551.692017</ele>
        <time>2017-02-10T14:21:38Z</time>
      </trkpt>
      <trkpt lat="43.86107" lon="7.22423">
        <ele>553.378845</ele>
        <time>2017-02-10T14:21:40Z</time>
      </trkpt>
      <trkpt lat="43.86106" lon="7.22431">
        <ele>554.866577</ele>
        <time>2017-02-10T14:21:42Z</time>
      </trkpt>
      <trkpt lat="43.86104" lon="7.22443">
        <ele>556.206848</ele>
        <time>2017-02-10T14:21:44Z</time>
      </trkpt>
      <trkpt lat="43.86103" lon="7.22449">
        <ele>557.269165</ele>
        <time>2017-02-10T14:21:46Z</time>
      </trkpt>
      <trkpt lat="43.86101" lon="7.22455">
        <ele>558.27887</ele>
        <time>2017-02-10T14:21:48Z</time>
      </trkpt>
      <trkpt lat="43.86099" lon="7.22459">
        <ele>559.482788</ele>
        <time>2017-02-10T14:21:50Z</time>
      </trkpt>
      <trkpt lat="43.86097" lon="7.22466">
        <ele>560.137207</ele>
        <time>2017-02-10T14:21:52Z</time>
      </trkpt>
      <trkpt lat="43.86095" lon="7.22471">
        <ele>561.476929</ele>
        <time>2017-02-10T14:21:54Z</time>
      </trkpt>
      <trkpt lat="43.86092" lon="7.22476">
        <ele>562.834961</ele>
        <time>2017-02-10T14:21:56Z</time>
      </trkpt>
      <trkpt lat="43.86089" lon="7.22483">
        <ele>564.183777</ele>
        <time>2017-02-10T14:21:58Z</time>
      </trkpt>
      <trkpt lat="43.86087" lon="7.22488">
        <ele>565.527832</ele>
        <time>2017-02-10T14:22:00Z</time>
      </trkpt>
      <trkpt lat="43.86085" lon="7.22494">
        <ele>566.768555</ele>
        <time>2017-02-10T14:22:02Z</time>
      </trkpt>
      <trkpt lat="43.86083" lon="7.22499">
        <ele>568.082153</ele>
        <time>2017-02-10T14:22:04Z</time>
      </trkpt>
      <trkpt lat="43.86081" lon="7.22502">
        <ele>569.349243</ele>
        <time>2017-02-10T14:22:06Z</time>
      </trkpt>
      <trkpt lat="43.86079" lon="7.22506">
        <ele>570.528503</ele>
        <time>2017-02-10T14:22:08Z</time>
      </trkpt>
      <trkpt lat="43.86077" lon="7.2251">
        <ele>571.822083</ele>
        <time>2017-02-10T14:22:10Z</time>
      </trkpt>
      <trkpt lat="43.86075" lon="7.22514">
        <ele>573.150757</ele>
        <time>2017-02-10T14:22:12Z</time>
      </trkpt>
      <trkpt lat="43.86072" lon="7.22517">
        <ele>574.444214</ele>
        <time>2017-02-10T14:22:14Z</time>
      </trkpt>
      <trkpt lat="43.86069" lon="7.22519">
        <ele>575.553345</ele>
        <time>2017-02-10T14:22:16Z</time>
      </trkpt>
      <trkpt lat="43.86065" lon="7.22518">
        <ele>575.280762</ele>
        <time>2017-02-10T14:22:18Z</time>
      </trkpt>
      <trkpt lat="43.86062" lon="7.22521">
        <ele>575.008179</ele>
        <time>2017-02-10T14:22:20Z</time>
      </trkpt>
      <trkpt lat="43.86058" lon="7.22523">
        <ele>574.671814</ele>
        <time>2017-02-10T14:22:22Z</time>
      </trkpt>
      <trkpt lat="43.86055" lon="7.22524">
        <ele>574.524536</ele>
        <time>2017-02-10T14:22:24Z</time>
      </trkpt>
      <trkpt lat="43.86052" lon="7.22519">
        <ele>574.218628</ele>
        <time>2017-02-10T14:22:26Z</time>
      </trkpt>
      <trkpt lat="43.8605" lon="7.22517">
        <ele>573.924072</ele>
        <time>2017-02-10T14:22:28Z</time>
      </trkpt>
      <trkpt lat="43.86048" lon="7.22518">
        <ele>573.622925</ele>
        <time>2017-02-10T14:22:30Z</time>
      </trkpt>
      <trkpt lat="43.86046" lon="7.22518">
        <ele>573.220703</ele>
        <time>2017-02-10T14:22:32Z</time>
      </trkpt>
      <trkpt lat="43.86044" lon="7.22517">
        <ele>572.794312</ele>
        <time>2017-02-10T14:22:34Z</time>
      </trkpt>
      <trkpt lat="43.86041" lon="7.22517">
        <ele>572.521118</ele>
        <time>2017-02-10T14:22:36Z</time>
      </trkpt>
      <trkpt lat="43.86037" lon="7.22514">
        <ele>571.804382</ele>
        <time>2017-02-10T14:22:40Z</time>
      </trkpt>
      <trkpt lat="43.86035" lon="7.22514">
        <ele>571.428589</ele>
        <time>2017-02-10T14:22:42Z</time>
      </trkpt>
      <trkpt lat="43.86032" lon="7.22513">
        <ele>571.050415</ele>
        <time>2017-02-10T14:22:44Z</time>
      </trkpt>
      <trkpt lat="43.86025" lon="7.22514">
        <ele>570.74939</ele>
        <time>2017-02-10T14:22:46Z</time>
      </trkpt>
      <trkpt lat="43.86022" lon="7.22515">
        <ele>570.499878</ele>
        <time>2017-02-10T14:22:48Z</time>
      </trkpt>
      <trkpt lat="43.86019" lon="7.22516">
        <ele>570.157227</ele>
        <time>2017-02-10T14:22:50Z</time>
      </trkpt>
      <trkpt lat="43.86014" lon="7.22511">
        <ele>568.441589</ele>
        <time>2017-02-10T14:22:58Z</time>
      </trkpt>
      <trkpt lat="43.86016" lon="7.22513">
        <ele>567.839722</ele>
        <time>2017-02-10T14:23:00Z</time>
      </trkpt>
      <trkpt lat="43.86017" lon="7.22517">
        <ele>567.264343</ele>
        <time>2017-02-10T14:23:02Z</time>
      </trkpt>
      <trkpt lat="43.86015" lon="7.22523">
        <ele>566.118042</ele>
        <time>2017-02-10T14:23:06Z</time>
      </trkpt>
      <trkpt lat="43.86013" lon="7.22528">
        <ele>564.895386</ele>
        <time>2017-02-10T14:23:10Z</time>
      </trkpt>
      <trkpt lat="43.86011" lon="7.22533">
        <ele>564.347595</ele>
        <time>2017-02-10T14:23:12Z</time>
      </trkpt>
      <trkpt lat="43.86002" lon="7.22548">
        <ele>563.859619</ele>
        <time>2017-02-10T14:23:14Z</time>
      </trkpt>
      <trkpt lat="43.86" lon="7.22552">
        <ele>563.211975</ele>
        <time>2017-02-10T14:23:16Z</time>
      </trkpt>
      <trkpt lat="43.85997" lon="7.22551">
        <ele>562.496216</ele>
        <time>2017-02-10T14:23:18Z</time>
      </trkpt>
      <trkpt lat="43.85997" lon="7.22548">
        <ele>561.951782</ele>
        <time>2017-02-10T14:23:20Z</time>
      </trkpt>
      <trkpt lat="43.85997" lon="7.22544">
        <ele>561.343689</ele>
        <time>2017-02-10T14:23:22Z</time>
      </trkpt>
      <trkpt lat="43.85997" lon="7.2255">
        <ele>560.981567</ele>
        <time>2017-02-10T14:23:24Z</time>
      </trkpt>
      <trkpt lat="43.86" lon="7.22554">
        <ele>560.320862</ele>
        <time>2017-02-10T14:23:26Z</time>
      </trkpt>
      <trkpt lat="43.86001" lon="7.22556">
        <ele>559.484619</ele>
        <time>2017-02-10T14:23:28Z</time>
      </trkpt>
      <trkpt lat="43.86002" lon="7.22556">
        <ele>558.730713</ele>
        <time>2017-02-10T14:23:30Z</time>
      </trkpt>
      <trkpt lat="43.86002" lon="7.22562">
        <ele>558.06189</ele>
        <time>2017-02-10T14:23:32Z</time>
      </trkpt>
      <trkpt lat="43.86001" lon="7.22565">
        <ele>557.392456</ele>
        <time>2017-02-10T14:23:34Z</time>
      </trkpt>
      <trkpt lat="43.85999" lon="7.22567">
        <ele>556.837341</ele>
        <time>2017-02-10T14:23:36Z</time>
      </trkpt>
      <trkpt lat="43.85996" lon="7.22571">
        <ele>556.141846</ele>
        <time>2017-02-10T14:23:38Z</time>
      </trkpt>
      <trkpt lat="43.85993" lon="7.22573">
        <ele>555.617432</ele>
        <time>2017-02-10T14:23:40Z</time>
      </trkpt>
      <trkpt lat="43.85989" lon="7.22575">
        <ele>554.987732</ele>
        <time>2017-02-10T14:23:42Z</time>
      </trkpt>
      <trkpt lat="43.85988" lon="7.22577">
        <ele>554.415161</ele>
        <time>2017-02-10T14:23:44Z</time>
      </trkpt>
      <trkpt lat="43.85986" lon="7.22581">
        <ele>553.849243</ele>
        <time>2017-02-10T14:23:46Z</time>
      </trkpt>
      <trkpt lat="43.85983" lon="7.22589">
        <ele>553.310425</ele>
        <time>2017-02-10T14:23:48Z</time>
      </trkpt>
      <trkpt lat="43.85981" lon="7.22587">
        <ele>552.729187</ele>
        <time>2017-02-10T14:23:50Z</time>
      </trkpt>
      <trkpt lat="43.85978" lon="7.22589">
        <ele>552.039246</ele>
        <time>2017-02-10T14:23:52Z</time>
      </trkpt>
      <trkpt lat="43.85975" lon="7.22593">
        <ele>551.366455</ele>
        <time>2017-02-10T14:23:54Z</time>
      </trkpt>
      <trkpt lat="43.85971" lon="7.22596">
        <ele>551.081421</ele>
        <time>2017-02-10T14:23:56Z</time>
      </trkpt>
      <trkpt lat="43.85968" lon="7.22598">
        <ele>550.528687</ele>
        <time>2017-02-10T14:23:58Z</time>
      </trkpt>
      <trkpt lat="43.85965" lon="7.22599">
        <ele>549.912476</ele>
        <time>2017-02-10T14:24:00Z</time>
      </trkpt>
      <trkpt lat="43.85963" lon="7.22602">
        <ele>549.390564</ele>
        <time>2017-02-10T14:24:02Z</time>
      </trkpt>
      <trkpt lat="43.85961" lon="7.22607">
        <ele>548.408264</ele>
        <time>2017-02-10T14:24:06Z</time>
      </trkpt>
      <trkpt lat="43.8596" lon="7.2261">
        <ele>547.917175</ele>
        <time>2017-02-10T14:24:08Z</time>
      </trkpt>
      <trkpt lat="43.85958" lon="7.22613">
        <ele>547.397644</ele>
        <time>2017-02-10T14:24:10Z</time>
      </trkpt>
      <trkpt lat="43.85956" lon="7.22616">
        <ele>546.857788</ele>
        <time>2017-02-10T14:24:12Z</time>
      </trkpt>
      <trkpt lat="43.85953" lon="7.22618">
        <ele>546.403992</ele>
        <time>2017-02-10T14:24:14Z</time>
      </trkpt>
      <trkpt lat="43.85943" lon="7.22628">
        <ele>546.007202</ele>
        <time>2017-02-10T14:24:16Z</time>
      </trkpt>
      <trkpt lat="43.85941" lon="7.22629">
        <ele>545.641113</ele>
        <time>2017-02-10T14:24:18Z</time>
      </trkpt>
      <trkpt lat="43.8594" lon="7.22631">
        <ele>545.277893</ele>
        <time>2017-02-10T14:24:20Z</time>
      </trkpt>
      <trkpt lat="43.8594" lon="7.2263">
        <ele>544.958191</ele>
        <time>2017-02-10T14:24:22Z</time>
      </trkpt>
      <trkpt lat="43.85939" lon="7.2263">
        <ele>544.706177</ele>
        <time>2017-02-10T14:24:24Z</time>
      </trkpt>
      <trkpt lat="43.85936" lon="7.22629">
        <ele>544.320374</ele>
        <time>2017-02-10T14:24:26Z</time>
      </trkpt>
      <trkpt lat="43.85933" lon="7.22629">
        <ele>544.138428</ele>
        <time>2017-02-10T14:24:28Z</time>
      </trkpt>
      <trkpt lat="43.8593" lon="7.22628">
        <ele>543.835083</ele>
        <time>2017-02-10T14:24:30Z</time>
      </trkpt>
      <trkpt lat="43.85925" lon="7.22626">
        <ele>543.576538</ele>
        <time>2017-02-10T14:24:32Z</time>
      </trkpt>
      <trkpt lat="43.85918" lon="7.22618">
        <ele>543.38147</ele>
        <time>2017-02-10T14:24:34Z</time>
      </trkpt>
      <trkpt lat="43.85915" lon="7.22614">
        <ele>543.186157</ele>
        <time>2017-02-10T14:24:36Z</time>
      </trkpt>
      <trkpt lat="43.85913" lon="7.2261">
        <ele>542.886047</ele>
        <time>2017-02-10T14:24:40Z</time>
      </trkpt>
      <trkpt lat="43.85909" lon="7.22605">
        <ele>542.859741</ele>
        <time>2017-02-10T14:24:42Z</time>
      </trkpt>
      <trkpt lat="43.85904" lon="7.22609">
        <ele>542.735596</ele>
        <time>2017-02-10T14:24:44Z</time>
      </trkpt>
      <trkpt lat="43.85899" lon="7.22611">
        <ele>542.597534</ele>
        <time>2017-02-10T14:24:46Z</time>
      </trkpt>
      <trkpt lat="43.85895" lon="7.22611">
        <ele>542.571167</ele>
        <time>2017-02-10T14:24:48Z</time>
      </trkpt>
      <trkpt lat="43.85891" lon="7.22613">
        <ele>542.604065</ele>
        <time>2017-02-10T14:24:50Z</time>
      </trkpt>
      <trkpt lat="43.85887" lon="7.22617">
        <ele>542.610657</ele>
        <time>2017-02-10T14:24:52Z</time>
      </trkpt>
      <trkpt lat="43.85883" lon="7.2262">
        <ele>542.459473</ele>
        <time>2017-02-10T14:24:54Z</time>
      </trkpt>
      <trkpt lat="43.85878" lon="7.22621">
        <ele>542.446289</ele>
        <time>2017-02-10T14:24:56Z</time>
      </trkpt>
      <trkpt lat="43.85876" lon="7.2262">
        <ele>542.45575</ele>
        <time>2017-02-10T14:24:58Z</time>
      </trkpt>
      <trkpt lat="43.85869" lon="7.22616">
        <ele>542.47876</ele>
        <time>2017-02-10T14:25:00Z</time>
      </trkpt>
      <trkpt lat="43.85866" lon="7.22615">
        <ele>542.428589</ele>
        <time>2017-02-10T14:25:02Z</time>
      </trkpt>
      <trkpt lat="43.85863" lon="7.22613">
        <ele>542.386597</ele>
        <time>2017-02-10T14:25:04Z</time>
      </trkpt>
      <trkpt lat="43.85859" lon="7.22611">
        <ele>542.340576</ele>
        <time>2017-02-10T14:25:06Z</time>
      </trkpt>
      <trkpt lat="43.85854" lon="7.2261">
        <ele>542.43042</ele>
        <time>2017-02-10T14:25:08Z</time>
      </trkpt>
      <trkpt lat="43.85852" lon="7.2261">
        <ele>542.532104</ele>
        <time>2017-02-10T14:25:10Z</time>
      </trkpt>
      <trkpt lat="43.8585" lon="7.22611">
        <ele>542.64386</ele>
        <time>2017-02-10T14:25:12Z</time>
      </trkpt>
      <trkpt lat="43.85846" lon="7.22612">
        <ele>542.786316</ele>
        <time>2017-02-10T14:25:14Z</time>
      </trkpt>
      <trkpt lat="43.8584" lon="7.22613">
        <ele>542.902466</ele>
        <time>2017-02-10T14:25:16Z</time>
      </trkpt>
      <trkpt lat="43.85835" lon="7.22614">
        <ele>543.053711</ele>
        <time>2017-02-10T14:25:18Z</time>
      </trkpt>
      <trkpt lat="43.85829" lon="7.22614">
        <ele>543.406372</ele>
        <time>2017-02-10T14:25:22Z</time>
      </trkpt>
      <trkpt lat="43.85824" lon="7.22614">
        <ele>543.465515</ele>
        <time>2017-02-10T14:25:24Z</time>
      </trkpt>
      <trkpt lat="43.85821" lon="7.22616">
        <ele>543.609375</ele>
        <time>2017-02-10T14:25:26Z</time>
      </trkpt>
      <trkpt lat="43.85816" lon="7.22614">
        <ele>543.767212</ele>
        <time>2017-02-10T14:25:28Z</time>
      </trkpt>
      <trkpt lat="43.85813" lon="7.2261">
        <ele>543.806641</ele>
        <time>2017-02-10T14:25:30Z</time>
      </trkpt>
      <trkpt lat="43.85811" lon="7.22606">
        <ele>543.968872</ele>
        <time>2017-02-10T14:25:32Z</time>
      </trkpt>
      <trkpt lat="43.85807" lon="7.22602">
        <ele>544.202759</ele>
        <time>2017-02-10T14:25:34Z</time>
      </trkpt>
      <trkpt lat="43.85806" lon="7.226">
        <ele>544.439331</ele>
        <time>2017-02-10T14:25:36Z</time>
      </trkpt>
      <trkpt lat="43.85803" lon="7.226">
        <ele>544.632324</ele>
        <time>2017-02-10T14:25:38Z</time>
      </trkpt>
      <trkpt lat="43.85801" lon="7.226">
        <ele>544.837585</ele>
        <time>2017-02-10T14:25:40Z</time>
      </trkpt>
      <trkpt lat="43.85797" lon="7.22599">
        <ele>545.088562</ele>
        <time>2017-02-10T14:25:42Z</time>
      </trkpt>
      <trkpt lat="43.85795" lon="7.22598">
        <ele>545.232422</ele>
        <time>2017-02-10T14:25:44Z</time>
      </trkpt>
      <trkpt lat="43.85793" lon="7.22598">
        <ele>545.569946</ele>
        <time>2017-02-10T14:25:46Z</time>
      </trkpt>
      <trkpt lat="43.85788" lon="7.22596">
        <ele>545.729858</ele>
        <time>2017-02-10T14:25:48Z</time>
      </trkpt>
      <trkpt lat="43.85785" lon="7.22594">
        <ele>545.843872</ele>
        <time>2017-02-10T14:25:50Z</time>
      </trkpt>
      <trkpt lat="43.85781" lon="7.22593">
        <ele>546.108215</ele>
        <time>2017-02-10T14:25:52Z</time>
      </trkpt>
      <trkpt lat="43.85777" lon="7.22591">
        <ele>546.119141</ele>
        <time>2017-02-10T14:25:54Z</time>
      </trkpt>
      <trkpt lat="43.85773" lon="7.2259">
        <ele>546.136719</ele>
        <time>2017-02-10T14:25:56Z</time>
      </trkpt>
      <trkpt lat="43.85769" lon="7.22589">
        <ele>546.258911</ele>
        <time>2017-02-10T14:25:58Z</time>
      </trkpt>
      <trkpt lat="43.85764" lon="7.22589">
        <ele>546.35791</ele>
        <time>2017-02-10T14:26:00Z</time>
      </trkpt>
      <trkpt lat="43.85761" lon="7.2259">
        <ele>546.331665</ele>
        <time>2017-02-10T14:26:02Z</time>
      </trkpt>
      <trkpt lat="43.85757" lon="7.22592">
        <ele>546.465332</ele>
        <time>2017-02-10T14:26:04Z</time>
      </trkpt>
      <trkpt lat="43.85754" lon="7.22592">
        <ele>546.526733</ele>
        <time>2017-02-10T14:26:06Z</time>
      </trkpt>
      <trkpt lat="43.85751" lon="7.2259">
        <ele>546.568054</ele>
        <time>2017-02-10T14:26:08Z</time>
      </trkpt>
      <trkpt lat="43.8575" lon="7.22587">
        <ele>546.537415</ele>
        <time>2017-02-10T14:26:10Z</time>
      </trkpt>
      <trkpt lat="43.8575" lon="7.22585">
        <ele>546.526489</ele>
        <time>2017-02-10T14:26:12Z</time>
      </trkpt>
      <trkpt lat="43.85748" lon="7.22582">
        <ele>546.394897</ele>
        <time>2017-02-10T14:26:14Z</time>
      </trkpt>
      <trkpt lat="43.85748" lon="7.22579">
        <ele>546.365723</ele>
        <time>2017-02-10T14:26:16Z</time>
      </trkpt>
      <trkpt lat="43.85748" lon="7.22576">
        <ele>546.218933</ele>
        <time>2017-02-10T14:26:18Z</time>
      </trkpt>
      <trkpt lat="43.85745" lon="7.22573">
        <ele>546.052368</ele>
        <time>2017-02-10T14:26:20Z</time>
      </trkpt>
      <trkpt lat="43.85742" lon="7.22573">
        <ele>545.787231</ele>
        <time>2017-02-10T14:26:22Z</time>
      </trkpt>
      <trkpt lat="43.85739" lon="7.22574">
        <ele>545.392761</ele>
        <time>2017-02-10T14:26:24Z</time>
      </trkpt>
      <trkpt lat="43.85737" lon="7.22577">
        <ele>544.978638</ele>
        <time>2017-02-10T14:26:26Z</time>
      </trkpt>
      <trkpt lat="43.85736" lon="7.22579">
        <ele>544.52063</ele>
        <time>2017-02-10T14:26:28Z</time>
      </trkpt>
      <trkpt lat="43.85735" lon="7.22582">
        <ele>544.174438</ele>
        <time>2017-02-10T14:26:30Z</time>
      </trkpt>
      <trkpt lat="43.85737" lon="7.22585">
        <ele>543.939941</ele>
        <time>2017-02-10T14:26:32Z</time>
      </trkpt>
      <trkpt lat="43.85737" lon="7.22589">
        <ele>543.297974</ele>
        <time>2017-02-10T14:26:34Z</time>
      </trkpt>
      <trkpt lat="43.85737" lon="7.22592">
        <ele>542.883911</ele>
        <time>2017-02-10T14:26:36Z</time>
      </trkpt>
      <trkpt lat="43.85738" lon="7.22596">
        <ele>542.384888</ele>
        <time>2017-02-10T14:26:38Z</time>
      </trkpt>
      <trkpt lat="43.85739" lon="7.226">
        <ele>541.808655</ele>
        <time>2017-02-10T14:26:40Z</time>
      </trkpt>
      <trkpt lat="43.85741" lon="7.22603">
        <ele>541.147034</ele>
        <time>2017-02-10T14:26:42Z</time>
      </trkpt>
      <trkpt lat="43.85742" lon="7.22607">
        <ele>540.616882</ele>
        <time>2017-02-10T14:26:44Z</time>
      </trkpt>
      <trkpt lat="43.85744" lon="7.22611">
        <ele>539.902771</ele>
        <time>2017-02-10T14:26:46Z</time>
      </trkpt>
      <trkpt lat="43.85744" lon="7.22614">
        <ele>539.201782</ele>
        <time>2017-02-10T14:26:48Z</time>
      </trkpt>
      <trkpt lat="43.85743" lon="7.22617">
        <ele>538.569031</ele>
        <time>2017-02-10T14:26:50Z</time>
      </trkpt>
      <trkpt lat="43.85741" lon="7.2262">
        <ele>538.03894</ele>
        <time>2017-02-10T14:26:52Z</time>
      </trkpt>
      <trkpt lat="43.8574" lon="7.22624">
        <ele>537.423462</ele>
        <time>2017-02-10T14:26:54Z</time>
      </trkpt>
      <trkpt lat="43.85738" lon="7.22628">
        <ele>536.787292</ele>
        <time>2017-02-10T14:26:56Z</time>
      </trkpt>
      <trkpt lat="43.85736" lon="7.22631">
        <ele>536.48938</ele>
        <time>2017-02-10T14:26:58Z</time>
      </trkpt>
      <trkpt lat="43.85735" lon="7.22629">
        <ele>535.972534</ele>
        <time>2017-02-10T14:27:00Z</time>
      </trkpt>
      <trkpt lat="43.85735" lon="7.22628">
        <ele>535.407532</ele>
        <time>2017-02-10T14:27:02Z</time>
      </trkpt>
      <trkpt lat="43.85733" lon="7.22629">
        <ele>534.803101</ele>
        <time>2017-02-10T14:27:04Z</time>
      </trkpt>
      <trkpt lat="43.85731" lon="7.22632">
        <ele>534.28418</ele>
        <time>2017-02-10T14:27:06Z</time>
      </trkpt>
      <trkpt lat="43.85729" lon="7.22635">
        <ele>533.80249</ele>
        <time>2017-02-10T14:27:08Z</time>
      </trkpt>
      <trkpt lat="43.85727" lon="7.22638">
        <ele>533.185181</ele>
        <time>2017-02-10T14:27:10Z</time>
      </trkpt>
      <trkpt lat="43.85725" lon="7.22641">
        <ele>532.668335</ele>
        <time>2017-02-10T14:27:12Z</time>
      </trkpt>
      <trkpt lat="43.85723" lon="7.22645">
        <ele>532.152283</ele>
        <time>2017-02-10T14:27:14Z</time>
      </trkpt>
      <trkpt lat="43.85721" lon="7.22649">
        <ele>531.6073</ele>
        <time>2017-02-10T14:27:16Z</time>
      </trkpt>
      <trkpt lat="43.85719" lon="7.22653">
        <ele>530.957336</ele>
        <time>2017-02-10T14:27:18Z</time>
      </trkpt>
      <trkpt lat="43.85718" lon="7.22657">
        <ele>530.420227</ele>
        <time>2017-02-10T14:27:20Z</time>
      </trkpt>
      <trkpt lat="43.85717" lon="7.22662">
        <ele>529.800903</ele>
        <time>2017-02-10T14:27:22Z</time>
      </trkpt>
      <trkpt lat="43.85716" lon="7.22667">
        <ele>529.236389</ele>
        <time>2017-02-10T14:27:24Z</time>
      </trkpt>
      <trkpt lat="43.85715" lon="7.22673">
        <ele>528.905945</ele>
        <time>2017-02-10T14:27:26Z</time>
      </trkpt>
      <trkpt lat="43.85714" lon="7.22678">
        <ele>528.330505</ele>
        <time>2017-02-10T14:27:28Z</time>
      </trkpt>
      <trkpt lat="43.85713" lon="7.22683">
        <ele>527.807617</ele>
        <time>2017-02-10T14:27:30Z</time>
      </trkpt>
      <trkpt lat="43.8571" lon="7.22687">
        <ele>527.218384</ele>
        <time>2017-02-10T14:27:32Z</time>
      </trkpt>
      <trkpt lat="43.85708" lon="7.22689">
        <ele>526.524841</ele>
        <time>2017-02-10T14:27:34Z</time>
      </trkpt>
      <trkpt lat="43.85704" lon="7.22689">
        <ele>525.851013</ele>
        <time>2017-02-10T14:27:36Z</time>
      </trkpt>
      <trkpt lat="43.85702" lon="7.22686">
        <ele>525.059265</ele>
        <time>2017-02-10T14:27:38Z</time>
      </trkpt>
      <trkpt lat="43.85701" lon="7.22681">
        <ele>524.287903</ele>
        <time>2017-02-10T14:27:40Z</time>
      </trkpt>
      <trkpt lat="43.85701" lon="7.22677">
        <ele>523.578003</ele>
        <time>2017-02-10T14:27:42Z</time>
      </trkpt>
      <trkpt lat="43.85701" lon="7.22674">
        <ele>522.919678</ele>
        <time>2017-02-10T14:27:44Z</time>
      </trkpt>
      <trkpt lat="43.857" lon="7.22673">
        <ele>522.195801</ele>
        <time>2017-02-10T14:27:46Z</time>
      </trkpt>
      <trkpt lat="43.85697" lon="7.22675">
        <ele>521.576904</ele>
        <time>2017-02-10T14:27:48Z</time>
      </trkpt>
      <trkpt lat="43.85696" lon="7.22678">
        <ele>520.846558</ele>
        <time>2017-02-10T14:27:50Z</time>
      </trkpt>
      <trkpt lat="43.85695" lon="7.22682">
        <ele>520.275146</ele>
        <time>2017-02-10T14:27:52Z</time>
      </trkpt>
      <trkpt lat="43.85694" lon="7.22685">
        <ele>519.594604</ele>
        <time>2017-02-10T14:27:54Z</time>
      </trkpt>
      <trkpt lat="43.85693" lon="7.22689">
        <ele>519.281982</ele>
        <time>2017-02-10T14:27:56Z</time>
      </trkpt>
      <trkpt lat="43.85692" lon="7.22693">
        <ele>518.652039</ele>
        <time>2017-02-10T14:27:58Z</time>
      </trkpt>
      <trkpt lat="43.85691" lon="7.22696">
        <ele>518.085876</ele>
        <time>2017-02-10T14:28:00Z</time>
      </trkpt>
      <trkpt lat="43.85689" lon="7.22696">
        <ele>517.437561</ele>
        <time>2017-02-10T14:28:02Z</time>
      </trkpt>
      <trkpt lat="43.85688" lon="7.22693">
        <ele>516.948792</ele>
        <time>2017-02-10T14:28:04Z</time>
      </trkpt>
      <trkpt lat="43.85687" lon="7.22689">
        <ele>516.343384</ele>
        <time>2017-02-10T14:28:06Z</time>
      </trkpt>
      <trkpt lat="43.85687" lon="7.22685">
        <ele>515.700867</ele>
        <time>2017-02-10T14:28:08Z</time>
      </trkpt>
      <trkpt lat="43.85685" lon="7.22681">
        <ele>515.062744</ele>
        <time>2017-02-10T14:28:10Z</time>
      </trkpt>
      <trkpt lat="43.85685" lon="7.22677">
        <ele>514.416626</ele>
        <time>2017-02-10T14:28:12Z</time>
      </trkpt>
      <trkpt lat="43.85684" lon="7.22673">
        <ele>513.881226</ele>
        <time>2017-02-10T14:28:14Z</time>
      </trkpt>
      <trkpt lat="43.85683" lon="7.22671">
        <ele>513.364197</ele>
        <time>2017-02-10T14:28:16Z</time>
      </trkpt>
      <trkpt lat="43.85681" lon="7.22673">
        <ele>512.774292</ele>
        <time>2017-02-10T14:28:18Z</time>
      </trkpt>
      <trkpt lat="43.85679" lon="7.22677">
        <ele>512.582031</ele>
        <time>2017-02-10T14:28:20Z</time>
      </trkpt>
      <trkpt lat="43.85677" lon="7.22679">
        <ele>512.089722</ele>
        <time>2017-02-10T14:28:22Z</time>
      </trkpt>
      <trkpt lat="43.85675" lon="7.22683">
        <ele>511.444183</ele>
        <time>2017-02-10T14:28:24Z</time>
      </trkpt>
      <trkpt lat="43.85673" lon="7.22687">
        <ele>510.83905</ele>
        <time>2017-02-10T14:28:26Z</time>
      </trkpt>
      <trkpt lat="43.85672" lon="7.2269">
        <ele>510.351959</ele>
        <time>2017-02-10T14:28:28Z</time>
      </trkpt>
      <trkpt lat="43.8567" lon="7.22693">
        <ele>509.753326</ele>
        <time>2017-02-10T14:28:30Z</time>
      </trkpt>
      <trkpt lat="43.85669" lon="7.22697">
        <ele>509.266296</ele>
        <time>2017-02-10T14:28:32Z</time>
      </trkpt>
      <trkpt lat="43.85669" lon="7.22701">
        <ele>508.637756</ele>
        <time>2017-02-10T14:28:34Z</time>
      </trkpt>
      <trkpt lat="43.85669" lon="7.22705">
        <ele>508.113281</ele>
        <time>2017-02-10T14:28:36Z</time>
      </trkpt>
      <trkpt lat="43.85669" lon="7.22708">
        <ele>507.615417</ele>
        <time>2017-02-10T14:28:38Z</time>
      </trkpt>
      <trkpt lat="43.85671" lon="7.22712">
        <ele>507.015228</ele>
        <time>2017-02-10T14:28:40Z</time>
      </trkpt>
      <trkpt lat="43.85669" lon="7.22715">
        <ele>506.421387</ele>
        <time>2017-02-10T14:28:42Z</time>
      </trkpt>
      <trkpt lat="43.85666" lon="7.22715">
        <ele>505.776367</ele>
        <time>2017-02-10T14:28:44Z</time>
      </trkpt>
      <trkpt lat="43.85664" lon="7.22713">
        <ele>505.143158</ele>
        <time>2017-02-10T14:28:46Z</time>
      </trkpt>
      <trkpt lat="43.85661" lon="7.2271">
        <ele>504.634583</ele>
        <time>2017-02-10T14:28:48Z</time>
      </trkpt>
      <trkpt lat="43.85659" lon="7.22708">
        <ele>504.379089</ele>
        <time>2017-02-10T14:28:50Z</time>
      </trkpt>
      <trkpt lat="43.85657" lon="7.22706">
        <ele>503.919861</ele>
        <time>2017-02-10T14:28:52Z</time>
      </trkpt>
      <trkpt lat="43.85655" lon="7.22708">
        <ele>503.417816</ele>
        <time>2017-02-10T14:28:54Z</time>
      </trkpt>
      <trkpt lat="43.85655" lon="7.22712">
        <ele>502.891754</ele>
        <time>2017-02-10T14:28:56Z</time>
      </trkpt>
      <trkpt lat="43.85655" lon="7.22717">
        <ele>502.327789</ele>
        <time>2017-02-10T14:28:58Z</time>
      </trkpt>
      <trkpt lat="43.85655" lon="7.22721">
        <ele>501.78653</ele>
        <time>2017-02-10T14:29:00Z</time>
      </trkpt>
      <trkpt lat="43.85654" lon="7.22725">
        <ele>501.18634</ele>
        <time>2017-02-10T14:29:02Z</time>
      </trkpt>
      <trkpt lat="43.85652" lon="7.22726">
        <ele>500.688782</ele>
        <time>2017-02-10T14:29:04Z</time>
      </trkpt>
      <trkpt lat="43.8565" lon="7.22724">
        <ele>500.219543</ele>
        <time>2017-02-10T14:29:06Z</time>
      </trkpt>
      <trkpt lat="43.85648" lon="7.22721">
        <ele>499.632568</ele>
        <time>2017-02-10T14:29:08Z</time>
      </trkpt>
      <trkpt lat="43.85646" lon="7.22719">
        <ele>499.167786</ele>
        <time>2017-02-10T14:29:10Z</time>
      </trkpt>
      <trkpt lat="43.85645" lon="7.22715">
        <ele>498.580902</ele>
        <time>2017-02-10T14:29:12Z</time>
      </trkpt>
      <trkpt lat="43.85643" lon="7.22712">
        <ele>498.107422</ele>
        <time>2017-02-10T14:29:14Z</time>
      </trkpt>
      <trkpt lat="43.85642" lon="7.22713">
        <ele>497.5495</ele>
        <time>2017-02-10T14:29:16Z</time>
      </trkpt>
      <trkpt lat="43.85642" lon="7.22717">
        <ele>497.329163</ele>
        <time>2017-02-10T14:29:18Z</time>
      </trkpt>
      <trkpt lat="43.85643" lon="7.2272">
        <ele>496.890869</ele>
        <time>2017-02-10T14:29:20Z</time>
      </trkpt>
      <trkpt lat="43.85643" lon="7.22724">
        <ele>496.373871</ele>
        <time>2017-02-10T14:29:22Z</time>
      </trkpt>
      <trkpt lat="43.85642" lon="7.22728">
        <ele>495.931152</ele>
        <time>2017-02-10T14:29:24Z</time>
      </trkpt>
      <trkpt lat="43.8564" lon="7.22728">
        <ele>495.479401</ele>
        <time>2017-02-10T14:29:26Z</time>
      </trkpt>
      <trkpt lat="43.85638" lon="7.22725">
        <ele>495.027893</ele>
        <time>2017-02-10T14:29:28Z</time>
      </trkpt>
      <trkpt lat="43.85636" lon="7.22722">
        <ele>494.644379</ele>
        <time>2017-02-10T14:29:30Z</time>
      </trkpt>
      <trkpt lat="43.85635" lon="7.2272">
        <ele>494.170837</ele>
        <time>2017-02-10T14:29:32Z</time>
      </trkpt>
      <trkpt lat="43.85633" lon="7.22716">
        <ele>493.639404</ele>
        <time>2017-02-10T14:29:34Z</time>
      </trkpt>
      <trkpt lat="43.85632" lon="7.22712">
        <ele>493.17276</ele>
        <time>2017-02-10T14:29:36Z</time>
      </trkpt>
      <trkpt lat="43.8563" lon="7.22709">
        <ele>492.725677</ele>
        <time>2017-02-10T14:29:38Z</time>
      </trkpt>
      <trkpt lat="43.85629" lon="7.22712">
        <ele>491.990814</ele>
        <time>2017-02-10T14:29:42Z</time>
      </trkpt>
      <trkpt lat="43.85628" lon="7.22716">
        <ele>491.585297</ele>
        <time>2017-02-10T14:29:44Z</time>
      </trkpt>
      <trkpt lat="43.85627" lon="7.22719">
        <ele>491.321472</ele>
        <time>2017-02-10T14:29:46Z</time>
      </trkpt>
      <trkpt lat="43.85627" lon="7.22721">
        <ele>490.926605</ele>
        <time>2017-02-10T14:29:48Z</time>
      </trkpt>
      <trkpt lat="43.85628" lon="7.22725">
        <ele>490.607178</ele>
        <time>2017-02-10T14:29:50Z</time>
      </trkpt>
      <trkpt lat="43.85628" lon="7.22729">
        <ele>490.176208</ele>
        <time>2017-02-10T14:29:52Z</time>
      </trkpt>
      <trkpt lat="43.85626" lon="7.22731">
        <ele>489.809967</ele>
        <time>2017-02-10T14:29:54Z</time>
      </trkpt>
      <trkpt lat="43.85623" lon="7.22729">
        <ele>489.360931</ele>
        <time>2017-02-10T14:29:56Z</time>
      </trkpt>
      <trkpt lat="43.85621" lon="7.22728">
        <ele>488.928314</ele>
        <time>2017-02-10T14:29:58Z</time>
      </trkpt>
      <trkpt lat="43.85618" lon="7.22725">
        <ele>488.441986</ele>
        <time>2017-02-10T14:30:00Z</time>
      </trkpt>
      <trkpt lat="43.85616" lon="7.22724">
        <ele>488.00824</ele>
        <time>2017-02-10T14:30:02Z</time>
      </trkpt>
      <trkpt lat="43.85614" lon="7.22721">
        <ele>487.533112</ele>
        <time>2017-02-10T14:30:04Z</time>
      </trkpt>
      <trkpt lat="43.85612" lon="7.22719">
        <ele>487.158295</ele>
        <time>2017-02-10T14:30:06Z</time>
      </trkpt>
      <trkpt lat="43.8561" lon="7.22716">
        <ele>486.686707</ele>
        <time>2017-02-10T14:30:08Z</time>
      </trkpt>
      <trkpt lat="43.85609" lon="7.22713">
        <ele>486.18515</ele>
        <time>2017-02-10T14:30:10Z</time>
      </trkpt>
      <trkpt lat="43.85608" lon="7.2271">
        <ele>485.980316</ele>
        <time>2017-02-10T14:30:12Z</time>
      </trkpt>
      <trkpt lat="43.85608" lon="7.22706">
        <ele>485.525146</ele>
        <time>2017-02-10T14:30:14Z</time>
      </trkpt>
      <trkpt lat="43.85609" lon="7.22702">
        <ele>485.074951</ele>
        <time>2017-02-10T14:30:16Z</time>
      </trkpt>
      <trkpt lat="43.8561" lon="7.22697">
        <ele>484.715424</ele>
        <time>2017-02-10T14:30:18Z</time>
      </trkpt>
      <trkpt lat="43.85611" lon="7.22692">
        <ele>484.325378</ele>
        <time>2017-02-10T14:30:20Z</time>
      </trkpt>
      <trkpt lat="43.85612" lon="7.22688">
        <ele>483.935364</ele>
        <time>2017-02-10T14:30:22Z</time>
      </trkpt>
      <trkpt lat="43.85613" lon="7.22684">
        <ele>483.525696</ele>
        <time>2017-02-10T14:30:24Z</time>
      </trkpt>
      <trkpt lat="43.85614" lon="7.22679">
        <ele>483.174896</ele>
        <time>2017-02-10T14:30:26Z</time>
      </trkpt>
      <trkpt lat="43.85614" lon="7.22675">
        <ele>482.826813</ele>
        <time>2017-02-10T14:30:28Z</time>
      </trkpt>
      <trkpt lat="43.85616" lon="7.2267">
        <ele>482.483704</ele>
        <time>2017-02-10T14:30:30Z</time>
      </trkpt>
      <trkpt lat="43.85617" lon="7.22665">
        <ele>482.134369</ele>
        <time>2017-02-10T14:30:32Z</time>
      </trkpt>
      <trkpt lat="43.85617" lon="7.2266">
        <ele>481.866394</ele>
        <time>2017-02-10T14:30:34Z</time>
      </trkpt>
      <trkpt lat="43.85618" lon="7.22655">
        <ele>481.60498</ele>
        <time>2017-02-10T14:30:36Z</time>
      </trkpt>
      <trkpt lat="43.85618" lon="7.2265">
        <ele>481.461182</ele>
        <time>2017-02-10T14:30:38Z</time>
      </trkpt>
      <trkpt lat="43.85619" lon="7.22645">
        <ele>481.33316</ele>
        <time>2017-02-10T14:30:40Z</time>
      </trkpt>
      <trkpt lat="43.85619" lon="7.2264">
        <ele>481.139252</ele>
        <time>2017-02-10T14:30:42Z</time>
      </trkpt>
      <trkpt lat="43.8562" lon="7.22634">
        <ele>480.917145</ele>
        <time>2017-02-10T14:30:44Z</time>
      </trkpt>
      <trkpt lat="43.85621" lon="7.22629">
        <ele>480.712402</ele>
        <time>2017-02-10T14:30:46Z</time>
      </trkpt>
      <trkpt lat="43.85621" lon="7.22623">
        <ele>480.533783</ele>
        <time>2017-02-10T14:30:48Z</time>
      </trkpt>
      <trkpt lat="43.85621" lon="7.22618">
        <ele>480.399902</ele>
        <time>2017-02-10T14:30:50Z</time>
      </trkpt>
      <trkpt lat="43.85622" lon="7.22614">
        <ele>480.291016</ele>
        <time>2017-02-10T14:30:52Z</time>
      </trkpt>
      <trkpt lat="43.85623" lon="7.2261">
        <ele>480.184265</ele>
        <time>2017-02-10T14:30:54Z</time>
      </trkpt>
      <trkpt lat="43.85624" lon="7.22604">
        <ele>480.101501</ele>
        <time>2017-02-10T14:30:56Z</time>
      </trkpt>
      <trkpt lat="43.85625" lon="7.22601">
        <ele>479.976501</ele>
        <time>2017-02-10T14:30:58Z</time>
      </trkpt>
      <trkpt lat="43.85626" lon="7.22597">
        <ele>479.817566</ele>
        <time>2017-02-10T14:31:00Z</time>
      </trkpt>
      <trkpt lat="43.85626" lon="7.22593">
        <ele>479.666595</ele>
        <time>2017-02-10T14:31:02Z</time>
      </trkpt>
      <trkpt lat="43.85626" lon="7.22589">
        <ele>479.468445</ele>
        <time>2017-02-10T14:31:04Z</time>
      </trkpt>
      <trkpt lat="43.85624" lon="7.22584">
        <ele>479.37915</ele>
        <time>2017-02-10T14:31:06Z</time>
      </trkpt>
      <trkpt lat="43.85621" lon="7.22579">
        <ele>479.263733</ele>
        <time>2017-02-10T14:31:08Z</time>
      </trkpt>
      <trkpt lat="43.85619" lon="7.22574">
        <ele>479.121918</ele>
        <time>2017-02-10T14:31:10Z</time>
      </trkpt>
      <trkpt lat="43.85615" lon="7.22569">
        <ele>478.92157</ele>
        <time>2017-02-10T14:31:12Z</time>
      </trkpt>
      <trkpt lat="43.85612" lon="7.22565">
        <ele>478.735504</ele>
        <time>2017-02-10T14:31:14Z</time>
      </trkpt>
      <trkpt lat="43.85609" lon="7.22561">
        <ele>478.535156</ele>
        <time>2017-02-10T14:31:16Z</time>
      </trkpt>
      <trkpt lat="43.85607" lon="7.22556">
        <ele>478.376068</ele>
        <time>2017-02-10T14:31:18Z</time>
      </trkpt>
      <trkpt lat="43.85605" lon="7.22552">
        <ele>478.212952</ele>
        <time>2017-02-10T14:31:20Z</time>
      </trkpt>
      <trkpt lat="43.85604" lon="7.22547">
        <ele>478.045715</ele>
        <time>2017-02-10T14:31:22Z</time>
      </trkpt>
      <trkpt lat="43.85603" lon="7.22542">
        <ele>477.973816</ele>
        <time>2017-02-10T14:31:24Z</time>
      </trkpt>
      <trkpt lat="43.85602" lon="7.22538">
        <ele>477.986908</ele>
        <time>2017-02-10T14:31:26Z</time>
      </trkpt>
      <trkpt lat="43.85602" lon="7.22534">
        <ele>477.964203</ele>
        <time>2017-02-10T14:31:28Z</time>
      </trkpt>
      <trkpt lat="43.85601" lon="7.22529">
        <ele>478.009918</ele>
        <time>2017-02-10T14:31:30Z</time>
      </trkpt>
      <trkpt lat="43.85601" lon="7.22525">
        <ele>478.003479</ele>
        <time>2017-02-10T14:31:32Z</time>
      </trkpt>
      <trkpt lat="43.85602" lon="7.22521">
        <ele>478.105804</ele>
        <time>2017-02-10T14:31:34Z</time>
      </trkpt>
      <trkpt lat="43.85602" lon="7.22517">
        <ele>478.125427</ele>
        <time>2017-02-10T14:31:36Z</time>
      </trkpt>
      <trkpt lat="43.85602" lon="7.22513">
        <ele>478.131897</ele>
        <time>2017-02-10T14:31:38Z</time>
      </trkpt>
      <trkpt lat="43.85601" lon="7.2251">
        <ele>478.190674</ele>
        <time>2017-02-10T14:31:40Z</time>
      </trkpt>
      <trkpt lat="43.85602" lon="7.22505">
        <ele>478.262543</ele>
        <time>2017-02-10T14:31:42Z</time>
      </trkpt>
      <trkpt lat="43.85603" lon="7.22501">
        <ele>478.371735</ele>
        <time>2017-02-10T14:31:44Z</time>
      </trkpt>
      <trkpt lat="43.85602" lon="7.22498">
        <ele>478.652588</ele>
        <time>2017-02-10T14:31:46Z</time>
      </trkpt>
      <trkpt lat="43.85601" lon="7.22494">
        <ele>478.818115</ele>
        <time>2017-02-10T14:31:48Z</time>
      </trkpt>
      <trkpt lat="43.85601" lon="7.2249">
        <ele>479.091553</ele>
        <time>2017-02-10T14:31:50Z</time>
      </trkpt>
      <trkpt lat="43.85601" lon="7.22486">
        <ele>479.342041</ele>
        <time>2017-02-10T14:31:52Z</time>
      </trkpt>
      <trkpt lat="43.85601" lon="7.22483">
        <ele>479.648193</ele>
        <time>2017-02-10T14:31:54Z</time>
      </trkpt>
      <trkpt lat="43.856" lon="7.22479">
        <ele>480.059814</ele>
        <time>2017-02-10T14:31:56Z</time>
      </trkpt>
      <trkpt lat="43.85599" lon="7.22476">
        <ele>480.376617</ele>
        <time>2017-02-10T14:31:58Z</time>
      </trkpt>
      <trkpt lat="43.85598" lon="7.22472">
        <ele>480.690277</ele>
        <time>2017-02-10T14:32:00Z</time>
      </trkpt>
      <trkpt lat="43.85597" lon="7.22469">
        <ele>481.095276</ele>
        <time>2017-02-10T14:32:02Z</time>
      </trkpt>
      <trkpt lat="43.85596" lon="7.22465">
        <ele>481.44165</ele>
        <time>2017-02-10T14:32:04Z</time>
      </trkpt>
      <trkpt lat="43.85595" lon="7.22462">
        <ele>481.70224</ele>
        <time>2017-02-10T14:32:06Z</time>
      </trkpt>
      <trkpt lat="43.85594" lon="7.22459">
        <ele>482.029938</ele>
        <time>2017-02-10T14:32:08Z</time>
      </trkpt>
      <trkpt lat="43.85592" lon="7.22456">
        <ele>482.3414</ele>
        <time>2017-02-10T14:32:10Z</time>
      </trkpt>
      <trkpt lat="43.8559" lon="7.22452">
        <ele>482.544006</ele>
        <time>2017-02-10T14:32:12Z</time>
      </trkpt>
      <trkpt lat="43.85588" lon="7.22449">
        <ele>482.841248</ele>
        <time>2017-02-10T14:32:14Z</time>
      </trkpt>
      <trkpt lat="43.85586" lon="7.22447">
        <ele>483.092285</ele>
        <time>2017-02-10T14:32:16Z</time>
      </trkpt>
      <trkpt lat="43.85584" lon="7.22445">
        <ele>483.41684</ele>
        <time>2017-02-10T14:32:18Z</time>
      </trkpt>
      <trkpt lat="43.85582" lon="7.22443">
        <ele>483.854736</ele>
        <time>2017-02-10T14:32:20Z</time>
      </trkpt>
      <trkpt lat="43.85581" lon="7.2244">
        <ele>484.183685</ele>
        <time>2017-02-10T14:32:22Z</time>
      </trkpt>
      <trkpt lat="43.85579" lon="7.22438">
        <ele>484.469147</ele>
        <time>2017-02-10T14:32:24Z</time>
      </trkpt>
      <trkpt lat="43.85578" lon="7.22435">
        <ele>484.770264</ele>
        <time>2017-02-10T14:32:26Z</time>
      </trkpt>
      <trkpt lat="43.85576" lon="7.22432">
        <ele>485.031738</ele>
        <time>2017-02-10T14:32:28Z</time>
      </trkpt>
      <trkpt lat="43.85575" lon="7.22429">
        <ele>485.346497</ele>
        <time>2017-02-10T14:32:30Z</time>
      </trkpt>
      <trkpt lat="43.85573" lon="7.22427">
        <ele>485.625427</ele>
        <time>2017-02-10T14:32:32Z</time>
      </trkpt>
      <trkpt lat="43.85571" lon="7.22425">
        <ele>485.921143</ele>
        <time>2017-02-10T14:32:34Z</time>
      </trkpt>
      <trkpt lat="43.8557" lon="7.22424">
        <ele>486.233307</ele>
        <time>2017-02-10T14:32:36Z</time>
      </trkpt>
      <trkpt lat="43.85569" lon="7.22422">
        <ele>486.538422</ele>
        <time>2017-02-10T14:32:38Z</time>
      </trkpt>
      <trkpt lat="43.8557" lon="7.22418">
        <ele>487.123718</ele>
        <time>2017-02-10T14:32:42Z</time>
      </trkpt>
      <trkpt lat="43.85571" lon="7.22416">
        <ele>487.411438</ele>
        <time>2017-02-10T14:32:44Z</time>
      </trkpt>
      <trkpt lat="43.85571" lon="7.22414">
        <ele>487.76889</ele>
        <time>2017-02-10T14:32:46Z</time>
      </trkpt>
      <trkpt lat="43.85571" lon="7.22411">
        <ele>487.930359</ele>
        <time>2017-02-10T14:32:48Z</time>
      </trkpt>
      <trkpt lat="43.8557" lon="7.22408">
        <ele>488.252991</ele>
        <time>2017-02-10T14:32:50Z</time>
      </trkpt>
      <trkpt lat="43.85571" lon="7.22406">
        <ele>488.575623</ele>
        <time>2017-02-10T14:32:52Z</time>
      </trkpt>
      <trkpt lat="43.85572" lon="7.22402">
        <ele>489.241272</ele>
        <time>2017-02-10T14:32:56Z</time>
      </trkpt>
      <trkpt lat="43.85572" lon="7.224">
        <ele>489.602692</ele>
        <time>2017-02-10T14:32:58Z</time>
      </trkpt>
      <trkpt lat="43.85574" lon="7.22398">
        <ele>490.001617</ele>
        <time>2017-02-10T14:33:00Z</time>
      </trkpt>
      <trkpt lat="43.85577" lon="7.22392">
        <ele>491.490723</ele>
        <time>2017-02-10T14:33:08Z</time>
      </trkpt>
      <trkpt lat="43.85578" lon="7.22391">
        <ele>491.89624</ele>
        <time>2017-02-10T14:33:10Z</time>
      </trkpt>
      <trkpt lat="43.85577" lon="7.22386">
        <ele>492.598724</ele>
        <time>2017-02-10T14:33:14Z</time>
      </trkpt>
      <trkpt lat="43.85577" lon="7.22384">
        <ele>492.973053</ele>
        <time>2017-02-10T14:33:16Z</time>
      </trkpt>
      <trkpt lat="43.85576" lon="7.22383">
        <ele>493.330719</ele>
        <time>2017-02-10T14:33:18Z</time>
      </trkpt>
      <trkpt lat="43.85574" lon="7.22382">
        <ele>493.509583</ele>
        <time>2017-02-10T14:33:20Z</time>
      </trkpt>
      <trkpt lat="43.85572" lon="7.22383">
        <ele>493.926086</ele>
        <time>2017-02-10T14:33:22Z</time>
      </trkpt>
      <trkpt lat="43.85571" lon="7.22382">
        <ele>494.316467</ele>
        <time>2017-02-10T14:33:24Z</time>
      </trkpt>
      <trkpt lat="43.85569" lon="7.22382">
        <ele>494.739594</ele>
        <time>2017-02-10T14:33:26Z</time>
      </trkpt>
      <trkpt lat="43.85567" lon="7.22381">
        <ele>495.084229</ele>
        <time>2017-02-10T14:33:28Z</time>
      </trkpt>
      <trkpt lat="43.85565" lon="7.22381">
        <ele>495.481781</ele>
        <time>2017-02-10T14:33:30Z</time>
      </trkpt>
      <trkpt lat="43.85564" lon="7.22381">
        <ele>495.881409</ele>
        <time>2017-02-10T14:33:32Z</time>
      </trkpt>
      <trkpt lat="43.85562" lon="7.22381">
        <ele>496.643494</ele>
        <time>2017-02-10T14:33:36Z</time>
      </trkpt>
      <trkpt lat="43.85561" lon="7.22379">
        <ele>497.0047</ele>
        <time>2017-02-10T14:33:38Z</time>
      </trkpt>
      <trkpt lat="43.85562" lon="7.22377">
        <ele>497.785736</ele>
        <time>2017-02-10T14:33:42Z</time>
      </trkpt>
      <trkpt lat="43.85564" lon="7.22373">
        <ele>499.033752</ele>
        <time>2017-02-10T14:33:48Z</time>
      </trkpt>
      <trkpt lat="43.85564" lon="7.22369">
        <ele>500.454437</ele>
        <time>2017-02-10T14:33:56Z</time>
      </trkpt>
      <trkpt lat="43.85562" lon="7.22368">
        <ele>500.83197</ele>
        <time>2017-02-10T14:33:58Z</time>
      </trkpt>
      <trkpt lat="43.85561" lon="7.22368">
        <ele>501.194244</ele>
        <time>2017-02-10T14:34:00Z</time>
      </trkpt>
      <trkpt lat="43.85559" lon="7.22368">
        <ele>501.530365</ele>
        <time>2017-02-10T14:34:02Z</time>
      </trkpt>
      <trkpt lat="43.85557" lon="7.22368">
        <ele>501.910797</ele>
        <time>2017-02-10T14:34:04Z</time>
      </trkpt>
      <trkpt lat="43.85555" lon="7.22368">
        <ele>502.286194</ele>
        <time>2017-02-10T14:34:06Z</time>
      </trkpt>
      <trkpt lat="43.85554" lon="7.22367">
        <ele>502.687744</ele>
        <time>2017-02-10T14:34:08Z</time>
      </trkpt>
      <trkpt lat="43.85553" lon="7.22367">
        <ele>503.089294</ele>
        <time>2017-02-10T14:34:10Z</time>
      </trkpt>
      <trkpt lat="43.85551" lon="7.22367">
        <ele>503.477844</ele>
        <time>2017-02-10T14:34:12Z</time>
      </trkpt>
      <trkpt lat="43.8555" lon="7.22367">
        <ele>503.894226</ele>
        <time>2017-02-10T14:34:14Z</time>
      </trkpt>
      <trkpt lat="43.85548" lon="7.22368">
        <ele>504.272278</ele>
        <time>2017-02-10T14:34:16Z</time>
      </trkpt>
      <trkpt lat="43.85545" lon="7.22367">
        <ele>504.7854</ele>
        <time>2017-02-10T14:34:18Z</time>
      </trkpt>
      <trkpt lat="43.85541" lon="7.22366">
        <ele>505.169617</ele>
        <time>2017-02-10T14:34:20Z</time>
      </trkpt>
      <trkpt lat="43.85538" lon="7.22366">
        <ele>505.584473</ele>
        <time>2017-02-10T14:34:22Z</time>
      </trkpt>
      <trkpt lat="43.85535" lon="7.22365">
        <ele>505.994965</ele>
        <time>2017-02-10T14:34:24Z</time>
      </trkpt>
      <trkpt lat="43.85533" lon="7.22365">
        <ele>506.16095</ele>
        <time>2017-02-10T14:34:26Z</time>
      </trkpt>
      <trkpt lat="43.8553" lon="7.22364">
        <ele>506.50235</ele>
        <time>2017-02-10T14:34:28Z</time>
      </trkpt>
      <trkpt lat="43.85527" lon="7.22363">
        <ele>506.847961</ele>
        <time>2017-02-10T14:34:30Z</time>
      </trkpt>
      <trkpt lat="43.85525" lon="7.22363">
        <ele>507.260681</ele>
        <time>2017-02-10T14:34:32Z</time>
      </trkpt>
      <trkpt lat="43.85523" lon="7.22362">
        <ele>507.675598</ele>
        <time>2017-02-10T14:34:34Z</time>
      </trkpt>
      <trkpt lat="43.85521" lon="7.22361">
        <ele>508.06427</ele>
        <time>2017-02-10T14:34:36Z</time>
      </trkpt>
      <trkpt lat="43.85519" lon="7.22361">
        <ele>508.477051</ele>
        <time>2017-02-10T14:34:38Z</time>
      </trkpt>
      <trkpt lat="43.85516" lon="7.2236">
        <ele>508.864899</ele>
        <time>2017-02-10T14:34:40Z</time>
      </trkpt>
      <trkpt lat="43.85515" lon="7.22359">
        <ele>509.288391</ele>
        <time>2017-02-10T14:34:42Z</time>
      </trkpt>
      <trkpt lat="43.85513" lon="7.22359">
        <ele>509.735504</ele>
        <time>2017-02-10T14:34:44Z</time>
      </trkpt>
      <trkpt lat="43.85511" lon="7.22359">
        <ele>510.106781</ele>
        <time>2017-02-10T14:34:46Z</time>
      </trkpt>
      <trkpt lat="43.85509" lon="7.22359">
        <ele>510.464996</ele>
        <time>2017-02-10T14:34:48Z</time>
      </trkpt>
      <trkpt lat="43.85507" lon="7.22359">
        <ele>510.836334</ele>
        <time>2017-02-10T14:34:50Z</time>
      </trkpt>
      <trkpt lat="43.85505" lon="7.22358">
        <ele>511.23175</ele>
        <time>2017-02-10T14:34:52Z</time>
      </trkpt>
      <trkpt lat="43.85503" lon="7.22358">
        <ele>511.419617</ele>
        <time>2017-02-10T14:34:54Z</time>
      </trkpt>
      <trkpt lat="43.85501" lon="7.22357">
        <ele>511.806946</ele>
        <time>2017-02-10T14:34:56Z</time>
      </trkpt>
      <trkpt lat="43.855" lon="7.22357">
        <ele>512.267883</ele>
        <time>2017-02-10T14:34:58Z</time>
      </trkpt>
      <trkpt lat="43.85498" lon="7.22355">
        <ele>512.597778</ele>
        <time>2017-02-10T14:35:00Z</time>
      </trkpt>
      <trkpt lat="43.85497" lon="7.22353">
        <ele>513.010742</ele>
        <time>2017-02-10T14:35:02Z</time>
      </trkpt>
      <trkpt lat="43.85495" lon="7.22351">
        <ele>513.360352</ele>
        <time>2017-02-10T14:35:04Z</time>
      </trkpt>
      <trkpt lat="43.85494" lon="7.22349">
        <ele>513.68811</ele>
        <time>2017-02-10T14:35:06Z</time>
      </trkpt>
      <trkpt lat="43.85491" lon="7.22348">
        <ele>514.596313</ele>
        <time>2017-02-10T14:35:10Z</time>
      </trkpt>
      <trkpt lat="43.8549" lon="7.22347">
        <ele>514.978149</ele>
        <time>2017-02-10T14:35:12Z</time>
      </trkpt>
      <trkpt lat="43.85486" lon="7.22344">
        <ele>516.17157</ele>
        <time>2017-02-10T14:35:18Z</time>
      </trkpt>
      <trkpt lat="43.85485" lon="7.22343">
        <ele>516.624878</ele>
        <time>2017-02-10T14:35:20Z</time>
      </trkpt>
      <trkpt lat="43.85483" lon="7.22341">
        <ele>517.25885</ele>
        <time>2017-02-10T14:35:24Z</time>
      </trkpt>
      <trkpt lat="43.85481" lon="7.2234">
        <ele>517.637085</ele>
        <time>2017-02-10T14:35:26Z</time>
      </trkpt>
      <trkpt lat="43.85479" lon="7.2234">
        <ele>518.076477</ele>
        <time>2017-02-10T14:35:28Z</time>
      </trkpt>
      <trkpt lat="43.85478" lon="7.22338">
        <ele>518.588013</ele>
        <time>2017-02-10T14:35:30Z</time>
      </trkpt>
      <trkpt lat="43.85475" lon="7.22335">
        <ele>519.994873</ele>
        <time>2017-02-10T14:35:36Z</time>
      </trkpt>
      <trkpt lat="43.85473" lon="7.22334">
        <ele>520.924194</ele>
        <time>2017-02-10T14:35:40Z</time>
      </trkpt>
      <trkpt lat="43.85472" lon="7.22333">
        <ele>521.385559</ele>
        <time>2017-02-10T14:35:42Z</time>
      </trkpt>
      <trkpt lat="43.8547" lon="7.22331">
        <ele>521.866638</ele>
        <time>2017-02-10T14:35:44Z</time>
      </trkpt>
      <trkpt lat="43.85466" lon="7.22329">
        <ele>523.143799</ele>
        <time>2017-02-10T14:35:50Z</time>
      </trkpt>
      <trkpt lat="43.85465" lon="7.22328">
        <ele>523.603394</ele>
        <time>2017-02-10T14:35:52Z</time>
      </trkpt>
      <trkpt lat="43.85463" lon="7.22327">
        <ele>524.133301</ele>
        <time>2017-02-10T14:35:54Z</time>
      </trkpt>
      <trkpt lat="43.85461" lon="7.22325">
        <ele>525.207153</ele>
        <time>2017-02-10T14:35:58Z</time>
      </trkpt>
      <trkpt lat="43.85459" lon="7.22324">
        <ele>525.751831</ele>
        <time>2017-02-10T14:36:00Z</time>
      </trkpt>
      <trkpt lat="43.85458" lon="7.22323">
        <ele>526.257202</ele>
        <time>2017-02-10T14:36:02Z</time>
      </trkpt>
      <trkpt lat="43.85455" lon="7.2232">
        <ele>527.364502</ele>
        <time>2017-02-10T14:36:06Z</time>
      </trkpt>
      <trkpt lat="43.85454" lon="7.22319">
        <ele>527.926819</ele>
        <time>2017-02-10T14:36:08Z</time>
      </trkpt>
      <trkpt lat="43.85452" lon="7.22319">
        <ele>528.438843</ele>
        <time>2017-02-10T14:36:10Z</time>
      </trkpt>
      <trkpt lat="43.85449" lon="7.22317">
        <ele>529.960449</ele>
        <time>2017-02-10T14:36:16Z</time>
      </trkpt>
      <trkpt lat="43.85448" lon="7.22316">
        <ele>530.246948</ele>
        <time>2017-02-10T14:36:18Z</time>
      </trkpt>
      <trkpt lat="43.85446" lon="7.22314">
        <ele>531.251587</ele>
        <time>2017-02-10T14:36:22Z</time>
      </trkpt>
      <trkpt lat="43.85445" lon="7.22313">
        <ele>531.725464</ele>
        <time>2017-02-10T14:36:24Z</time>
      </trkpt>
      <trkpt lat="43.85444" lon="7.22312">
        <ele>532.257385</ele>
        <time>2017-02-10T14:36:26Z</time>
      </trkpt>
      <trkpt lat="43.85442" lon="7.2231">
        <ele>532.732361</ele>
        <time>2017-02-10T14:36:28Z</time>
      </trkpt>
      <trkpt lat="43.85441" lon="7.22309">
        <ele>533.159302</ele>
        <time>2017-02-10T14:36:30Z</time>
      </trkpt>
      <trkpt lat="43.85438" lon="7.22307">
        <ele>534.634827</ele>
        <time>2017-02-10T14:36:36Z</time>
      </trkpt>
      <trkpt lat="43.85437" lon="7.22306">
        <ele>535.096802</ele>
        <time>2017-02-10T14:36:38Z</time>
      </trkpt>
      <trkpt lat="43.85436" lon="7.22305">
        <ele>535.558838</ele>
        <time>2017-02-10T14:36:40Z</time>
      </trkpt>
      <trkpt lat="43.85434" lon="7.22305">
        <ele>536.009949</ele>
        <time>2017-02-10T14:36:42Z</time>
      </trkpt>
      <trkpt lat="43.85433" lon="7.22304">
        <ele>536.474243</ele>
        <time>2017-02-10T14:36:44Z</time>
      </trkpt>
      <trkpt lat="43.85427" lon="7.22301">
        <ele>538.67395</ele>
        <time>2017-02-10T14:36:54Z</time>
      </trkpt>
      <trkpt lat="43.85426" lon="7.22301">
        <ele>539.140503</ele>
        <time>2017-02-10T14:36:56Z</time>
      </trkpt>
      <trkpt lat="43.85424" lon="7.22301">
        <ele>539.337708</ele>
        <time>2017-02-10T14:36:58Z</time>
      </trkpt>
      <trkpt lat="43.85422" lon="7.22302">
        <ele>539.758301</ele>
        <time>2017-02-10T14:37:00Z</time>
      </trkpt>
      <trkpt lat="43.8542" lon="7.22304">
        <ele>540.2052</ele>
        <time>2017-02-10T14:37:02Z</time>
      </trkpt>
      <trkpt lat="43.85418" lon="7.22304">
        <ele>540.672852</ele>
        <time>2017-02-10T14:37:04Z</time>
      </trkpt>
      <trkpt lat="43.85416" lon="7.22305">
        <ele>541.08905</ele>
        <time>2017-02-10T14:37:06Z</time>
      </trkpt>
      <trkpt lat="43.85415" lon="7.22306">
        <ele>541.463684</ele>
        <time>2017-02-10T14:37:08Z</time>
      </trkpt>
      <trkpt lat="43.85413" lon="7.22306">
        <ele>541.866821</ele>
        <time>2017-02-10T14:37:10Z</time>
      </trkpt>
      <trkpt lat="43.85412" lon="7.22307">
        <ele>542.329102</ele>
        <time>2017-02-10T14:37:12Z</time>
      </trkpt>
      <trkpt lat="43.8541" lon="7.22307">
        <ele>542.721375</ele>
        <time>2017-02-10T14:37:14Z</time>
      </trkpt>
      <trkpt lat="43.85408" lon="7.22306">
        <ele>543.146362</ele>
        <time>2017-02-10T14:37:16Z</time>
      </trkpt>
      <trkpt lat="43.85405" lon="7.22305">
        <ele>543.535461</ele>
        <time>2017-02-10T14:37:18Z</time>
      </trkpt>
      <trkpt lat="43.85403" lon="7.22301">
        <ele>543.90802</ele>
        <time>2017-02-10T14:37:20Z</time>
      </trkpt>
      <trkpt lat="43.854" lon="7.22297">
        <ele>544.383606</ele>
        <time>2017-02-10T14:37:22Z</time>
      </trkpt>
      <trkpt lat="43.85399" lon="7.22292">
        <ele>544.732056</ele>
        <time>2017-02-10T14:37:24Z</time>
      </trkpt>
      <trkpt lat="43.85397" lon="7.22287">
        <ele>544.881042</ele>
        <time>2017-02-10T14:37:26Z</time>
      </trkpt>
      <trkpt lat="43.85396" lon="7.22283">
        <ele>545.223022</ele>
        <time>2017-02-10T14:37:28Z</time>
      </trkpt>
      <trkpt lat="43.85394" lon="7.22279">
        <ele>545.429077</ele>
        <time>2017-02-10T14:37:30Z</time>
      </trkpt>
      <trkpt lat="43.85393" lon="7.22274">
        <ele>545.713989</ele>
        <time>2017-02-10T14:37:32Z</time>
      </trkpt>
      <trkpt lat="43.85392" lon="7.22268">
        <ele>545.966003</ele>
        <time>2017-02-10T14:37:34Z</time>
      </trkpt>
      <trkpt lat="43.85392" lon="7.22263">
        <ele>546.203735</ele>
        <time>2017-02-10T14:37:36Z</time>
      </trkpt>
      <trkpt lat="43.85391" lon="7.22257">
        <ele>546.350586</ele>
        <time>2017-02-10T14:37:38Z</time>
      </trkpt>
      <trkpt lat="43.85389" lon="7.22251">
        <ele>546.452454</ele>
        <time>2017-02-10T14:37:40Z</time>
      </trkpt>
      <trkpt lat="43.85388" lon="7.22246">
        <ele>546.632141</ele>
        <time>2017-02-10T14:37:42Z</time>
      </trkpt>
      <trkpt lat="43.85386" lon="7.22241">
        <ele>546.65625</ele>
        <time>2017-02-10T14:37:44Z</time>
      </trkpt>
      <trkpt lat="43.85384" lon="7.22236">
        <ele>546.717651</ele>
        <time>2017-02-10T14:37:46Z</time>
      </trkpt>
      <trkpt lat="43.85381" lon="7.22231">
        <ele>546.763733</ele>
        <time>2017-02-10T14:37:48Z</time>
      </trkpt>
      <trkpt lat="43.85379" lon="7.22226">
        <ele>546.763733</ele>
        <time>2017-02-10T14:37:50Z</time>
      </trkpt>
      <trkpt lat="43.85376" lon="7.22223">
        <ele>546.724243</ele>
        <time>2017-02-10T14:37:52Z</time>
      </trkpt>
      <trkpt lat="43.85374" lon="7.2222">
        <ele>546.684814</ele>
        <time>2017-02-10T14:37:54Z</time>
      </trkpt>
      <trkpt lat="43.85371" lon="7.22216">
        <ele>546.605896</ele>
        <time>2017-02-10T14:37:56Z</time>
      </trkpt>
      <trkpt lat="43.85369" lon="7.22212">
        <ele>546.533569</ele>
        <time>2017-02-10T14:37:58Z</time>
      </trkpt>
      <trkpt lat="43.85366" lon="7.22209">
        <ele>546.514038</ele>
        <time>2017-02-10T14:38:00Z</time>
      </trkpt>
      <trkpt lat="43.85362" lon="7.22206">
        <ele>546.470154</ele>
        <time>2017-02-10T14:38:02Z</time>
      </trkpt>
      <trkpt lat="43.85358" lon="7.22203">
        <ele>546.248718</ele>
        <time>2017-02-10T14:38:04Z</time>
      </trkpt>
      <trkpt lat="43.85354" lon="7.22201">
        <ele>546.119385</ele>
        <time>2017-02-10T14:38:06Z</time>
      </trkpt>
      <trkpt lat="43.85351" lon="7.22199">
        <ele>546.043335</ele>
        <time>2017-02-10T14:38:08Z</time>
      </trkpt>
      <trkpt lat="43.85347" lon="7.22198">
        <ele>545.992859</ele>
        <time>2017-02-10T14:38:10Z</time>
      </trkpt>
      <trkpt lat="43.85343" lon="7.22197">
        <ele>545.846069</ele>
        <time>2017-02-10T14:38:12Z</time>
      </trkpt>
      <trkpt lat="43.85339" lon="7.22196">
        <ele>545.626831</ele>
        <time>2017-02-10T14:38:14Z</time>
      </trkpt>
      <trkpt lat="43.85335" lon="7.22194">
        <ele>545.431763</ele>
        <time>2017-02-10T14:38:16Z</time>
      </trkpt>
      <trkpt lat="43.85331" lon="7.22192">
        <ele>545.197205</ele>
        <time>2017-02-10T14:38:18Z</time>
      </trkpt>
      <trkpt lat="43.85328" lon="7.2219">
        <ele>545.083252</ele>
        <time>2017-02-10T14:38:20Z</time>
      </trkpt>
      <trkpt lat="43.85324" lon="7.22188">
        <ele>544.936646</ele>
        <time>2017-02-10T14:38:22Z</time>
      </trkpt>
      <trkpt lat="43.85321" lon="7.22187">
        <ele>544.698181</ele>
        <time>2017-02-10T14:38:24Z</time>
      </trkpt>
      <trkpt lat="43.85317" lon="7.22185">
        <ele>544.483459</ele>
        <time>2017-02-10T14:38:26Z</time>
      </trkpt>
      <trkpt lat="43.85313" lon="7.22183">
        <ele>544.264282</ele>
        <time>2017-02-10T14:38:28Z</time>
      </trkpt>
      <trkpt lat="43.8531" lon="7.22182">
        <ele>544.042908</ele>
        <time>2017-02-10T14:38:30Z</time>
      </trkpt>
      <trkpt lat="43.85306" lon="7.2218">
        <ele>543.939209</ele>
        <time>2017-02-10T14:38:32Z</time>
      </trkpt>
      <trkpt lat="43.85302" lon="7.22178">
        <ele>543.748901</ele>
        <time>2017-02-10T14:38:34Z</time>
      </trkpt>
      <trkpt lat="43.85299" lon="7.22176">
        <ele>543.611206</ele>
        <time>2017-02-10T14:38:36Z</time>
      </trkpt>
      <trkpt lat="43.85295" lon="7.22174">
        <ele>543.503784</ele>
        <time>2017-02-10T14:38:38Z</time>
      </trkpt>
      <trkpt lat="43.85292" lon="7.22171">
        <ele>543.262573</ele>
        <time>2017-02-10T14:38:40Z</time>
      </trkpt>
      <trkpt lat="43.85288" lon="7.22169">
        <ele>543.028076</ele>
        <time>2017-02-10T14:38:42Z</time>
      </trkpt>
      <trkpt lat="43.85284" lon="7.22166">
        <ele>542.82428</ele>
        <time>2017-02-10T14:38:44Z</time>
      </trkpt>
      <trkpt lat="43.8528" lon="7.22162">
        <ele>542.659912</ele>
        <time>2017-02-10T14:38:46Z</time>
      </trkpt>
      <trkpt lat="43.85277" lon="7.22158">
        <ele>542.466248</ele>
        <time>2017-02-10T14:38:48Z</time>
      </trkpt>
      <trkpt lat="43.85275" lon="7.22154">
        <ele>542.345703</ele>
        <time>2017-02-10T14:38:50Z</time>
      </trkpt>
      <trkpt lat="43.85272" lon="7.2215">
        <ele>542.112183</ele>
        <time>2017-02-10T14:38:52Z</time>
      </trkpt>
      <trkpt lat="43.8527" lon="7.22147">
        <ele>542.006775</ele>
        <time>2017-02-10T14:38:54Z</time>
      </trkpt>
      <trkpt lat="43.85267" lon="7.22142">
        <ele>541.851196</ele>
        <time>2017-02-10T14:38:56Z</time>
      </trkpt>
      <trkpt lat="43.85263" lon="7.22139">
        <ele>541.724182</ele>
        <time>2017-02-10T14:38:58Z</time>
      </trkpt>
      <trkpt lat="43.8526" lon="7.22136">
        <ele>541.677979</ele>
        <time>2017-02-10T14:39:00Z</time>
      </trkpt>
      <trkpt lat="43.85258" lon="7.22133">
        <ele>541.61322</ele>
        <time>2017-02-10T14:39:02Z</time>
      </trkpt>
      <trkpt lat="43.85255" lon="7.2213">
        <ele>541.542664</ele>
        <time>2017-02-10T14:39:04Z</time>
      </trkpt>
      <trkpt lat="43.85251" lon="7.22127">
        <ele>541.499084</ele>
        <time>2017-02-10T14:39:06Z</time>
      </trkpt>
      <trkpt lat="43.85248" lon="7.22124">
        <ele>541.516602</ele>
        <time>2017-02-10T14:39:08Z</time>
      </trkpt>
      <trkpt lat="43.85246" lon="7.2212">
        <ele>541.529419</ele>
        <time>2017-02-10T14:39:10Z</time>
      </trkpt>
      <trkpt lat="43.85243" lon="7.22117">
        <ele>541.47467</ele>
        <time>2017-02-10T14:39:12Z</time>
      </trkpt>
      <trkpt lat="43.85241" lon="7.22113">
        <ele>541.414001</ele>
        <time>2017-02-10T14:39:14Z</time>
      </trkpt>
      <trkpt lat="43.85239" lon="7.22109">
        <ele>541.343262</ele>
        <time>2017-02-10T14:39:16Z</time>
      </trkpt>
      <trkpt lat="43.85236" lon="7.22105">
        <ele>541.360779</ele>
        <time>2017-02-10T14:39:18Z</time>
      </trkpt>
      <trkpt lat="43.85234" lon="7.22101">
        <ele>541.371704</ele>
        <time>2017-02-10T14:39:20Z</time>
      </trkpt>
      <trkpt lat="43.85232" lon="7.22097">
        <ele>541.387085</ele>
        <time>2017-02-10T14:39:22Z</time>
      </trkpt>
      <trkpt lat="43.8523" lon="7.22093">
        <ele>541.422119</ele>
        <time>2017-02-10T14:39:24Z</time>
      </trkpt>
      <trkpt lat="43.85228" lon="7.2209">
        <ele>541.406799</ele>
        <time>2017-02-10T14:39:26Z</time>
      </trkpt>
      <trkpt lat="43.85226" lon="7.22086">
        <ele>541.411194</ele>
        <time>2017-02-10T14:39:28Z</time>
      </trkpt>
      <trkpt lat="43.85223" lon="7.22083">
        <ele>541.459351</ele>
        <time>2017-02-10T14:39:30Z</time>
      </trkpt>
      <trkpt lat="43.8522" lon="7.2208">
        <ele>541.456238</ele>
        <time>2017-02-10T14:39:32Z</time>
      </trkpt>
      <trkpt lat="43.85218" lon="7.22077">
        <ele>541.504517</ele>
        <time>2017-02-10T14:39:34Z</time>
      </trkpt>
      <trkpt lat="43.85215" lon="7.22074">
        <ele>541.636108</ele>
        <time>2017-02-10T14:39:36Z</time>
      </trkpt>
      <trkpt lat="43.85213" lon="7.22071">
        <ele>541.629578</ele>
        <time>2017-02-10T14:39:38Z</time>
      </trkpt>
      <trkpt lat="43.8521" lon="7.22068">
        <ele>541.739136</ele>
        <time>2017-02-10T14:39:40Z</time>
      </trkpt>
      <trkpt lat="43.85208" lon="7.22066">
        <ele>541.780884</ele>
        <time>2017-02-10T14:39:42Z</time>
      </trkpt>
      <trkpt lat="43.85205" lon="7.22063">
        <ele>541.877319</ele>
        <time>2017-02-10T14:39:44Z</time>
      </trkpt>
      <trkpt lat="43.85202" lon="7.22061">
        <ele>541.962036</ele>
        <time>2017-02-10T14:39:46Z</time>
      </trkpt>
      <trkpt lat="43.85199" lon="7.22059">
        <ele>542.066895</ele>
        <time>2017-02-10T14:39:48Z</time>
      </trkpt>
      <trkpt lat="43.85196" lon="7.22056">
        <ele>542.181152</ele>
        <time>2017-02-10T14:39:50Z</time>
      </trkpt>
      <trkpt lat="43.85193" lon="7.22054">
        <ele>542.273254</ele>
        <time>2017-02-10T14:39:52Z</time>
      </trkpt>
      <trkpt lat="43.85189" lon="7.22052">
        <ele>542.378418</ele>
        <time>2017-02-10T14:39:54Z</time>
      </trkpt>
      <trkpt lat="43.85186" lon="7.2205">
        <ele>542.560242</ele>
        <time>2017-02-10T14:39:56Z</time>
      </trkpt>
      <trkpt lat="43.85182" lon="7.22047">
        <ele>542.722473</ele>
        <time>2017-02-10T14:39:58Z</time>
      </trkpt>
      <trkpt lat="43.85178" lon="7.22046">
        <ele>542.845093</ele>
        <time>2017-02-10T14:40:00Z</time>
      </trkpt>
      <trkpt lat="43.85174" lon="7.22045">
        <ele>542.967896</ele>
        <time>2017-02-10T14:40:02Z</time>
      </trkpt>
      <trkpt lat="43.85171" lon="7.22044">
        <ele>543.058105</ele>
        <time>2017-02-10T14:40:04Z</time>
      </trkpt>
      <trkpt lat="43.85167" lon="7.22043">
        <ele>543.208374</ele>
        <time>2017-02-10T14:40:06Z</time>
      </trkpt>
      <trkpt lat="43.85164" lon="7.22042">
        <ele>543.407837</ele>
        <time>2017-02-10T14:40:08Z</time>
      </trkpt>
      <trkpt lat="43.8516" lon="7.22041">
        <ele>543.515259</ele>
        <time>2017-02-10T14:40:10Z</time>
      </trkpt>
      <trkpt lat="43.85157" lon="7.22041">
        <ele>543.595703</ele>
        <time>2017-02-10T14:40:12Z</time>
      </trkpt>
      <trkpt lat="43.85154" lon="7.2204">
        <ele>543.716187</ele>
        <time>2017-02-10T14:40:14Z</time>
      </trkpt>
      <trkpt lat="43.85151" lon="7.2204">
        <ele>543.727173</ele>
        <time>2017-02-10T14:40:16Z</time>
      </trkpt>
      <trkpt lat="43.85148" lon="7.2204">
        <ele>543.775391</ele>
        <time>2017-02-10T14:40:18Z</time>
      </trkpt>
      <trkpt lat="43.85144" lon="7.2204">
        <ele>543.962769</ele>
        <time>2017-02-10T14:40:20Z</time>
      </trkpt>
      <trkpt lat="43.8514" lon="7.2204">
        <ele>544.114624</ele>
        <time>2017-02-10T14:40:22Z</time>
      </trkpt>
      <trkpt lat="43.85137" lon="7.22039">
        <ele>544.305298</ele>
        <time>2017-02-10T14:40:24Z</time>
      </trkpt>
      <trkpt lat="43.85133" lon="7.2204">
        <ele>544.399536</ele>
        <time>2017-02-10T14:40:26Z</time>
      </trkpt>
      <trkpt lat="43.8513" lon="7.22039">
        <ele>544.529663</ele>
        <time>2017-02-10T14:40:28Z</time>
      </trkpt>
      <trkpt lat="43.85126" lon="7.2204">
        <ele>544.674133</ele>
        <time>2017-02-10T14:40:30Z</time>
      </trkpt>
      <trkpt lat="43.85122" lon="7.2204">
        <ele>544.871338</ele>
        <time>2017-02-10T14:40:32Z</time>
      </trkpt>
      <trkpt lat="43.85119" lon="7.2204">
        <ele>544.873535</ele>
        <time>2017-02-10T14:40:34Z</time>
      </trkpt>
      <trkpt lat="43.85115" lon="7.22039">
        <ele>544.980896</ele>
        <time>2017-02-10T14:40:36Z</time>
      </trkpt>
      <trkpt lat="43.85112" lon="7.22038">
        <ele>544.998413</ele>
        <time>2017-02-10T14:40:38Z</time>
      </trkpt>
      <trkpt lat="43.85108" lon="7.22038">
        <ele>545.066528</ele>
        <time>2017-02-10T14:40:40Z</time>
      </trkpt>
      <trkpt lat="43.85104" lon="7.22037">
        <ele>545.009521</ele>
        <time>2017-02-10T14:40:42Z</time>
      </trkpt>
      <trkpt lat="43.85101" lon="7.22035">
        <ele>544.954712</ele>
        <time>2017-02-10T14:40:44Z</time>
      </trkpt>
      <trkpt lat="43.85097" lon="7.22035">
        <ele>544.982788</ele>
        <time>2017-02-10T14:40:46Z</time>
      </trkpt>
      <trkpt lat="43.85094" lon="7.22034">
        <ele>544.961548</ele>
        <time>2017-02-10T14:40:48Z</time>
      </trkpt>
      <trkpt lat="43.8509" lon="7.22033">
        <ele>544.963745</ele>
        <time>2017-02-10T14:40:50Z</time>
      </trkpt>
      <trkpt lat="43.85087" lon="7.22032">
        <ele>544.972534</ele>
        <time>2017-02-10T14:40:52Z</time>
      </trkpt>
      <trkpt lat="43.85083" lon="7.2203">
        <ele>545.010376</ele>
        <time>2017-02-10T14:40:54Z</time>
      </trkpt>
      <trkpt lat="43.8508" lon="7.22029">
        <ele>545.073914</ele>
        <time>2017-02-10T14:40:56Z</time>
      </trkpt>
      <trkpt lat="43.85077" lon="7.22027">
        <ele>545.183472</ele>
        <time>2017-02-10T14:40:58Z</time>
      </trkpt>
      <trkpt lat="43.85074" lon="7.22026">
        <ele>545.112183</ele>
        <time>2017-02-10T14:41:00Z</time>
      </trkpt>
      <trkpt lat="43.85071" lon="7.22025">
        <ele>545.050293</ele>
        <time>2017-02-10T14:41:02Z</time>
      </trkpt>
      <trkpt lat="43.85067" lon="7.22024">
        <ele>545.059082</ele>
        <time>2017-02-10T14:41:04Z</time>
      </trkpt>
      <trkpt lat="43.85064" lon="7.22023">
        <ele>545.074402</ele>
        <time>2017-02-10T14:41:06Z</time>
      </trkpt>
      <trkpt lat="43.85061" lon="7.22023">
        <ele>545.072266</ele>
        <time>2017-02-10T14:41:08Z</time>
      </trkpt>
      <trkpt lat="43.85057" lon="7.22021">
        <ele>545.061279</ele>
        <time>2017-02-10T14:41:10Z</time>
      </trkpt>
      <trkpt lat="43.85055" lon="7.22019">
        <ele>545.116333</ele>
        <time>2017-02-10T14:41:12Z</time>
      </trkpt>
      <trkpt lat="43.85052" lon="7.22017">
        <ele>545.138306</ele>
        <time>2017-02-10T14:41:14Z</time>
      </trkpt>
      <trkpt lat="43.85049" lon="7.22016">
        <ele>545.285095</ele>
        <time>2017-02-10T14:41:16Z</time>
      </trkpt>
      <trkpt lat="43.85046" lon="7.22014">
        <ele>545.348755</ele>
        <time>2017-02-10T14:41:18Z</time>
      </trkpt>
      <trkpt lat="43.85042" lon="7.22013">
        <ele>545.427673</ele>
        <time>2017-02-10T14:41:20Z</time>
      </trkpt>
      <trkpt lat="43.8504" lon="7.22012">
        <ele>545.508667</ele>
        <time>2017-02-10T14:41:22Z</time>
      </trkpt>
      <trkpt lat="43.85037" lon="7.22011">
        <ele>545.721313</ele>
        <time>2017-02-10T14:41:24Z</time>
      </trkpt>
      <trkpt lat="43.85033" lon="7.2201">
        <ele>545.8396</ele>
        <time>2017-02-10T14:41:26Z</time>
      </trkpt>
      <trkpt lat="43.8503" lon="7.22009">
        <ele>545.99292</ele>
        <time>2017-02-10T14:41:28Z</time>
      </trkpt>
      <trkpt lat="43.85026" lon="7.22008">
        <ele>546.09613</ele>
        <time>2017-02-10T14:41:30Z</time>
      </trkpt>
      <trkpt lat="43.85022" lon="7.22007">
        <ele>546.25177</ele>
        <time>2017-02-10T14:41:32Z</time>
      </trkpt>
      <trkpt lat="43.85019" lon="7.22006">
        <ele>546.460022</ele>
        <time>2017-02-10T14:41:34Z</time>
      </trkpt>
      <trkpt lat="43.85016" lon="7.22004">
        <ele>546.641968</ele>
        <time>2017-02-10T14:41:36Z</time>
      </trkpt>
      <trkpt lat="43.85013" lon="7.22003">
        <ele>546.876465</ele>
        <time>2017-02-10T14:41:38Z</time>
      </trkpt>
      <trkpt lat="43.85009" lon="7.22002">
        <ele>547.043091</ele>
        <time>2017-02-10T14:41:40Z</time>
      </trkpt>
      <trkpt lat="43.85006" lon="7.22">
        <ele>547.317078</ele>
        <time>2017-02-10T14:41:42Z</time>
      </trkpt>
      <trkpt lat="43.85003" lon="7.21997">
        <ele>547.338989</ele>
        <time>2017-02-10T14:41:44Z</time>
      </trkpt>
      <trkpt lat="43.85" lon="7.21995">
        <ele>547.36969</ele>
        <time>2017-02-10T14:41:46Z</time>
      </trkpt>
      <trkpt lat="43.84998" lon="7.21993">
        <ele>547.569214</ele>
        <time>2017-02-10T14:41:48Z</time>
      </trkpt>
      <trkpt lat="43.84995" lon="7.2199">
        <ele>547.746704</ele>
        <time>2017-02-10T14:41:50Z</time>
      </trkpt>
      <trkpt lat="43.84992" lon="7.21989">
        <ele>547.887085</ele>
        <time>2017-02-10T14:41:52Z</time>
      </trkpt>
      <trkpt lat="43.84989" lon="7.21986">
        <ele>548.020813</ele>
        <time>2017-02-10T14:41:54Z</time>
      </trkpt>
      <trkpt lat="43.84987" lon="7.21983">
        <ele>548.086548</ele>
        <time>2017-02-10T14:41:56Z</time>
      </trkpt>
      <trkpt lat="43.84985" lon="7.2198">
        <ele>548.216309</ele>
        <time>2017-02-10T14:41:58Z</time>
      </trkpt>
      <trkpt lat="43.84982" lon="7.21977">
        <ele>548.391724</ele>
        <time>2017-02-10T14:42:00Z</time>
      </trkpt>
      <trkpt lat="43.8498" lon="7.21974">
        <ele>548.529846</ele>
        <time>2017-02-10T14:42:02Z</time>
      </trkpt>
      <trkpt lat="43.84977" lon="7.21971">
        <ele>548.595581</ele>
        <time>2017-02-10T14:42:04Z</time>
      </trkpt>
      <trkpt lat="43.84974" lon="7.21968">
        <ele>548.797302</ele>
        <time>2017-02-10T14:42:06Z</time>
      </trkpt>
      <trkpt lat="43.84972" lon="7.21965">
        <ele>548.988159</ele>
        <time>2017-02-10T14:42:08Z</time>
      </trkpt>
      <trkpt lat="43.84969" lon="7.21962">
        <ele>549.14386</ele>
        <time>2017-02-10T14:42:10Z</time>
      </trkpt>
      <trkpt lat="43.84967" lon="7.21959">
        <ele>549.308594</ele>
        <time>2017-02-10T14:42:12Z</time>
      </trkpt>
      <trkpt lat="43.84964" lon="7.21956">
        <ele>549.343689</ele>
        <time>2017-02-10T14:42:14Z</time>
      </trkpt>
      <trkpt lat="43.84962" lon="7.21952">
        <ele>549.418274</ele>
        <time>2017-02-10T14:42:16Z</time>
      </trkpt>
      <trkpt lat="43.84959" lon="7.21949">
        <ele>549.470825</ele>
        <time>2017-02-10T14:42:18Z</time>
      </trkpt>
      <trkpt lat="43.84957" lon="7.21946">
        <ele>549.497192</ele>
        <time>2017-02-10T14:42:20Z</time>
      </trkpt>
      <trkpt lat="43.84955" lon="7.21943">
        <ele>549.571716</ele>
        <time>2017-02-10T14:42:22Z</time>
      </trkpt>
      <trkpt lat="43.84953" lon="7.2194">
        <ele>549.707642</ele>
        <time>2017-02-10T14:42:24Z</time>
      </trkpt>
      <trkpt lat="43.8495" lon="7.21937">
        <ele>549.975159</ele>
        <time>2017-02-10T14:42:26Z</time>
      </trkpt>
      <trkpt lat="43.84947" lon="7.21934">
        <ele>550.119812</ele>
        <time>2017-02-10T14:42:28Z</time>
      </trkpt>
      <trkpt lat="43.84944" lon="7.21931">
        <ele>550.179016</ele>
        <time>2017-02-10T14:42:30Z</time>
      </trkpt>
      <trkpt lat="43.84942" lon="7.21929">
        <ele>550.229431</ele>
        <time>2017-02-10T14:42:32Z</time>
      </trkpt>
      <trkpt lat="43.84939" lon="7.21926">
        <ele>550.283936</ele>
        <time>2017-02-10T14:42:34Z</time>
      </trkpt>
      <trkpt lat="43.84936" lon="7.21922">
        <ele>550.383179</ele>
        <time>2017-02-10T14:42:36Z</time>
      </trkpt>
      <trkpt lat="43.84934" lon="7.21919">
        <ele>550.483948</ele>
        <time>2017-02-10T14:42:38Z</time>
      </trkpt>
      <trkpt lat="43.84931" lon="7.21915">
        <ele>550.462036</ele>
        <time>2017-02-10T14:42:40Z</time>
      </trkpt>
      <trkpt lat="43.84928" lon="7.21911">
        <ele>550.505859</ele>
        <time>2017-02-10T14:42:42Z</time>
      </trkpt>
      <trkpt lat="43.84926" lon="7.21907">
        <ele>550.584839</ele>
        <time>2017-02-10T14:42:44Z</time>
      </trkpt>
      <trkpt lat="43.84923" lon="7.21904">
        <ele>550.668091</ele>
        <time>2017-02-10T14:42:46Z</time>
      </trkpt>
      <trkpt lat="43.8492" lon="7.219">
        <ele>550.55188</ele>
        <time>2017-02-10T14:42:48Z</time>
      </trkpt>
      <trkpt lat="43.84917" lon="7.21896">
        <ele>550.525574</ele>
        <time>2017-02-10T14:42:50Z</time>
      </trkpt>
      <trkpt lat="43.84915" lon="7.21893">
        <ele>550.401794</ele>
        <time>2017-02-10T14:42:52Z</time>
      </trkpt>
      <trkpt lat="43.84912" lon="7.2189">
        <ele>550.37738</ele>
        <time>2017-02-10T14:42:54Z</time>
      </trkpt>
      <trkpt lat="43.84909" lon="7.21887">
        <ele>550.37738</ele>
        <time>2017-02-10T14:42:56Z</time>
      </trkpt>
      <trkpt lat="43.84906" lon="7.21883">
        <ele>550.353821</ele>
        <time>2017-02-10T14:42:58Z</time>
      </trkpt>
      <trkpt lat="43.84904" lon="7.2188">
        <ele>550.369141</ele>
        <time>2017-02-10T14:43:00Z</time>
      </trkpt>
      <trkpt lat="43.84901" lon="7.21876">
        <ele>550.380066</ele>
        <time>2017-02-10T14:43:02Z</time>
      </trkpt>
      <trkpt lat="43.84898" lon="7.21873">
        <ele>550.255127</ele>
        <time>2017-02-10T14:43:04Z</time>
      </trkpt>
      <trkpt lat="43.84895" lon="7.21869">
        <ele>550.187134</ele>
        <time>2017-02-10T14:43:06Z</time>
      </trkpt>
      <trkpt lat="43.84893" lon="7.21865">
        <ele>550.044678</ele>
        <time>2017-02-10T14:43:08Z</time>
      </trkpt>
      <trkpt lat="43.8489" lon="7.21861">
        <ele>549.869263</ele>
        <time>2017-02-10T14:43:10Z</time>
      </trkpt>
      <trkpt lat="43.84887" lon="7.21858">
        <ele>549.775757</ele>
        <time>2017-02-10T14:43:12Z</time>
      </trkpt>
      <trkpt lat="43.84885" lon="7.21854">
        <ele>549.749451</ele>
        <time>2017-02-10T14:43:14Z</time>
      </trkpt>
      <trkpt lat="43.84883" lon="7.2185">
        <ele>549.589233</ele>
        <time>2017-02-10T14:43:16Z</time>
      </trkpt>
      <trkpt lat="43.84882" lon="7.21846">
        <ele>549.481812</ele>
        <time>2017-02-10T14:43:18Z</time>
      </trkpt>
      <trkpt lat="43.84881" lon="7.21841">
        <ele>549.333618</ele>
        <time>2017-02-10T14:43:20Z</time>
      </trkpt>
      <trkpt lat="43.8488" lon="7.21836">
        <ele>549.193298</ele>
        <time>2017-02-10T14:43:22Z</time>
      </trkpt>
      <trkpt lat="43.84879" lon="7.21832">
        <ele>549.031128</ele>
        <time>2017-02-10T14:43:24Z</time>
      </trkpt>
      <trkpt lat="43.84879" lon="7.21827">
        <ele>548.597046</ele>
        <time>2017-02-10T14:43:26Z</time>
      </trkpt>
      <trkpt lat="43.84878" lon="7.21822">
        <ele>548.283569</ele>
        <time>2017-02-10T14:43:28Z</time>
      </trkpt>
      <trkpt lat="43.84878" lon="7.21818">
        <ele>548.224365</ele>
        <time>2017-02-10T14:43:30Z</time>
      </trkpt>
      <trkpt lat="43.84878" lon="7.21814">
        <ele>548.13147</ele>
        <time>2017-02-10T14:43:32Z</time>
      </trkpt>
      <trkpt lat="43.84878" lon="7.21811">
        <ele>548.03717</ele>
        <time>2017-02-10T14:43:34Z</time>
      </trkpt>
      <trkpt lat="43.84877" lon="7.21807">
        <ele>548.015198</ele>
        <time>2017-02-10T14:43:36Z</time>
      </trkpt>
      <trkpt lat="43.84878" lon="7.21803">
        <ele>547.977417</ele>
        <time>2017-02-10T14:43:38Z</time>
      </trkpt>
      <trkpt lat="43.84878" lon="7.218">
        <ele>547.828247</ele>
        <time>2017-02-10T14:43:40Z</time>
      </trkpt>
      <trkpt lat="43.84878" lon="7.21796">
        <ele>547.902832</ele>
        <time>2017-02-10T14:43:42Z</time>
      </trkpt>
      <trkpt lat="43.84878" lon="7.21792">
        <ele>548.038818</ele>
        <time>2017-02-10T14:43:44Z</time>
      </trkpt>
      <trkpt lat="43.84877" lon="7.2179">
        <ele>548.058533</ele>
        <time>2017-02-10T14:43:46Z</time>
      </trkpt>
      <trkpt lat="43.84876" lon="7.21788">
        <ele>548.095154</ele>
        <time>2017-02-10T14:43:48Z</time>
      </trkpt>
      <trkpt lat="43.84874" lon="7.21786">
        <ele>548.201782</ele>
        <time>2017-02-10T14:43:50Z</time>
      </trkpt>
      <trkpt lat="43.84874" lon="7.21783">
        <ele>548.355225</ele>
        <time>2017-02-10T14:43:52Z</time>
      </trkpt>
      <trkpt lat="43.84873" lon="7.2178">
        <ele>548.483826</ele>
        <time>2017-02-10T14:43:54Z</time>
      </trkpt>
      <trkpt lat="43.84873" lon="7.21778">
        <ele>548.587769</ele>
        <time>2017-02-10T14:43:56Z</time>
      </trkpt>
      <trkpt lat="43.84873" lon="7.21775">
        <ele>548.791626</ele>
        <time>2017-02-10T14:43:58Z</time>
      </trkpt>
      <trkpt lat="43.84873" lon="7.21772">
        <ele>548.98407</ele>
        <time>2017-02-10T14:44:00Z</time>
      </trkpt>
      <trkpt lat="43.84872" lon="7.21769">
        <ele>549.212097</ele>
        <time>2017-02-10T14:44:02Z</time>
      </trkpt>
      <trkpt lat="43.84871" lon="7.21767">
        <ele>549.532593</ele>
        <time>2017-02-10T14:44:04Z</time>
      </trkpt>
      <trkpt lat="43.84871" lon="7.21764">
        <ele>549.973267</ele>
        <time>2017-02-10T14:44:06Z</time>
      </trkpt>
      <trkpt lat="43.84871" lon="7.21762">
        <ele>550.453369</ele>
        <time>2017-02-10T14:44:08Z</time>
      </trkpt>
      <trkpt lat="43.84871" lon="7.2176">
        <ele>550.843689</ele>
        <time>2017-02-10T14:44:10Z</time>
      </trkpt>
      <trkpt lat="43.84871" lon="7.21758">
        <ele>551.2052</ele>
        <time>2017-02-10T14:44:12Z</time>
      </trkpt>
      <trkpt lat="43.84871" lon="7.21755">
        <ele>551.363098</ele>
        <time>2017-02-10T14:44:14Z</time>
      </trkpt>
      <trkpt lat="43.84871" lon="7.21753">
        <ele>551.792236</ele>
        <time>2017-02-10T14:44:16Z</time>
      </trkpt>
      <trkpt lat="43.84871" lon="7.2175">
        <ele>552.121216</ele>
        <time>2017-02-10T14:44:18Z</time>
      </trkpt>
      <trkpt lat="43.84871" lon="7.21748">
        <ele>552.509399</ele>
        <time>2017-02-10T14:44:20Z</time>
      </trkpt>
      <trkpt lat="43.84873" lon="7.21744">
        <ele>553.505249</ele>
        <time>2017-02-10T14:44:26Z</time>
      </trkpt>
      <trkpt lat="43.84874" lon="7.21743">
        <ele>553.851318</ele>
        <time>2017-02-10T14:44:28Z</time>
      </trkpt>
      <trkpt lat="43.84874" lon="7.21742">
        <ele>554.231689</ele>
        <time>2017-02-10T14:44:30Z</time>
      </trkpt>
      <trkpt lat="43.84876" lon="7.21739">
        <ele>555.056519</ele>
        <time>2017-02-10T14:44:34Z</time>
      </trkpt>
      <trkpt lat="43.84877" lon="7.21735">
        <ele>556.130737</ele>
        <time>2017-02-10T14:44:40Z</time>
      </trkpt>
      <trkpt lat="43.8488" lon="7.21734">
        <ele>557.046021</ele>
        <time>2017-02-10T14:44:44Z</time>
      </trkpt>
      <trkpt lat="43.84882" lon="7.21733">
        <ele>557.456055</ele>
        <time>2017-02-10T14:44:46Z</time>
      </trkpt>
      <trkpt lat="43.84883" lon="7.21733">
        <ele>557.915161</ele>
        <time>2017-02-10T14:44:48Z</time>
      </trkpt>
      <trkpt lat="43.84885" lon="7.21733">
        <ele>558.334351</ele>
        <time>2017-02-10T14:44:50Z</time>
      </trkpt>
      <trkpt lat="43.84886" lon="7.21733">
        <ele>558.854431</ele>
        <time>2017-02-10T14:44:52Z</time>
      </trkpt>
      <trkpt lat="43.84887" lon="7.21733">
        <ele>559.324097</ele>
        <time>2017-02-10T14:44:54Z</time>
      </trkpt>
      <trkpt lat="43.84889" lon="7.21733">
        <ele>559.825256</ele>
        <time>2017-02-10T14:44:56Z</time>
      </trkpt>
      <trkpt lat="43.8489" lon="7.21732">
        <ele>560.288391</ele>
        <time>2017-02-10T14:44:58Z</time>
      </trkpt>
      <trkpt lat="43.84892" lon="7.21731">
        <ele>560.791138</ele>
        <time>2017-02-10T14:45:00Z</time>
      </trkpt>
      <trkpt lat="43.84893" lon="7.21729">
        <ele>561.274048</ele>
        <time>2017-02-10T14:45:02Z</time>
      </trkpt>
      <trkpt lat="43.84894" lon="7.21727">
        <ele>561.770142</ele>
        <time>2017-02-10T14:45:04Z</time>
      </trkpt>
      <trkpt lat="43.84895" lon="7.21725">
        <ele>562.213501</ele>
        <time>2017-02-10T14:45:06Z</time>
      </trkpt>
      <trkpt lat="43.84897" lon="7.21724">
        <ele>562.742615</ele>
        <time>2017-02-10T14:45:08Z</time>
      </trkpt>
      <trkpt lat="43.84898" lon="7.21722">
        <ele>563.174194</ele>
        <time>2017-02-10T14:45:10Z</time>
      </trkpt>
      <trkpt lat="43.84898" lon="7.2172">
        <ele>563.442078</ele>
        <time>2017-02-10T14:45:12Z</time>
      </trkpt>
      <trkpt lat="43.849" lon="7.21719">
        <ele>563.872986</ele>
        <time>2017-02-10T14:45:14Z</time>
      </trkpt>
      <trkpt lat="43.84901" lon="7.21718">
        <ele>564.270447</ele>
        <time>2017-02-10T14:45:16Z</time>
      </trkpt>
      <trkpt lat="43.84903" lon="7.21717">
        <ele>564.727234</ele>
        <time>2017-02-10T14:45:18Z</time>
      </trkpt>
      <trkpt lat="43.84905" lon="7.21715">
        <ele>565.18396</ele>
        <time>2017-02-10T14:45:20Z</time>
      </trkpt>
      <trkpt lat="43.84907" lon="7.21714">
        <ele>565.578186</ele>
        <time>2017-02-10T14:45:22Z</time>
      </trkpt>
      <trkpt lat="43.84909" lon="7.21712">
        <ele>565.9776</ele>
        <time>2017-02-10T14:45:24Z</time>
      </trkpt>
      <trkpt lat="43.84909" lon="7.2171">
        <ele>566.424683</ele>
        <time>2017-02-10T14:45:26Z</time>
      </trkpt>
      <trkpt lat="43.8491" lon="7.21709">
        <ele>566.881226</ele>
        <time>2017-02-10T14:45:28Z</time>
      </trkpt>
      <trkpt lat="43.84911" lon="7.21707">
        <ele>567.283264</ele>
        <time>2017-02-10T14:45:30Z</time>
      </trkpt>
      <trkpt lat="43.84913" lon="7.21706">
        <ele>567.713745</ele>
        <time>2017-02-10T14:45:32Z</time>
      </trkpt>
      <trkpt lat="43.84914" lon="7.21704">
        <ele>568.159668</ele>
        <time>2017-02-10T14:45:34Z</time>
      </trkpt>
      <trkpt lat="43.84915" lon="7.21702">
        <ele>568.579224</ele>
        <time>2017-02-10T14:45:36Z</time>
      </trkpt>
      <trkpt lat="43.84916" lon="7.21701">
        <ele>569.031799</ele>
        <time>2017-02-10T14:45:38Z</time>
      </trkpt>
      <trkpt lat="43.84918" lon="7.217">
        <ele>569.644775</ele>
        <time>2017-02-10T14:45:42Z</time>
      </trkpt>
      <trkpt lat="43.84919" lon="7.21698">
        <ele>570.082092</ele>
        <time>2017-02-10T14:45:44Z</time>
      </trkpt>
      <trkpt lat="43.84919" lon="7.21696">
        <ele>570.508362</ele>
        <time>2017-02-10T14:45:46Z</time>
      </trkpt>
      <trkpt lat="43.84921" lon="7.21695">
        <ele>570.99176</ele>
        <time>2017-02-10T14:45:48Z</time>
      </trkpt>
      <trkpt lat="43.84922" lon="7.21693">
        <ele>571.370789</ele>
        <time>2017-02-10T14:45:50Z</time>
      </trkpt>
      <trkpt lat="43.84923" lon="7.21693">
        <ele>571.809814</ele>
        <time>2017-02-10T14:45:52Z</time>
      </trkpt>
      <trkpt lat="43.84924" lon="7.21692">
        <ele>572.316895</ele>
        <time>2017-02-10T14:45:54Z</time>
      </trkpt>
      <trkpt lat="43.84925" lon="7.21691">
        <ele>572.771729</ele>
        <time>2017-02-10T14:45:56Z</time>
      </trkpt>
      <trkpt lat="43.84927" lon="7.21692">
        <ele>573.149719</ele>
        <time>2017-02-10T14:45:58Z</time>
      </trkpt>
      <trkpt lat="43.84929" lon="7.21692">
        <ele>573.55127</ele>
        <time>2017-02-10T14:46:00Z</time>
      </trkpt>
      <trkpt lat="43.84931" lon="7.21691">
        <ele>573.996277</ele>
        <time>2017-02-10T14:46:02Z</time>
      </trkpt>
      <trkpt lat="43.84933" lon="7.21691">
        <ele>574.341309</ele>
        <time>2017-02-10T14:46:04Z</time>
      </trkpt>
      <trkpt lat="43.84935" lon="7.2169">
        <ele>574.746094</ele>
        <time>2017-02-10T14:46:06Z</time>
      </trkpt>
      <trkpt lat="43.84937" lon="7.21688">
        <ele>575.187378</ele>
        <time>2017-02-10T14:46:08Z</time>
      </trkpt>
      <trkpt lat="43.84939" lon="7.21687">
        <ele>575.577637</ele>
        <time>2017-02-10T14:46:10Z</time>
      </trkpt>
      <trkpt lat="43.8494" lon="7.21685">
        <ele>575.922729</ele>
        <time>2017-02-10T14:46:12Z</time>
      </trkpt>
      <trkpt lat="43.84942" lon="7.21682">
        <ele>576.613037</ele>
        <time>2017-02-10T14:46:16Z</time>
      </trkpt>
      <trkpt lat="43.84944" lon="7.21682">
        <ele>576.78894</ele>
        <time>2017-02-10T14:46:18Z</time>
      </trkpt>
      <trkpt lat="43.84946" lon="7.21682">
        <ele>577.287964</ele>
        <time>2017-02-10T14:46:22Z</time>
      </trkpt>
      <trkpt lat="43.8495" lon="7.21682">
        <ele>577.934204</ele>
        <time>2017-02-10T14:46:28Z</time>
      </trkpt>
      <trkpt lat="43.84952" lon="7.21683">
        <ele>578.054077</ele>
        <time>2017-02-10T14:46:30Z</time>
      </trkpt>
      <trkpt lat="43.84954" lon="7.21683">
        <ele>578.188477</ele>
        <time>2017-02-10T14:46:32Z</time>
      </trkpt>
      <trkpt lat="43.84955" lon="7.21684">
        <ele>578.197266</ele>
        <time>2017-02-10T14:46:34Z</time>
      </trkpt>
      <trkpt lat="43.84956" lon="7.21685">
        <ele>578.197021</ele>
        <time>2017-02-10T14:46:36Z</time>
      </trkpt>
      <trkpt lat="43.84957" lon="7.21687">
        <ele>578.137695</ele>
        <time>2017-02-10T14:46:38Z</time>
      </trkpt>
      <trkpt lat="43.84959" lon="7.2169">
        <ele>578.012146</ele>
        <time>2017-02-10T14:46:42Z</time>
      </trkpt>
      <trkpt lat="43.84959" lon="7.21692">
        <ele>577.616516</ele>
        <time>2017-02-10T14:46:46Z</time>
      </trkpt>
      <trkpt lat="43.84959" lon="7.21693">
        <ele>577.295532</ele>
        <time>2017-02-10T14:46:48Z</time>
      </trkpt>
      <trkpt lat="43.84959" lon="7.21694">
        <ele>576.832642</ele>
        <time>2017-02-10T14:46:52Z</time>
      </trkpt>
      <trkpt lat="43.84958" lon="7.21695">
        <ele>576.47876</ele>
        <time>2017-02-10T14:46:54Z</time>
      </trkpt>
      <trkpt lat="43.84956" lon="7.21697">
        <ele>576.058899</ele>
        <time>2017-02-10T14:46:56Z</time>
      </trkpt>
      <trkpt lat="43.84958" lon="7.21699">
        <ele>575.060974</ele>
        <time>2017-02-10T14:47:00Z</time>
      </trkpt>
      <trkpt lat="43.84959" lon="7.217">
        <ele>574.603821</ele>
        <time>2017-02-10T14:47:02Z</time>
      </trkpt>
      <trkpt lat="43.84961" lon="7.21702">
        <ele>574.052124</ele>
        <time>2017-02-10T14:47:04Z</time>
      </trkpt>
      <trkpt lat="43.84961" lon="7.21703">
        <ele>573.443359</ele>
        <time>2017-02-10T14:47:06Z</time>
      </trkpt>
      <trkpt lat="43.84961" lon="7.21706">
        <ele>572.225891</ele>
        <time>2017-02-10T14:47:10Z</time>
      </trkpt>
      <trkpt lat="43.84959" lon="7.21707">
        <ele>571.604004</ele>
        <time>2017-02-10T14:47:12Z</time>
      </trkpt>
      <trkpt lat="43.84958" lon="7.21708">
        <ele>571.001892</ele>
        <time>2017-02-10T14:47:14Z</time>
      </trkpt>
      <trkpt lat="43.84957" lon="7.21709">
        <ele>570.334229</ele>
        <time>2017-02-10T14:47:16Z</time>
      </trkpt>
      <trkpt lat="43.84957" lon="7.21714">
        <ele>568.668945</ele>
        <time>2017-02-10T14:47:22Z</time>
      </trkpt>
      <trkpt lat="43.84958" lon="7.21717">
        <ele>567.519104</ele>
        <time>2017-02-10T14:47:26Z</time>
      </trkpt>
      <trkpt lat="43.84959" lon="7.21718">
        <ele>566.95459</ele>
        <time>2017-02-10T14:47:28Z</time>
      </trkpt>
      <trkpt lat="43.84959" lon="7.2172">
        <ele>566.425293</ele>
        <time>2017-02-10T14:47:30Z</time>
      </trkpt>
      <trkpt lat="43.84959" lon="7.21722">
        <ele>565.783997</ele>
        <time>2017-02-10T14:47:32Z</time>
      </trkpt>
      <trkpt lat="43.84958" lon="7.21724">
        <ele>565.175659</ele>
        <time>2017-02-10T14:47:34Z</time>
      </trkpt>
      <trkpt lat="43.84958" lon="7.21726">
        <ele>564.527832</ele>
        <time>2017-02-10T14:47:36Z</time>
      </trkpt>
      <trkpt lat="43.84959" lon="7.21728">
        <ele>563.245544</ele>
        <time>2017-02-10T14:47:40Z</time>
      </trkpt>
      <trkpt lat="43.8496" lon="7.2173">
        <ele>562.595703</ele>
        <time>2017-02-10T14:47:42Z</time>
      </trkpt>
      <trkpt lat="43.84961" lon="7.21732">
        <ele>561.976563</ele>
        <time>2017-02-10T14:47:44Z</time>
      </trkpt>
      <trkpt lat="43.84961" lon="7.21733">
        <ele>561.355347</ele>
        <time>2017-02-10T14:47:46Z</time>
      </trkpt>
      <trkpt lat="43.8496" lon="7.21734">
        <ele>561.067749</ele>
        <time>2017-02-10T14:47:48Z</time>
      </trkpt>
      <trkpt lat="43.84959" lon="7.21735">
        <ele>560.448792</ele>
        <time>2017-02-10T14:47:50Z</time>
      </trkpt>
      <trkpt lat="43.84959" lon="7.21738">
        <ele>559.26355</ele>
        <time>2017-02-10T14:47:54Z</time>
      </trkpt>
      <trkpt lat="43.84959" lon="7.21741">
        <ele>558.605164</ele>
        <time>2017-02-10T14:47:56Z</time>
      </trkpt>
      <trkpt lat="43.84958" lon="7.21743">
        <ele>557.968811</ele>
        <time>2017-02-10T14:47:58Z</time>
      </trkpt>
      <trkpt lat="43.84958" lon="7.21744">
        <ele>557.29071</ele>
        <time>2017-02-10T14:48:00Z</time>
      </trkpt>
      <trkpt lat="43.84959" lon="7.21746">
        <ele>556.733215</ele>
        <time>2017-02-10T14:48:02Z</time>
      </trkpt>
      <trkpt lat="43.84958" lon="7.21748">
        <ele>556.116089</ele>
        <time>2017-02-10T14:48:04Z</time>
      </trkpt>
      <trkpt lat="43.84957" lon="7.2175">
        <ele>555.424988</ele>
        <time>2017-02-10T14:48:06Z</time>
      </trkpt>
      <trkpt lat="43.84958" lon="7.21753">
        <ele>554.088989</ele>
        <time>2017-02-10T14:48:10Z</time>
      </trkpt>
      <trkpt lat="43.84956" lon="7.21758">
        <ele>550.704712</ele>
        <time>2017-02-10T14:48:22Z</time>
      </trkpt>
      <trkpt lat="43.84955" lon="7.21759">
        <ele>550.141235</ele>
        <time>2017-02-10T14:48:24Z</time>
      </trkpt>
      <trkpt lat="43.84955" lon="7.21761">
        <ele>549.595825</ele>
        <time>2017-02-10T14:48:26Z</time>
      </trkpt>
      <trkpt lat="43.84954" lon="7.21766">
        <ele>547.903931</ele>
        <time>2017-02-10T14:48:32Z</time>
      </trkpt>
      <trkpt lat="43.84954" lon="7.21768">
        <ele>547.408386</ele>
        <time>2017-02-10T14:48:34Z</time>
      </trkpt>
      <trkpt lat="43.84953" lon="7.21771">
        <ele>546.812134</ele>
        <time>2017-02-10T14:48:36Z</time>
      </trkpt>
      <trkpt lat="43.84951" lon="7.21773">
        <ele>546.323364</ele>
        <time>2017-02-10T14:48:38Z</time>
      </trkpt>
      <trkpt lat="43.84951" lon="7.21775">
        <ele>545.786987</ele>
        <time>2017-02-10T14:48:40Z</time>
      </trkpt>
      <trkpt lat="43.84952" lon="7.21778">
        <ele>545.195374</ele>
        <time>2017-02-10T14:48:42Z</time>
      </trkpt>
      <trkpt lat="43.84954" lon="7.21784">
        <ele>544.066772</ele>
        <time>2017-02-10T14:48:46Z</time>
      </trkpt>
      <trkpt lat="43.84954" lon="7.21786">
        <ele>543.788513</ele>
        <time>2017-02-10T14:48:48Z</time>
      </trkpt>
      <trkpt lat="43.84955" lon="7.21788">
        <ele>543.258728</ele>
        <time>2017-02-10T14:48:50Z</time>
      </trkpt>
      <trkpt lat="43.84956" lon="7.2179">
        <ele>542.713135</ele>
        <time>2017-02-10T14:48:52Z</time>
      </trkpt>
      <trkpt lat="43.84956" lon="7.21793">
        <ele>542.117249</ele>
        <time>2017-02-10T14:48:54Z</time>
      </trkpt>
      <trkpt lat="43.84957" lon="7.21795">
        <ele>541.407288</ele>
        <time>2017-02-10T14:48:56Z</time>
      </trkpt>
      <trkpt lat="43.84958" lon="7.21796">
        <ele>540.796143</ele>
        <time>2017-02-10T14:48:58Z</time>
      </trkpt>
      <trkpt lat="43.84959" lon="7.218">
        <ele>538.859924</ele>
        <time>2017-02-10T14:49:04Z</time>
      </trkpt>
      <trkpt lat="43.8496" lon="7.21803">
        <ele>537.312744</ele>
        <time>2017-02-10T14:49:08Z</time>
      </trkpt>
      <trkpt lat="43.84961" lon="7.21804">
        <ele>536.517334</ele>
        <time>2017-02-10T14:49:10Z</time>
      </trkpt>
      <trkpt lat="43.84964" lon="7.21805">
        <ele>535.499146</ele>
        <time>2017-02-10T14:49:14Z</time>
      </trkpt>
      <trkpt lat="43.84966" lon="7.21805">
        <ele>534.130493</ele>
        <time>2017-02-10T14:49:18Z</time>
      </trkpt>
      <trkpt lat="43.84968" lon="7.21807">
        <ele>533.510803</ele>
        <time>2017-02-10T14:49:20Z</time>
      </trkpt>
      <trkpt lat="43.8497" lon="7.21807">
        <ele>532.820557</ele>
        <time>2017-02-10T14:49:22Z</time>
      </trkpt>
      <trkpt lat="43.84972" lon="7.21808">
        <ele>532.152832</ele>
        <time>2017-02-10T14:49:24Z</time>
      </trkpt>
      <trkpt lat="43.84974" lon="7.21808">
        <ele>531.491821</ele>
        <time>2017-02-10T14:49:26Z</time>
      </trkpt>
      <trkpt lat="43.84976" lon="7.21808">
        <ele>530.817688</ele>
        <time>2017-02-10T14:49:28Z</time>
      </trkpt>
      <trkpt lat="43.84979" lon="7.21809">
        <ele>529.49292</ele>
        <time>2017-02-10T14:49:32Z</time>
      </trkpt>
      <trkpt lat="43.84981" lon="7.21811">
        <ele>528.273987</ele>
        <time>2017-02-10T14:49:36Z</time>
      </trkpt>
      <trkpt lat="43.84984" lon="7.21811">
        <ele>527.676636</ele>
        <time>2017-02-10T14:49:38Z</time>
      </trkpt>
      <trkpt lat="43.84987" lon="7.21812">
        <ele>527.105591</ele>
        <time>2017-02-10T14:49:40Z</time>
      </trkpt>
      <trkpt lat="43.8499" lon="7.21812">
        <ele>526.457947</ele>
        <time>2017-02-10T14:49:42Z</time>
      </trkpt>
      <trkpt lat="43.84992" lon="7.21813">
        <ele>525.764465</ele>
        <time>2017-02-10T14:49:44Z</time>
      </trkpt>
      <trkpt lat="43.84993" lon="7.21814">
        <ele>525.456055</ele>
        <time>2017-02-10T14:49:46Z</time>
      </trkpt>
      <trkpt lat="43.84996" lon="7.21815">
        <ele>524.854492</ele>
        <time>2017-02-10T14:49:48Z</time>
      </trkpt>
      <trkpt lat="43.84999" lon="7.21815">
        <ele>524.303345</ele>
        <time>2017-02-10T14:49:50Z</time>
      </trkpt>
      <trkpt lat="43.85001" lon="7.21815">
        <ele>523.771851</ele>
        <time>2017-02-10T14:49:52Z</time>
      </trkpt>
      <trkpt lat="43.85004" lon="7.21816">
        <ele>523.054565</ele>
        <time>2017-02-10T14:49:54Z</time>
      </trkpt>
      <trkpt lat="43.85007" lon="7.21817">
        <ele>522.387756</ele>
        <time>2017-02-10T14:49:56Z</time>
      </trkpt>
      <trkpt lat="43.85009" lon="7.21817">
        <ele>521.83728</ele>
        <time>2017-02-10T14:49:58Z</time>
      </trkpt>
      <trkpt lat="43.85012" lon="7.21818">
        <ele>521.218384</ele>
        <time>2017-02-10T14:50:00Z</time>
      </trkpt>
      <trkpt lat="43.85014" lon="7.21819">
        <ele>520.540466</ele>
        <time>2017-02-10T14:50:02Z</time>
      </trkpt>
      <trkpt lat="43.85015" lon="7.21819">
        <ele>519.910828</ele>
        <time>2017-02-10T14:50:04Z</time>
      </trkpt>
      <trkpt lat="43.85018" lon="7.2182">
        <ele>518.171753</ele>
        <time>2017-02-10T14:50:10Z</time>
      </trkpt>
      <trkpt lat="43.8502" lon="7.2182">
        <ele>517.520264</ele>
        <time>2017-02-10T14:50:12Z</time>
      </trkpt>
      <trkpt lat="43.85022" lon="7.21821">
        <ele>516.938843</ele>
        <time>2017-02-10T14:50:14Z</time>
      </trkpt>
      <trkpt lat="43.85024" lon="7.21822">
        <ele>516.337769</ele>
        <time>2017-02-10T14:50:16Z</time>
      </trkpt>
      <trkpt lat="43.85025" lon="7.21822">
        <ele>516.025208</ele>
        <time>2017-02-10T14:50:18Z</time>
      </trkpt>
      <trkpt lat="43.85028" lon="7.21823">
        <ele>515.533203</ele>
        <time>2017-02-10T14:50:20Z</time>
      </trkpt>
      <trkpt lat="43.85035" lon="7.21827">
        <ele>515.019592</ele>
        <time>2017-02-10T14:50:22Z</time>
      </trkpt>
      <trkpt lat="43.85038" lon="7.21828">
        <ele>514.442749</ele>
        <time>2017-02-10T14:50:24Z</time>
      </trkpt>
      <trkpt lat="43.8504" lon="7.21829">
        <ele>513.898621</ele>
        <time>2017-02-10T14:50:26Z</time>
      </trkpt>
      <trkpt lat="43.85045" lon="7.21833">
        <ele>512.113647</ele>
        <time>2017-02-10T14:50:34Z</time>
      </trkpt>
      <trkpt lat="43.85045" lon="7.21835">
        <ele>511.784088</ele>
        <time>2017-02-10T14:50:36Z</time>
      </trkpt>
      <trkpt lat="43.85046" lon="7.21838">
        <ele>511.275391</ele>
        <time>2017-02-10T14:50:38Z</time>
      </trkpt>
      <trkpt lat="43.85046" lon="7.21841">
        <ele>510.810059</ele>
        <time>2017-02-10T14:50:40Z</time>
      </trkpt>
      <trkpt lat="43.85048" lon="7.21844">
        <ele>510.54361</ele>
        <time>2017-02-10T14:50:42Z</time>
      </trkpt>
      <trkpt lat="43.85051" lon="7.21846">
        <ele>510.12384</ele>
        <time>2017-02-10T14:50:44Z</time>
      </trkpt>
      <trkpt lat="43.85054" lon="7.21848">
        <ele>509.715393</ele>
        <time>2017-02-10T14:50:46Z</time>
      </trkpt>
      <trkpt lat="43.85057" lon="7.21851">
        <ele>509.242371</ele>
        <time>2017-02-10T14:50:48Z</time>
      </trkpt>
      <trkpt lat="43.85061" lon="7.21853">
        <ele>508.657166</ele>
        <time>2017-02-10T14:50:50Z</time>
      </trkpt>
      <trkpt lat="43.85064" lon="7.21854">
        <ele>508.241638</ele>
        <time>2017-02-10T14:50:52Z</time>
      </trkpt>
      <trkpt lat="43.85067" lon="7.21855">
        <ele>507.732849</ele>
        <time>2017-02-10T14:50:54Z</time>
      </trkpt>
      <trkpt lat="43.85069" lon="7.21857">
        <ele>507.280853</ele>
        <time>2017-02-10T14:50:56Z</time>
      </trkpt>
      <trkpt lat="43.85072" lon="7.21858">
        <ele>506.926849</ele>
        <time>2017-02-10T14:50:58Z</time>
      </trkpt>
      <trkpt lat="43.85075" lon="7.21859">
        <ele>506.433594</ele>
        <time>2017-02-10T14:51:00Z</time>
      </trkpt>
      <trkpt lat="43.85077" lon="7.2186">
        <ele>505.889954</ele>
        <time>2017-02-10T14:51:02Z</time>
      </trkpt>
      <trkpt lat="43.8508" lon="7.2186">
        <ele>505.42276</ele>
        <time>2017-02-10T14:51:04Z</time>
      </trkpt>
      <trkpt lat="43.85083" lon="7.21861">
        <ele>504.986145</ele>
        <time>2017-02-10T14:51:06Z</time>
      </trkpt>
      <trkpt lat="43.85086" lon="7.21861">
        <ele>504.553864</ele>
        <time>2017-02-10T14:51:08Z</time>
      </trkpt>
      <trkpt lat="43.85088" lon="7.21861">
        <ele>504.088928</ele>
        <time>2017-02-10T14:51:10Z</time>
      </trkpt>
      <trkpt lat="43.85091" lon="7.21861">
        <ele>503.800781</ele>
        <time>2017-02-10T14:51:12Z</time>
      </trkpt>
      <trkpt lat="43.85093" lon="7.2186">
        <ele>503.284668</ele>
        <time>2017-02-10T14:51:14Z</time>
      </trkpt>
      <trkpt lat="43.85096" lon="7.21861">
        <ele>502.804047</ele>
        <time>2017-02-10T14:51:16Z</time>
      </trkpt>
      <trkpt lat="43.85098" lon="7.2186">
        <ele>502.297943</ele>
        <time>2017-02-10T14:51:18Z</time>
      </trkpt>
      <trkpt lat="43.85102" lon="7.21861">
        <ele>501.823395</ele>
        <time>2017-02-10T14:51:20Z</time>
      </trkpt>
      <trkpt lat="43.85106" lon="7.21861">
        <ele>501.360657</ele>
        <time>2017-02-10T14:51:22Z</time>
      </trkpt>
      <trkpt lat="43.85108" lon="7.21861">
        <ele>500.950684</ele>
        <time>2017-02-10T14:51:24Z</time>
      </trkpt>
      <trkpt lat="43.8511" lon="7.21861">
        <ele>500.525146</ele>
        <time>2017-02-10T14:51:26Z</time>
      </trkpt>
      <trkpt lat="43.85112" lon="7.21859">
        <ele>500.102203</ele>
        <time>2017-02-10T14:51:28Z</time>
      </trkpt>
      <trkpt lat="43.85114" lon="7.21857">
        <ele>499.748474</ele>
        <time>2017-02-10T14:51:30Z</time>
      </trkpt>
      <trkpt lat="43.85118" lon="7.21857">
        <ele>499.290833</ele>
        <time>2017-02-10T14:51:32Z</time>
      </trkpt>
      <trkpt lat="43.85121" lon="7.21857">
        <ele>498.928619</ele>
        <time>2017-02-10T14:51:34Z</time>
      </trkpt>
      <trkpt lat="43.85123" lon="7.21853">
        <ele>498.053711</ele>
        <time>2017-02-10T14:51:38Z</time>
      </trkpt>
      <trkpt lat="43.85124" lon="7.21849">
        <ele>497.63501</ele>
        <time>2017-02-10T14:51:40Z</time>
      </trkpt>
      <trkpt lat="43.85123" lon="7.21845">
        <ele>497.445221</ele>
        <time>2017-02-10T14:51:42Z</time>
      </trkpt>
      <trkpt lat="43.85124" lon="7.21843">
        <ele>497.035095</ele>
        <time>2017-02-10T14:51:44Z</time>
      </trkpt>
      <trkpt lat="43.85126" lon="7.21843">
        <ele>496.736267</ele>
        <time>2017-02-10T14:51:46Z</time>
      </trkpt>
      <trkpt lat="43.85129" lon="7.21843">
        <ele>496.321777</ele>
        <time>2017-02-10T14:51:48Z</time>
      </trkpt>
      <trkpt lat="43.85132" lon="7.21842">
        <ele>495.992828</ele>
        <time>2017-02-10T14:51:50Z</time>
      </trkpt>
      <trkpt lat="43.85135" lon="7.21842">
        <ele>495.615295</ele>
        <time>2017-02-10T14:51:52Z</time>
      </trkpt>
      <trkpt lat="43.85139" lon="7.2184">
        <ele>495.053802</ele>
        <time>2017-02-10T14:51:56Z</time>
      </trkpt>
      <trkpt lat="43.85141" lon="7.2184">
        <ele>494.581543</ele>
        <time>2017-02-10T14:51:58Z</time>
      </trkpt>
      <trkpt lat="43.85143" lon="7.2184">
        <ele>494.247803</ele>
        <time>2017-02-10T14:52:00Z</time>
      </trkpt>
      <trkpt lat="43.85145" lon="7.2184">
        <ele>493.972992</ele>
        <time>2017-02-10T14:52:02Z</time>
      </trkpt>
      <trkpt lat="43.85149" lon="7.2184">
        <ele>493.13559</ele>
        <time>2017-02-10T14:52:06Z</time>
      </trkpt>
      <trkpt lat="43.85152" lon="7.2184">
        <ele>492.97641</ele>
        <time>2017-02-10T14:52:08Z</time>
      </trkpt>
      <trkpt lat="43.85155" lon="7.21839">
        <ele>492.270844</ele>
        <time>2017-02-10T14:52:12Z</time>
      </trkpt>
      <trkpt lat="43.85156" lon="7.21838">
        <ele>491.96347</ele>
        <time>2017-02-10T14:52:14Z</time>
      </trkpt>
      <trkpt lat="43.85161" lon="7.21837">
        <ele>490.947449</ele>
        <time>2017-02-10T14:52:20Z</time>
      </trkpt>
      <trkpt lat="43.85162" lon="7.21837">
        <ele>490.570251</ele>
        <time>2017-02-10T14:52:22Z</time>
      </trkpt>
      <trkpt lat="43.85164" lon="7.21836">
        <ele>490.319519</ele>
        <time>2017-02-10T14:52:24Z</time>
      </trkpt>
      <trkpt lat="43.85166" lon="7.21836">
        <ele>489.94458</ele>
        <time>2017-02-10T14:52:26Z</time>
      </trkpt>
      <trkpt lat="43.85169" lon="7.21836">
        <ele>489.680756</ele>
        <time>2017-02-10T14:52:28Z</time>
      </trkpt>
      <trkpt lat="43.85172" lon="7.21836">
        <ele>489.396912</ele>
        <time>2017-02-10T14:52:30Z</time>
      </trkpt>
      <trkpt lat="43.85174" lon="7.21836">
        <ele>488.99823</ele>
        <time>2017-02-10T14:52:32Z</time>
      </trkpt>
      <trkpt lat="43.85176" lon="7.21835">
        <ele>488.841309</ele>
        <time>2017-02-10T14:52:34Z</time>
      </trkpt>
      <trkpt lat="43.85178" lon="7.21835">
        <ele>488.675629</ele>
        <time>2017-02-10T14:52:36Z</time>
      </trkpt>
      <trkpt lat="43.85185" lon="7.21834">
        <ele>487.771667</ele>
        <time>2017-02-10T14:52:42Z</time>
      </trkpt>
      <trkpt lat="43.85188" lon="7.21833">
        <ele>487.446625</ele>
        <time>2017-02-10T14:52:44Z</time>
      </trkpt>
      <trkpt lat="43.85191" lon="7.21833">
        <ele>487.304016</ele>
        <time>2017-02-10T14:52:46Z</time>
      </trkpt>
      <trkpt lat="43.85193" lon="7.21833">
        <ele>487.058685</ele>
        <time>2017-02-10T14:52:48Z</time>
      </trkpt>
      <trkpt lat="43.85195" lon="7.21832">
        <ele>486.789001</ele>
        <time>2017-02-10T14:52:50Z</time>
      </trkpt>
      <trkpt lat="43.85197" lon="7.21832">
        <ele>486.572601</ele>
        <time>2017-02-10T14:52:52Z</time>
      </trkpt>
      <trkpt lat="43.85202" lon="7.21831">
        <ele>486.132385</ele>
        <time>2017-02-10T14:52:56Z</time>
      </trkpt>
      <trkpt lat="43.85206" lon="7.2183">
        <ele>485.984192</ele>
        <time>2017-02-10T14:52:58Z</time>
      </trkpt>
      <trkpt lat="43.85209" lon="7.21829">
        <ele>485.788025</ele>
        <time>2017-02-10T14:53:00Z</time>
      </trkpt>
      <trkpt lat="43.85211" lon="7.21828">
        <ele>485.72052</ele>
        <time>2017-02-10T14:53:02Z</time>
      </trkpt>
      <trkpt lat="43.85214" lon="7.21826">
        <ele>485.60675</ele>
        <time>2017-02-10T14:53:04Z</time>
      </trkpt>
      <trkpt lat="43.85217" lon="7.21825">
        <ele>485.502136</ele>
        <time>2017-02-10T14:53:06Z</time>
      </trkpt>
      <trkpt lat="43.8522" lon="7.21825">
        <ele>485.421143</ele>
        <time>2017-02-10T14:53:08Z</time>
      </trkpt>
      <trkpt lat="43.85222" lon="7.21824">
        <ele>485.263</ele>
        <time>2017-02-10T14:53:10Z</time>
      </trkpt>
      <trkpt lat="43.85225" lon="7.21823">
        <ele>485.184509</ele>
        <time>2017-02-10T14:53:12Z</time>
      </trkpt>
      <trkpt lat="43.85227" lon="7.21822">
        <ele>485.164886</ele>
        <time>2017-02-10T14:53:14Z</time>
      </trkpt>
      <trkpt lat="43.85228" lon="7.21821">
        <ele>484.988434</ele>
        <time>2017-02-10T14:53:16Z</time>
      </trkpt>
      <trkpt lat="43.8523" lon="7.2182">
        <ele>484.816071</ele>
        <time>2017-02-10T14:53:18Z</time>
      </trkpt>
      <trkpt lat="43.85232" lon="7.21819">
        <ele>484.86615</ele>
        <time>2017-02-10T14:53:20Z</time>
      </trkpt>
      <trkpt lat="43.85234" lon="7.21818">
        <ele>484.809509</ele>
        <time>2017-02-10T14:53:22Z</time>
      </trkpt>
      <trkpt lat="43.85237" lon="7.21816">
        <ele>484.855621</ele>
        <time>2017-02-10T14:53:26Z</time>
      </trkpt>
      <trkpt lat="43.8524" lon="7.21813">
        <ele>485.025574</ele>
        <time>2017-02-10T14:53:30Z</time>
      </trkpt>
      <trkpt lat="43.85242" lon="7.21812">
        <ele>485.33316</ele>
        <time>2017-02-10T14:53:34Z</time>
      </trkpt>
      <trkpt lat="43.85244" lon="7.2181">
        <ele>485.466064</ele>
        <time>2017-02-10T14:53:36Z</time>
      </trkpt>
      <trkpt lat="43.85246" lon="7.21808">
        <ele>485.836578</ele>
        <time>2017-02-10T14:53:40Z</time>
      </trkpt>
      <trkpt lat="43.85249" lon="7.21806">
        <ele>486.023193</ele>
        <time>2017-02-10T14:53:42Z</time>
      </trkpt>
      <trkpt lat="43.8527" lon="7.21791">
        <ele>486.271637</ele>
        <time>2017-02-10T14:53:44Z</time>
      </trkpt>
      <trkpt lat="43.85272" lon="7.21793">
        <ele>486.421814</ele>
        <time>2017-02-10T14:53:46Z</time>
      </trkpt>
      <trkpt lat="43.85274" lon="7.21794">
        <ele>486.504944</ele>
        <time>2017-02-10T14:53:48Z</time>
      </trkpt>
      <trkpt lat="43.85276" lon="7.21795">
        <ele>486.662933</ele>
        <time>2017-02-10T14:53:50Z</time>
      </trkpt>
      <trkpt lat="43.85278" lon="7.21796">
        <ele>486.719574</ele>
        <time>2017-02-10T14:53:52Z</time>
      </trkpt>
      <trkpt lat="43.85281" lon="7.21796">
        <ele>486.678162</ele>
        <time>2017-02-10T14:53:54Z</time>
      </trkpt>
      <trkpt lat="43.85283" lon="7.21797">
        <ele>486.751526</ele>
        <time>2017-02-10T14:53:56Z</time>
      </trkpt>
      <trkpt lat="43.85286" lon="7.21799">
        <ele>486.805908</ele>
        <time>2017-02-10T14:53:58Z</time>
      </trkpt>
      <trkpt lat="43.85289" lon="7.21801">
        <ele>486.886566</ele>
        <time>2017-02-10T14:54:00Z</time>
      </trkpt>
      <trkpt lat="43.85292" lon="7.21803">
        <ele>486.771149</ele>
        <time>2017-02-10T14:54:02Z</time>
      </trkpt>
      <trkpt lat="43.85294" lon="7.21805">
        <ele>486.699951</ele>
        <time>2017-02-10T14:54:04Z</time>
      </trkpt>
      <trkpt lat="43.85296" lon="7.21807">
        <ele>486.534332</ele>
        <time>2017-02-10T14:54:06Z</time>
      </trkpt>
      <trkpt lat="43.85297" lon="7.21809">
        <ele>486.325134</ele>
        <time>2017-02-10T14:54:08Z</time>
      </trkpt>
      <trkpt lat="43.853" lon="7.2181">
        <ele>485.998291</ele>
        <time>2017-02-10T14:54:10Z</time>
      </trkpt>
      <trkpt lat="43.85302" lon="7.21812">
        <ele>485.802979</ele>
        <time>2017-02-10T14:54:12Z</time>
      </trkpt>
      <trkpt lat="43.85304" lon="7.21813">
        <ele>485.463043</ele>
        <time>2017-02-10T14:54:14Z</time>
      </trkpt>
      <trkpt lat="43.85307" lon="7.21816">
        <ele>484.754944</ele>
        <time>2017-02-10T14:54:18Z</time>
      </trkpt>
      <trkpt lat="43.85309" lon="7.21817">
        <ele>484.366638</ele>
        <time>2017-02-10T14:54:20Z</time>
      </trkpt>
      <trkpt lat="43.85312" lon="7.21819">
        <ele>483.983246</ele>
        <time>2017-02-10T14:54:22Z</time>
      </trkpt>
      <trkpt lat="43.85313" lon="7.21821">
        <ele>483.52948</ele>
        <time>2017-02-10T14:54:24Z</time>
      </trkpt>
      <trkpt lat="43.85315" lon="7.21823">
        <ele>483.011139</ele>
        <time>2017-02-10T14:54:26Z</time>
      </trkpt>
      <trkpt lat="43.85317" lon="7.21823">
        <ele>482.445313</ele>
        <time>2017-02-10T14:54:28Z</time>
      </trkpt>
      <trkpt lat="43.85319" lon="7.21825">
        <ele>481.493835</ele>
        <time>2017-02-10T14:54:32Z</time>
      </trkpt>
      <trkpt lat="43.85321" lon="7.21827">
        <ele>481.029236</ele>
        <time>2017-02-10T14:54:34Z</time>
      </trkpt>
      <trkpt lat="43.85323" lon="7.21828">
        <ele>480.557434</ele>
        <time>2017-02-10T14:54:36Z</time>
      </trkpt>
      <trkpt lat="43.85325" lon="7.21831">
        <ele>480.063049</ele>
        <time>2017-02-10T14:54:38Z</time>
      </trkpt>
      <trkpt lat="43.85326" lon="7.21833">
        <ele>479.59259</ele>
        <time>2017-02-10T14:54:40Z</time>
      </trkpt>
      <trkpt lat="43.85328" lon="7.21836">
        <ele>479.350769</ele>
        <time>2017-02-10T14:54:42Z</time>
      </trkpt>
      <trkpt lat="43.85331" lon="7.21839">
        <ele>478.907898</ele>
        <time>2017-02-10T14:54:44Z</time>
      </trkpt>
      <trkpt lat="43.85334" lon="7.21842">
        <ele>478.551758</ele>
        <time>2017-02-10T14:54:46Z</time>
      </trkpt>
      <trkpt lat="43.85337" lon="7.21844">
        <ele>478.238129</ele>
        <time>2017-02-10T14:54:48Z</time>
      </trkpt>
      <trkpt lat="43.85341" lon="7.21846">
        <ele>477.934479</ele>
        <time>2017-02-10T14:54:50Z</time>
      </trkpt>
      <trkpt lat="43.85343" lon="7.21847">
        <ele>477.705811</ele>
        <time>2017-02-10T14:54:52Z</time>
      </trkpt>
      <trkpt lat="43.85346" lon="7.21849">
        <ele>477.379333</ele>
        <time>2017-02-10T14:54:54Z</time>
      </trkpt>
      <trkpt lat="43.85348" lon="7.2185">
        <ele>477.139832</ele>
        <time>2017-02-10T14:54:56Z</time>
      </trkpt>
      <trkpt lat="43.8535" lon="7.21851">
        <ele>477.006195</ele>
        <time>2017-02-10T14:54:58Z</time>
      </trkpt>
      <trkpt lat="43.85353" lon="7.21853">
        <ele>476.629974</ele>
        <time>2017-02-10T14:55:00Z</time>
      </trkpt>
      <trkpt lat="43.85356" lon="7.21855">
        <ele>476.412201</ele>
        <time>2017-02-10T14:55:02Z</time>
      </trkpt>
      <trkpt lat="43.85358" lon="7.21857">
        <ele>476.124023</ele>
        <time>2017-02-10T14:55:04Z</time>
      </trkpt>
      <trkpt lat="43.85361" lon="7.21859">
        <ele>476.006439</ele>
        <time>2017-02-10T14:55:06Z</time>
      </trkpt>
      <trkpt lat="43.85364" lon="7.21862">
        <ele>475.85611</ele>
        <time>2017-02-10T14:55:08Z</time>
      </trkpt>
      <trkpt lat="43.85366" lon="7.21864">
        <ele>475.727631</ele>
        <time>2017-02-10T14:55:10Z</time>
      </trkpt>
      <trkpt lat="43.8537" lon="7.21866">
        <ele>475.501221</ele>
        <time>2017-02-10T14:55:12Z</time>
      </trkpt>
      <trkpt lat="43.85374" lon="7.21869">
        <ele>475.346344</ele>
        <time>2017-02-10T14:55:14Z</time>
      </trkpt>
      <trkpt lat="43.85376" lon="7.21871">
        <ele>475.205963</ele>
        <time>2017-02-10T14:55:16Z</time>
      </trkpt>
      <trkpt lat="43.85379" lon="7.21874">
        <ele>475.051422</ele>
        <time>2017-02-10T14:55:18Z</time>
      </trkpt>
      <trkpt lat="43.85381" lon="7.21877">
        <ele>475.049744</ele>
        <time>2017-02-10T14:55:20Z</time>
      </trkpt>
      <trkpt lat="43.85383" lon="7.2188">
        <ele>474.960541</ele>
        <time>2017-02-10T14:55:22Z</time>
      </trkpt>
      <trkpt lat="43.85386" lon="7.21881">
        <ele>474.917877</ele>
        <time>2017-02-10T14:55:24Z</time>
      </trkpt>
      <trkpt lat="43.85387" lon="7.21883">
        <ele>474.920471</ele>
        <time>2017-02-10T14:55:26Z</time>
      </trkpt>
      <trkpt lat="43.85389" lon="7.21885">
        <ele>474.76593</ele>
        <time>2017-02-10T14:55:28Z</time>
      </trkpt>
      <trkpt lat="43.85391" lon="7.21888">
        <ele>474.692871</ele>
        <time>2017-02-10T14:55:30Z</time>
      </trkpt>
      <trkpt lat="43.85391" lon="7.21892">
        <ele>474.610107</ele>
        <time>2017-02-10T14:55:32Z</time>
      </trkpt>
      <trkpt lat="43.85391" lon="7.21896">
        <ele>474.525208</ele>
        <time>2017-02-10T14:55:34Z</time>
      </trkpt>
      <trkpt lat="43.85392" lon="7.21899">
        <ele>474.490143</ele>
        <time>2017-02-10T14:55:36Z</time>
      </trkpt>
      <trkpt lat="43.85394" lon="7.21901">
        <ele>474.483734</ele>
        <time>2017-02-10T14:55:38Z</time>
      </trkpt>
      <trkpt lat="43.85396" lon="7.21904">
        <ele>474.464935</ele>
        <time>2017-02-10T14:55:40Z</time>
      </trkpt>
      <trkpt lat="43.85399" lon="7.21906">
        <ele>474.584656</ele>
        <time>2017-02-10T14:55:42Z</time>
      </trkpt>
      <trkpt lat="43.85401" lon="7.21908">
        <ele>474.515045</ele>
        <time>2017-02-10T14:55:44Z</time>
      </trkpt>
      <trkpt lat="43.85404" lon="7.21911">
        <ele>474.530273</ele>
        <time>2017-02-10T14:55:46Z</time>
      </trkpt>
      <trkpt lat="43.85407" lon="7.21914">
        <ele>474.571594</ele>
        <time>2017-02-10T14:55:48Z</time>
      </trkpt>
      <trkpt lat="43.85409" lon="7.21916">
        <ele>474.727539</ele>
        <time>2017-02-10T14:55:50Z</time>
      </trkpt>
      <trkpt lat="43.85413" lon="7.21919">
        <ele>474.832031</ele>
        <time>2017-02-10T14:55:52Z</time>
      </trkpt>
      <trkpt lat="43.85416" lon="7.21921">
        <ele>474.993164</ele>
        <time>2017-02-10T14:55:54Z</time>
      </trkpt>
      <trkpt lat="43.85418" lon="7.21924">
        <ele>475.160339</ele>
        <time>2017-02-10T14:55:56Z</time>
      </trkpt>
      <trkpt lat="43.85421" lon="7.21925">
        <ele>475.342773</ele>
        <time>2017-02-10T14:55:58Z</time>
      </trkpt>
      <trkpt lat="43.85424" lon="7.21927">
        <ele>475.429291</ele>
        <time>2017-02-10T14:56:00Z</time>
      </trkpt>
      <trkpt lat="43.85426" lon="7.2193">
        <ele>475.553406</ele>
        <time>2017-02-10T14:56:02Z</time>
      </trkpt>
      <trkpt lat="43.85429" lon="7.21933">
        <ele>475.616516</ele>
        <time>2017-02-10T14:56:04Z</time>
      </trkpt>
      <trkpt lat="43.85432" lon="7.21934">
        <ele>475.697083</ele>
        <time>2017-02-10T14:56:06Z</time>
      </trkpt>
      <trkpt lat="43.85434" lon="7.21933">
        <ele>475.854187</ele>
        <time>2017-02-10T14:56:08Z</time>
      </trkpt>
      <trkpt lat="43.85437" lon="7.21933">
        <ele>476.039246</ele>
        <time>2017-02-10T14:56:10Z</time>
      </trkpt>
      <trkpt lat="43.85439" lon="7.21933">
        <ele>476.111816</ele>
        <time>2017-02-10T14:56:12Z</time>
      </trkpt>
      <trkpt lat="43.8544" lon="7.21932">
        <ele>476.190247</ele>
        <time>2017-02-10T14:56:14Z</time>
      </trkpt>
      <trkpt lat="43.85443" lon="7.21932">
        <ele>476.207703</ele>
        <time>2017-02-10T14:56:16Z</time>
      </trkpt>
      <trkpt lat="43.85445" lon="7.21931">
        <ele>476.227142</ele>
        <time>2017-02-10T14:56:18Z</time>
      </trkpt>
      <trkpt lat="43.85446" lon="7.2193">
        <ele>476.171326</ele>
        <time>2017-02-10T14:56:20Z</time>
      </trkpt>
      <trkpt lat="43.85449" lon="7.2193">
        <ele>476.109924</ele>
        <time>2017-02-10T14:56:22Z</time>
      </trkpt>
      <trkpt lat="43.8545" lon="7.2193">
        <ele>476.022858</ele>
        <time>2017-02-10T14:56:24Z</time>
      </trkpt>
      <trkpt lat="43.85453" lon="7.21929">
        <ele>475.864014</ele>
        <time>2017-02-10T14:56:26Z</time>
      </trkpt>
      <trkpt lat="43.85456" lon="7.21929">
        <ele>475.694244</ele>
        <time>2017-02-10T14:56:28Z</time>
      </trkpt>
      <trkpt lat="43.85458" lon="7.21928">
        <ele>475.415619</ele>
        <time>2017-02-10T14:56:30Z</time>
      </trkpt>
      <trkpt lat="43.85461" lon="7.21927">
        <ele>475.257477</ele>
        <time>2017-02-10T14:56:32Z</time>
      </trkpt>
      <trkpt lat="43.85465" lon="7.21925">
        <ele>474.972351</ele>
        <time>2017-02-10T14:56:34Z</time>
      </trkpt>
      <trkpt lat="43.85468" lon="7.21923">
        <ele>474.626282</ele>
        <time>2017-02-10T14:56:36Z</time>
      </trkpt>
      <trkpt lat="43.8547" lon="7.21922">
        <ele>474.288147</ele>
        <time>2017-02-10T14:56:38Z</time>
      </trkpt>
      <trkpt lat="43.85474" lon="7.21922">
        <ele>473.885986</ele>
        <time>2017-02-10T14:56:40Z</time>
      </trkpt>
      <trkpt lat="43.85477" lon="7.2192">
        <ele>473.542084</ele>
        <time>2017-02-10T14:56:42Z</time>
      </trkpt>
      <trkpt lat="43.8548" lon="7.21919">
        <ele>473.198822</ele>
        <time>2017-02-10T14:56:44Z</time>
      </trkpt>
      <trkpt lat="43.85483" lon="7.21918">
        <ele>472.887054</ele>
        <time>2017-02-10T14:56:46Z</time>
      </trkpt>
      <trkpt lat="43.85486" lon="7.21917">
        <ele>472.46875</ele>
        <time>2017-02-10T14:56:48Z</time>
      </trkpt>
      <trkpt lat="43.85489" lon="7.21915">
        <ele>472.089661</ele>
        <time>2017-02-10T14:56:50Z</time>
      </trkpt>
      <trkpt lat="43.85492" lon="7.21914">
        <ele>471.686218</ele>
        <time>2017-02-10T14:56:52Z</time>
      </trkpt>
      <trkpt lat="43.85495" lon="7.21913">
        <ele>471.2836</ele>
        <time>2017-02-10T14:56:54Z</time>
      </trkpt>
      <trkpt lat="43.85498" lon="7.21912">
        <ele>470.907135</ele>
        <time>2017-02-10T14:56:56Z</time>
      </trkpt>
      <trkpt lat="43.85501" lon="7.21913">
        <ele>470.567627</ele>
        <time>2017-02-10T14:56:58Z</time>
      </trkpt>
      <trkpt lat="43.85504" lon="7.21913">
        <ele>470.38266</ele>
        <time>2017-02-10T14:57:00Z</time>
      </trkpt>
      <trkpt lat="43.85507" lon="7.21913">
        <ele>470.032471</ele>
        <time>2017-02-10T14:57:02Z</time>
      </trkpt>
      <trkpt lat="43.8551" lon="7.21915">
        <ele>469.558594</ele>
        <time>2017-02-10T14:57:04Z</time>
      </trkpt>
      <trkpt lat="43.85513" lon="7.21916">
        <ele>469.321625</ele>
        <time>2017-02-10T14:57:06Z</time>
      </trkpt>
      <trkpt lat="43.85515" lon="7.21917">
        <ele>469.134521</ele>
        <time>2017-02-10T14:57:08Z</time>
      </trkpt>
      <trkpt lat="43.85518" lon="7.21917">
        <ele>468.971344</ele>
        <time>2017-02-10T14:57:10Z</time>
      </trkpt>
      <trkpt lat="43.85521" lon="7.21917">
        <ele>468.856018</ele>
        <time>2017-02-10T14:57:12Z</time>
      </trkpt>
      <trkpt lat="43.85524" lon="7.21918">
        <ele>468.773346</ele>
        <time>2017-02-10T14:57:14Z</time>
      </trkpt>
      <trkpt lat="43.85526" lon="7.21918">
        <ele>468.759033</ele>
        <time>2017-02-10T14:57:16Z</time>
      </trkpt>
      <trkpt lat="43.85527" lon="7.21918">
        <ele>468.60968</ele>
        <time>2017-02-10T14:57:18Z</time>
      </trkpt>
      <trkpt lat="43.85529" lon="7.21918">
        <ele>468.666199</ele>
        <time>2017-02-10T14:57:20Z</time>
      </trkpt>
      <trkpt lat="43.85531" lon="7.21918">
        <ele>468.665344</ele>
        <time>2017-02-10T14:57:22Z</time>
      </trkpt>
      <trkpt lat="43.85532" lon="7.21917">
        <ele>468.667542</ele>
        <time>2017-02-10T14:57:24Z</time>
      </trkpt>
      <trkpt lat="43.85537" lon="7.21918">
        <ele>468.784973</ele>
        <time>2017-02-10T14:57:28Z</time>
      </trkpt>
      <trkpt lat="43.85539" lon="7.21917">
        <ele>468.894287</ele>
        <time>2017-02-10T14:57:30Z</time>
      </trkpt>
      <trkpt lat="43.85541" lon="7.21916">
        <ele>469.027008</ele>
        <time>2017-02-10T14:57:32Z</time>
      </trkpt>
      <trkpt lat="43.85543" lon="7.21915">
        <ele>469.235901</ele>
        <time>2017-02-10T14:57:34Z</time>
      </trkpt>
      <trkpt lat="43.85545" lon="7.21915">
        <ele>469.494812</ele>
        <time>2017-02-10T14:57:36Z</time>
      </trkpt>
      <trkpt lat="43.85548" lon="7.21917">
        <ele>470.391693</ele>
        <time>2017-02-10T14:57:42Z</time>
      </trkpt>
      <trkpt lat="43.85548" lon="7.21919">
        <ele>470.732361</ele>
        <time>2017-02-10T14:57:44Z</time>
      </trkpt>
      <trkpt lat="43.85548" lon="7.21921">
        <ele>471.086182</ele>
        <time>2017-02-10T14:57:46Z</time>
      </trkpt>
      <trkpt lat="43.85548" lon="7.21923">
        <ele>471.415924</ele>
        <time>2017-02-10T14:57:48Z</time>
      </trkpt>
      <trkpt lat="43.85547" lon="7.21925">
        <ele>471.771179</ele>
        <time>2017-02-10T14:57:50Z</time>
      </trkpt>
      <trkpt lat="43.85547" lon="7.21926">
        <ele>472.162933</ele>
        <time>2017-02-10T14:57:52Z</time>
      </trkpt>
      <trkpt lat="43.85545" lon="7.21926">
        <ele>472.469421</ele>
        <time>2017-02-10T14:57:54Z</time>
      </trkpt>
      <trkpt lat="43.85543" lon="7.21928">
        <ele>472.665283</ele>
        <time>2017-02-10T14:57:56Z</time>
      </trkpt>
      <trkpt lat="43.85542" lon="7.21929">
        <ele>472.976807</ele>
        <time>2017-02-10T14:57:58Z</time>
      </trkpt>
      <trkpt lat="43.8554" lon="7.2193">
        <ele>473.375092</ele>
        <time>2017-02-10T14:58:00Z</time>
      </trkpt>
      <trkpt lat="43.85539" lon="7.21932">
        <ele>473.745117</ele>
        <time>2017-02-10T14:58:02Z</time>
      </trkpt>
      <trkpt lat="43.85538" lon="7.21934">
        <ele>474.15332</ele>
        <time>2017-02-10T14:58:04Z</time>
      </trkpt>
      <trkpt lat="43.85537" lon="7.21936">
        <ele>474.538483</ele>
        <time>2017-02-10T14:58:06Z</time>
      </trkpt>
      <trkpt lat="43.85536" lon="7.21938">
        <ele>474.862854</ele>
        <time>2017-02-10T14:58:08Z</time>
      </trkpt>
      <trkpt lat="43.85537" lon="7.2194">
        <ele>475.223053</ele>
        <time>2017-02-10T14:58:10Z</time>
      </trkpt>
      <trkpt lat="43.85538" lon="7.21942">
        <ele>475.50824</ele>
        <time>2017-02-10T14:58:12Z</time>
      </trkpt>
      <trkpt lat="43.85539" lon="7.21944">
        <ele>475.893616</ele>
        <time>2017-02-10T14:58:14Z</time>
      </trkpt>
      <trkpt lat="43.85541" lon="7.21946">
        <ele>476.202789</ele>
        <time>2017-02-10T14:58:16Z</time>
      </trkpt>
      <trkpt lat="43.85543" lon="7.21947">
        <ele>476.529358</ele>
        <time>2017-02-10T14:58:18Z</time>
      </trkpt>
      <trkpt lat="43.85545" lon="7.21948">
        <ele>476.885193</ele>
        <time>2017-02-10T14:58:20Z</time>
      </trkpt>
      <trkpt lat="43.85547" lon="7.21949">
        <ele>477.111633</ele>
        <time>2017-02-10T14:58:22Z</time>
      </trkpt>
      <trkpt lat="43.85548" lon="7.21949">
        <ele>477.490479</ele>
        <time>2017-02-10T14:58:24Z</time>
      </trkpt>
      <trkpt lat="43.85549" lon="7.21949">
        <ele>477.909241</ele>
        <time>2017-02-10T14:58:26Z</time>
      </trkpt>
      <trkpt lat="43.85551" lon="7.21948">
        <ele>478.12265</ele>
        <time>2017-02-10T14:58:28Z</time>
      </trkpt>
      <trkpt lat="43.85552" lon="7.21947">
        <ele>478.485107</ele>
        <time>2017-02-10T14:58:30Z</time>
      </trkpt>
      <trkpt lat="43.85553" lon="7.21946">
        <ele>478.913513</ele>
        <time>2017-02-10T14:58:32Z</time>
      </trkpt>
      <trkpt lat="43.85555" lon="7.21944">
        <ele>479.296387</ele>
        <time>2017-02-10T14:58:34Z</time>
      </trkpt>
      <trkpt lat="43.85556" lon="7.21943">
        <ele>479.693115</ele>
        <time>2017-02-10T14:58:36Z</time>
      </trkpt>
      <trkpt lat="43.85558" lon="7.21941">
        <ele>480.138367</ele>
        <time>2017-02-10T14:58:38Z</time>
      </trkpt>
      <trkpt lat="43.85559" lon="7.2194">
        <ele>480.543701</ele>
        <time>2017-02-10T14:58:40Z</time>
      </trkpt>
      <trkpt lat="43.8556" lon="7.21939">
        <ele>480.926208</ele>
        <time>2017-02-10T14:58:42Z</time>
      </trkpt>
      <trkpt lat="43.85562" lon="7.2194">
        <ele>481.274414</ele>
        <time>2017-02-10T14:58:44Z</time>
      </trkpt>
      <trkpt lat="43.85563" lon="7.21941">
        <ele>481.575012</ele>
        <time>2017-02-10T14:58:46Z</time>
      </trkpt>
      <trkpt lat="43.85564" lon="7.21942">
        <ele>481.993347</ele>
        <time>2017-02-10T14:58:48Z</time>
      </trkpt>
      <trkpt lat="43.85565" lon="7.21944">
        <ele>482.425629</ele>
        <time>2017-02-10T14:58:50Z</time>
      </trkpt>
      <trkpt lat="43.85566" lon="7.21945">
        <ele>482.807709</ele>
        <time>2017-02-10T14:58:52Z</time>
      </trkpt>
      <trkpt lat="43.85568" lon="7.21944">
        <ele>483.60791</ele>
        <time>2017-02-10T14:58:56Z</time>
      </trkpt>
      <trkpt lat="43.8557" lon="7.21944">
        <ele>483.788727</ele>
        <time>2017-02-10T14:58:58Z</time>
      </trkpt>
      <trkpt lat="43.85572" lon="7.21944">
        <ele>484.126404</ele>
        <time>2017-02-10T14:59:00Z</time>
      </trkpt>
      <trkpt lat="43.85574" lon="7.21942">
        <ele>484.502045</ele>
        <time>2017-02-10T14:59:02Z</time>
      </trkpt>
      <trkpt lat="43.85576" lon="7.2194">
        <ele>484.913818</ele>
        <time>2017-02-10T14:59:04Z</time>
      </trkpt>
      <trkpt lat="43.85577" lon="7.21939">
        <ele>485.297302</ele>
        <time>2017-02-10T14:59:06Z</time>
      </trkpt>
      <trkpt lat="43.85578" lon="7.21937">
        <ele>485.649261</ele>
        <time>2017-02-10T14:59:08Z</time>
      </trkpt>
      <trkpt lat="43.85579" lon="7.21935">
        <ele>485.987</ele>
        <time>2017-02-10T14:59:10Z</time>
      </trkpt>
      <trkpt lat="43.8558" lon="7.21933">
        <ele>486.440338</ele>
        <time>2017-02-10T14:59:12Z</time>
      </trkpt>
      <trkpt lat="43.85582" lon="7.21932">
        <ele>486.774231</ele>
        <time>2017-02-10T14:59:14Z</time>
      </trkpt>
      <trkpt lat="43.85584" lon="7.2193">
        <ele>487.094574</ele>
        <time>2017-02-10T14:59:16Z</time>
      </trkpt>
      <trkpt lat="43.85585" lon="7.21929">
        <ele>487.484711</ele>
        <time>2017-02-10T14:59:18Z</time>
      </trkpt>
      <trkpt lat="43.85587" lon="7.21928">
        <ele>487.798584</ele>
        <time>2017-02-10T14:59:20Z</time>
      </trkpt>
      <trkpt lat="43.85589" lon="7.21929">
        <ele>488.236481</ele>
        <time>2017-02-10T14:59:22Z</time>
      </trkpt>
      <trkpt lat="43.8559" lon="7.2193">
        <ele>488.636139</ele>
        <time>2017-02-10T14:59:24Z</time>
      </trkpt>
      <trkpt lat="43.8559" lon="7.21933">
        <ele>489.080811</ele>
        <time>2017-02-10T14:59:26Z</time>
      </trkpt>
      <trkpt lat="43.8559" lon="7.21935">
        <ele>489.264801</ele>
        <time>2017-02-10T14:59:28Z</time>
      </trkpt>
      <trkpt lat="43.85591" lon="7.21937">
        <ele>489.637299</ele>
        <time>2017-02-10T14:59:30Z</time>
      </trkpt>
      <trkpt lat="43.85593" lon="7.21938">
        <ele>489.983887</ele>
        <time>2017-02-10T14:59:32Z</time>
      </trkpt>
      <trkpt lat="43.85594" lon="7.21939">
        <ele>490.327454</ele>
        <time>2017-02-10T14:59:34Z</time>
      </trkpt>
      <trkpt lat="43.85597" lon="7.21939">
        <ele>490.688629</ele>
        <time>2017-02-10T14:59:36Z</time>
      </trkpt>
      <trkpt lat="43.85598" lon="7.2194">
        <ele>490.934998</ele>
        <time>2017-02-10T14:59:38Z</time>
      </trkpt>
      <trkpt lat="43.856" lon="7.2194">
        <ele>491.28302</ele>
        <time>2017-02-10T14:59:40Z</time>
      </trkpt>
      <trkpt lat="43.85602" lon="7.2194">
        <ele>491.723785</ele>
        <time>2017-02-10T14:59:42Z</time>
      </trkpt>
      <trkpt lat="43.85603" lon="7.21939">
        <ele>492.029694</ele>
        <time>2017-02-10T14:59:44Z</time>
      </trkpt>
      <trkpt lat="43.85605" lon="7.21938">
        <ele>492.385101</ele>
        <time>2017-02-10T14:59:46Z</time>
      </trkpt>
      <trkpt lat="43.85608" lon="7.21936">
        <ele>492.627106</ele>
        <time>2017-02-10T14:59:48Z</time>
      </trkpt>
      <trkpt lat="43.85611" lon="7.21935">
        <ele>492.915955</ele>
        <time>2017-02-10T14:59:50Z</time>
      </trkpt>
      <trkpt lat="43.85614" lon="7.21934">
        <ele>493.151459</ele>
        <time>2017-02-10T14:59:52Z</time>
      </trkpt>
      <trkpt lat="43.85617" lon="7.21933">
        <ele>493.417542</ele>
        <time>2017-02-10T14:59:54Z</time>
      </trkpt>
      <trkpt lat="43.8562" lon="7.21934">
        <ele>493.635101</ele>
        <time>2017-02-10T14:59:56Z</time>
      </trkpt>
      <trkpt lat="43.85622" lon="7.21936">
        <ele>493.765961</ele>
        <time>2017-02-10T14:59:58Z</time>
      </trkpt>
      <trkpt lat="43.85626" lon="7.21938">
        <ele>493.829193</ele>
        <time>2017-02-10T15:00:00Z</time>
      </trkpt>
      <trkpt lat="43.85629" lon="7.2194">
        <ele>494.025452</ele>
        <time>2017-02-10T15:00:02Z</time>
      </trkpt>
      <trkpt lat="43.85632" lon="7.21942">
        <ele>494.166992</ele>
        <time>2017-02-10T15:00:04Z</time>
      </trkpt>
      <trkpt lat="43.85635" lon="7.21943">
        <ele>494.3349</ele>
        <time>2017-02-10T15:00:06Z</time>
      </trkpt>
      <trkpt lat="43.85638" lon="7.21945">
        <ele>494.491943</ele>
        <time>2017-02-10T15:00:08Z</time>
      </trkpt>
      <trkpt lat="43.85642" lon="7.21946">
        <ele>494.667725</ele>
        <time>2017-02-10T15:00:10Z</time>
      </trkpt>
      <trkpt lat="43.85646" lon="7.21947">
        <ele>494.781403</ele>
        <time>2017-02-10T15:00:12Z</time>
      </trkpt>
      <trkpt lat="43.8565" lon="7.21948">
        <ele>494.969055</ele>
        <time>2017-02-10T15:00:14Z</time>
      </trkpt>
      <trkpt lat="43.85653" lon="7.2195">
        <ele>495.02774</ele>
        <time>2017-02-10T15:00:16Z</time>
      </trkpt>
      <trkpt lat="43.85657" lon="7.21951">
        <ele>495.010315</ele>
        <time>2017-02-10T15:00:18Z</time>
      </trkpt>
      <trkpt lat="43.8566" lon="7.21952">
        <ele>495.102722</ele>
        <time>2017-02-10T15:00:20Z</time>
      </trkpt>
      <trkpt lat="43.85663" lon="7.21954">
        <ele>495.061279</ele>
        <time>2017-02-10T15:00:22Z</time>
      </trkpt>
      <trkpt lat="43.85667" lon="7.21956">
        <ele>495.089294</ele>
        <time>2017-02-10T15:00:24Z</time>
      </trkpt>
      <trkpt lat="43.85671" lon="7.21957">
        <ele>495.045349</ele>
        <time>2017-02-10T15:00:26Z</time>
      </trkpt>
      <trkpt lat="43.85674" lon="7.21959">
        <ele>495.001801</ele>
        <time>2017-02-10T15:00:28Z</time>
      </trkpt>
      <trkpt lat="43.85677" lon="7.21961">
        <ele>495.073792</ele>
        <time>2017-02-10T15:00:30Z</time>
      </trkpt>
      <trkpt lat="43.8568" lon="7.21962">
        <ele>495.06723</ele>
        <time>2017-02-10T15:00:32Z</time>
      </trkpt>
      <trkpt lat="43.85683" lon="7.21964">
        <ele>495.080322</ele>
        <time>2017-02-10T15:00:34Z</time>
      </trkpt>
      <trkpt lat="43.85687" lon="7.21965">
        <ele>494.997467</ele>
        <time>2017-02-10T15:00:36Z</time>
      </trkpt>
      <trkpt lat="43.8569" lon="7.21967">
        <ele>494.967377</ele>
        <time>2017-02-10T15:00:38Z</time>
      </trkpt>
      <trkpt lat="43.85693" lon="7.21971">
        <ele>494.954285</ele>
        <time>2017-02-10T15:00:40Z</time>
      </trkpt>
      <trkpt lat="43.85695" lon="7.21974">
        <ele>494.899811</ele>
        <time>2017-02-10T15:00:42Z</time>
      </trkpt>
      <trkpt lat="43.85697" lon="7.21978">
        <ele>494.893463</ele>
        <time>2017-02-10T15:00:44Z</time>
      </trkpt>
      <trkpt lat="43.85698" lon="7.21981">
        <ele>494.899323</ele>
        <time>2017-02-10T15:00:46Z</time>
      </trkpt>
      <trkpt lat="43.85698" lon="7.21984">
        <ele>494.86441</ele>
        <time>2017-02-10T15:00:48Z</time>
      </trkpt>
      <trkpt lat="43.85698" lon="7.21988">
        <ele>494.833832</ele>
        <time>2017-02-10T15:00:50Z</time>
      </trkpt>
      <trkpt lat="43.85699" lon="7.21992">
        <ele>494.856262</ele>
        <time>2017-02-10T15:00:52Z</time>
      </trkpt>
      <trkpt lat="43.857" lon="7.21996">
        <ele>494.808258</ele>
        <time>2017-02-10T15:00:54Z</time>
      </trkpt>
      <trkpt lat="43.857" lon="7.22">
        <ele>494.906586</ele>
        <time>2017-02-10T15:00:56Z</time>
      </trkpt>
      <trkpt lat="43.85701" lon="7.22004">
        <ele>495.041809</ele>
        <time>2017-02-10T15:00:58Z</time>
      </trkpt>
      <trkpt lat="43.85703" lon="7.22007">
        <ele>495.144348</ele>
        <time>2017-02-10T15:01:00Z</time>
      </trkpt>
      <trkpt lat="43.85704" lon="7.22011">
        <ele>495.177063</ele>
        <time>2017-02-10T15:01:02Z</time>
      </trkpt>
      <trkpt lat="43.85707" lon="7.22015">
        <ele>495.328613</ele>
        <time>2017-02-10T15:01:04Z</time>
      </trkpt>
      <trkpt lat="43.8571" lon="7.22017">
        <ele>495.398376</ele>
        <time>2017-02-10T15:01:06Z</time>
      </trkpt>
      <trkpt lat="43.85714" lon="7.22019">
        <ele>495.498352</ele>
        <time>2017-02-10T15:01:08Z</time>
      </trkpt>
      <trkpt lat="43.85717" lon="7.22021">
        <ele>495.568115</ele>
        <time>2017-02-10T15:01:10Z</time>
      </trkpt>
      <trkpt lat="43.85721" lon="7.22023">
        <ele>495.727356</ele>
        <time>2017-02-10T15:01:12Z</time>
      </trkpt>
      <trkpt lat="43.85725" lon="7.22024">
        <ele>495.90625</ele>
        <time>2017-02-10T15:01:14Z</time>
      </trkpt>
      <trkpt lat="43.85729" lon="7.22027">
        <ele>496.002258</ele>
        <time>2017-02-10T15:01:16Z</time>
      </trkpt>
      <trkpt lat="43.85732" lon="7.22028">
        <ele>496.154358</ele>
        <time>2017-02-10T15:01:18Z</time>
      </trkpt>
      <trkpt lat="43.85736" lon="7.2203">
        <ele>496.293884</ele>
        <time>2017-02-10T15:01:20Z</time>
      </trkpt>
      <trkpt lat="43.8574" lon="7.22033">
        <ele>496.498932</ele>
        <time>2017-02-10T15:01:22Z</time>
      </trkpt>
      <trkpt lat="43.85743" lon="7.22036">
        <ele>496.53598</ele>
        <time>2017-02-10T15:01:24Z</time>
      </trkpt>
      <trkpt lat="43.85746" lon="7.22039">
        <ele>496.599274</ele>
        <time>2017-02-10T15:01:26Z</time>
      </trkpt>
      <trkpt lat="43.85749" lon="7.22042">
        <ele>496.765778</ele>
        <time>2017-02-10T15:01:28Z</time>
      </trkpt>
      <trkpt lat="43.85752" lon="7.22044">
        <ele>496.93692</ele>
        <time>2017-02-10T15:01:30Z</time>
      </trkpt>
      <trkpt lat="43.85755" lon="7.22046">
        <ele>497.039459</ele>
        <time>2017-02-10T15:01:32Z</time>
      </trkpt>
      <trkpt lat="43.85758" lon="7.22048">
        <ele>497.147949</ele>
        <time>2017-02-10T15:01:34Z</time>
      </trkpt>
      <trkpt lat="43.85762" lon="7.22049">
        <ele>497.19809</ele>
        <time>2017-02-10T15:01:36Z</time>
      </trkpt>
      <trkpt lat="43.85765" lon="7.22051">
        <ele>497.158844</ele>
        <time>2017-02-10T15:01:38Z</time>
      </trkpt>
      <trkpt lat="43.85768" lon="7.22051">
        <ele>497.14151</ele>
        <time>2017-02-10T15:01:40Z</time>
      </trkpt>
      <trkpt lat="43.85772" lon="7.22052">
        <ele>497.296387</ele>
        <time>2017-02-10T15:01:42Z</time>
      </trkpt>
      <trkpt lat="43.85775" lon="7.22053">
        <ele>497.310608</ele>
        <time>2017-02-10T15:01:44Z</time>
      </trkpt>
      <trkpt lat="43.85779" lon="7.22053">
        <ele>497.330383</ele>
        <time>2017-02-10T15:01:46Z</time>
      </trkpt>
      <trkpt lat="43.85783" lon="7.22054">
        <ele>497.343506</ele>
        <time>2017-02-10T15:01:48Z</time>
      </trkpt>
      <trkpt lat="43.85786" lon="7.22055">
        <ele>497.476563</ele>
        <time>2017-02-10T15:01:50Z</time>
      </trkpt>
      <trkpt lat="43.8579" lon="7.22055">
        <ele>497.5224</ele>
        <time>2017-02-10T15:01:52Z</time>
      </trkpt>
      <trkpt lat="43.85793" lon="7.22056">
        <ele>497.561676</ele>
        <time>2017-02-10T15:01:54Z</time>
      </trkpt>
      <trkpt lat="43.85796" lon="7.22057">
        <ele>497.496246</ele>
        <time>2017-02-10T15:01:56Z</time>
      </trkpt>
      <trkpt lat="43.85799" lon="7.22058">
        <ele>497.430756</ele>
        <time>2017-02-10T15:01:58Z</time>
      </trkpt>
      <trkpt lat="43.85803" lon="7.2206">
        <ele>497.405182</ele>
        <time>2017-02-10T15:02:00Z</time>
      </trkpt>
      <trkpt lat="43.85806" lon="7.22062">
        <ele>497.418518</ele>
        <time>2017-02-10T15:02:02Z</time>
      </trkpt>
      <trkpt lat="43.8581" lon="7.22063">
        <ele>497.348724</ele>
        <time>2017-02-10T15:02:04Z</time>
      </trkpt>
      <trkpt lat="43.85812" lon="7.22064">
        <ele>497.399811</ele>
        <time>2017-02-10T15:02:06Z</time>
      </trkpt>
      <trkpt lat="43.85815" lon="7.22065">
        <ele>497.24054</ele>
        <time>2017-02-10T15:02:08Z</time>
      </trkpt>
      <trkpt lat="43.85817" lon="7.22065">
        <ele>497.08902</ele>
        <time>2017-02-10T15:02:10Z</time>
      </trkpt>
      <trkpt lat="43.8582" lon="7.22064">
        <ele>496.842529</ele>
        <time>2017-02-10T15:02:12Z</time>
      </trkpt>
      <trkpt lat="43.85823" lon="7.22065">
        <ele>496.700745</ele>
        <time>2017-02-10T15:02:14Z</time>
      </trkpt>
      <trkpt lat="43.85827" lon="7.22068">
        <ele>496.436829</ele>
        <time>2017-02-10T15:02:16Z</time>
      </trkpt>
      <trkpt lat="43.8583" lon="7.2207">
        <ele>496.397308</ele>
        <time>2017-02-10T15:02:18Z</time>
      </trkpt>
      <trkpt lat="43.85833" lon="7.22071">
        <ele>496.312256</ele>
        <time>2017-02-10T15:02:20Z</time>
      </trkpt>
      <trkpt lat="43.85835" lon="7.22073">
        <ele>496.048584</ele>
        <time>2017-02-10T15:02:22Z</time>
      </trkpt>
      <trkpt lat="43.85839" lon="7.22074">
        <ele>495.806458</ele>
        <time>2017-02-10T15:02:24Z</time>
      </trkpt>
      <trkpt lat="43.85842" lon="7.22075">
        <ele>495.494568</ele>
        <time>2017-02-10T15:02:26Z</time>
      </trkpt>
      <trkpt lat="43.85844" lon="7.22078">
        <ele>495.128082</ele>
        <time>2017-02-10T15:02:28Z</time>
      </trkpt>
      <trkpt lat="43.85844" lon="7.22082">
        <ele>494.794373</ele>
        <time>2017-02-10T15:02:30Z</time>
      </trkpt>
      <trkpt lat="43.85845" lon="7.22086">
        <ele>494.395325</ele>
        <time>2017-02-10T15:02:32Z</time>
      </trkpt>
      <trkpt lat="43.85846" lon="7.22089">
        <ele>493.893707</ele>
        <time>2017-02-10T15:02:34Z</time>
      </trkpt>
      <trkpt lat="43.85846" lon="7.22093">
        <ele>493.476959</ele>
        <time>2017-02-10T15:02:36Z</time>
      </trkpt>
      <trkpt lat="43.85846" lon="7.22096">
        <ele>493.116791</ele>
        <time>2017-02-10T15:02:38Z</time>
      </trkpt>
      <trkpt lat="43.85847" lon="7.221">
        <ele>492.700287</ele>
        <time>2017-02-10T15:02:40Z</time>
      </trkpt>
      <trkpt lat="43.85848" lon="7.22103">
        <ele>492.490967</ele>
        <time>2017-02-10T15:02:42Z</time>
      </trkpt>
      <trkpt lat="43.85848" lon="7.22107">
        <ele>492.058258</ele>
        <time>2017-02-10T15:02:44Z</time>
      </trkpt>
      <trkpt lat="43.85849" lon="7.2211">
        <ele>491.606995</ele>
        <time>2017-02-10T15:02:46Z</time>
      </trkpt>
      <trkpt lat="43.85849" lon="7.22113">
        <ele>491.074066</ele>
        <time>2017-02-10T15:02:48Z</time>
      </trkpt>
      <trkpt lat="43.8585" lon="7.22117">
        <ele>490.561768</ele>
        <time>2017-02-10T15:02:50Z</time>
      </trkpt>
      <trkpt lat="43.8585" lon="7.2212">
        <ele>490.116455</ele>
        <time>2017-02-10T15:02:52Z</time>
      </trkpt>
      <trkpt lat="43.8585" lon="7.22123">
        <ele>489.667419</ele>
        <time>2017-02-10T15:02:54Z</time>
      </trkpt>
      <trkpt lat="43.85851" lon="7.22127">
        <ele>489.087585</ele>
        <time>2017-02-10T15:02:56Z</time>
      </trkpt>
      <trkpt lat="43.85851" lon="7.2213">
        <ele>488.551361</ele>
        <time>2017-02-10T15:02:58Z</time>
      </trkpt>
      <trkpt lat="43.85852" lon="7.22134">
        <ele>487.952148</ele>
        <time>2017-02-10T15:03:00Z</time>
      </trkpt>
      <trkpt lat="43.85852" lon="7.22139">
        <ele>487.395996</ele>
        <time>2017-02-10T15:03:02Z</time>
      </trkpt>
      <trkpt lat="43.85853" lon="7.22144">
        <ele>486.820648</ele>
        <time>2017-02-10T15:03:04Z</time>
      </trkpt>
      <trkpt lat="43.85852" lon="7.22147">
        <ele>486.607025</ele>
        <time>2017-02-10T15:03:06Z</time>
      </trkpt>
      <trkpt lat="43.85852" lon="7.22151">
        <ele>486.194672</ele>
        <time>2017-02-10T15:03:08Z</time>
      </trkpt>
      <trkpt lat="43.85851" lon="7.22154">
        <ele>485.728271</ele>
        <time>2017-02-10T15:03:10Z</time>
      </trkpt>
      <trkpt lat="43.8585" lon="7.22158">
        <ele>485.258392</ele>
        <time>2017-02-10T15:03:12Z</time>
      </trkpt>
      <trkpt lat="43.85848" lon="7.22162">
        <ele>484.826904</ele>
        <time>2017-02-10T15:03:14Z</time>
      </trkpt>
      <trkpt lat="43.85847" lon="7.22165">
        <ele>484.432556</ele>
        <time>2017-02-10T15:03:16Z</time>
      </trkpt>
      <trkpt lat="43.85845" lon="7.22166">
        <ele>483.975403</ele>
        <time>2017-02-10T15:03:18Z</time>
      </trkpt>
      <trkpt lat="43.85843" lon="7.22169">
        <ele>483.537933</ele>
        <time>2017-02-10T15:03:20Z</time>
      </trkpt>
      <trkpt lat="43.8584" lon="7.22171">
        <ele>483.119629</ele>
        <time>2017-02-10T15:03:22Z</time>
      </trkpt>
      <trkpt lat="43.85838" lon="7.22173">
        <ele>482.468994</ele>
        <time>2017-02-10T15:03:24Z</time>
      </trkpt>
      <trkpt lat="43.85836" lon="7.22176">
        <ele>482.057281</ele>
        <time>2017-02-10T15:03:26Z</time>
      </trkpt>
      <trkpt lat="43.85835" lon="7.22179">
        <ele>481.554108</ele>
        <time>2017-02-10T15:03:28Z</time>
      </trkpt>
      <trkpt lat="43.85832" lon="7.22182">
        <ele>481.159851</ele>
        <time>2017-02-10T15:03:30Z</time>
      </trkpt>
      <trkpt lat="43.8583" lon="7.22185">
        <ele>480.889801</ele>
        <time>2017-02-10T15:03:32Z</time>
      </trkpt>
      <trkpt lat="43.85828" lon="7.22188">
        <ele>480.444</ele>
        <time>2017-02-10T15:03:34Z</time>
      </trkpt>
      <trkpt lat="43.85826" lon="7.22192">
        <ele>480.121643</ele>
        <time>2017-02-10T15:03:36Z</time>
      </trkpt>
      <trkpt lat="43.85824" lon="7.22195">
        <ele>479.707855</ele>
        <time>2017-02-10T15:03:38Z</time>
      </trkpt>
      <trkpt lat="43.85823" lon="7.22199">
        <ele>479.375336</ele>
        <time>2017-02-10T15:03:40Z</time>
      </trkpt>
      <trkpt lat="43.8582" lon="7.22203">
        <ele>479.046539</ele>
        <time>2017-02-10T15:03:42Z</time>
      </trkpt>
      <trkpt lat="43.85818" lon="7.22207">
        <ele>478.750336</ele>
        <time>2017-02-10T15:03:44Z</time>
      </trkpt>
      <trkpt lat="43.85815" lon="7.22211">
        <ele>478.59137</ele>
        <time>2017-02-10T15:03:46Z</time>
      </trkpt>
      <trkpt lat="43.85814" lon="7.22215">
        <ele>478.305847</ele>
        <time>2017-02-10T15:03:48Z</time>
      </trkpt>
      <trkpt lat="43.85812" lon="7.22219">
        <ele>478.039948</ele>
        <time>2017-02-10T15:03:50Z</time>
      </trkpt>
      <trkpt lat="43.85811" lon="7.22222">
        <ele>477.782227</ele>
        <time>2017-02-10T15:03:52Z</time>
      </trkpt>
      <trkpt lat="43.85808" lon="7.22226">
        <ele>477.614563</ele>
        <time>2017-02-10T15:03:54Z</time>
      </trkpt>
      <trkpt lat="43.85808" lon="7.22229">
        <ele>477.470856</ele>
        <time>2017-02-10T15:03:56Z</time>
      </trkpt>
      <trkpt lat="43.85807" lon="7.22234">
        <ele>477.173157</ele>
        <time>2017-02-10T15:03:58Z</time>
      </trkpt>
      <trkpt lat="43.85806" lon="7.22239">
        <ele>476.7854</ele>
        <time>2017-02-10T15:04:00Z</time>
      </trkpt>
      <trkpt lat="43.85805" lon="7.22243">
        <ele>476.45639</ele>
        <time>2017-02-10T15:04:02Z</time>
      </trkpt>
      <trkpt lat="43.85804" lon="7.22247">
        <ele>476.158142</ele>
        <time>2017-02-10T15:04:04Z</time>
      </trkpt>
      <trkpt lat="43.85803" lon="7.22251">
        <ele>476.066559</ele>
        <time>2017-02-10T15:04:06Z</time>
      </trkpt>
      <trkpt lat="43.85802" lon="7.22255">
        <ele>475.827087</ele>
        <time>2017-02-10T15:04:08Z</time>
      </trkpt>
      <trkpt lat="43.85802" lon="7.2226">
        <ele>475.673401</ele>
        <time>2017-02-10T15:04:10Z</time>
      </trkpt>
      <trkpt lat="43.85802" lon="7.22265">
        <ele>475.433929</ele>
        <time>2017-02-10T15:04:12Z</time>
      </trkpt>
      <trkpt lat="43.85801" lon="7.22269">
        <ele>475.14859</ele>
        <time>2017-02-10T15:04:14Z</time>
      </trkpt>
      <trkpt lat="43.85801" lon="7.22273">
        <ele>474.837311</ele>
        <time>2017-02-10T15:04:16Z</time>
      </trkpt>
      <trkpt lat="43.85801" lon="7.22277">
        <ele>474.558655</ele>
        <time>2017-02-10T15:04:18Z</time>
      </trkpt>
      <trkpt lat="43.85801" lon="7.22281">
        <ele>474.247406</ele>
        <time>2017-02-10T15:04:20Z</time>
      </trkpt>
      <trkpt lat="43.858" lon="7.22285">
        <ele>474.046448</ele>
        <time>2017-02-10T15:04:22Z</time>
      </trkpt>
      <trkpt lat="43.85799" lon="7.22289">
        <ele>473.716614</ele>
        <time>2017-02-10T15:04:24Z</time>
      </trkpt>
      <trkpt lat="43.85798" lon="7.22293">
        <ele>473.360291</ele>
        <time>2017-02-10T15:04:26Z</time>
      </trkpt>
      <trkpt lat="43.85798" lon="7.22297">
        <ele>472.859772</ele>
        <time>2017-02-10T15:04:28Z</time>
      </trkpt>
      <trkpt lat="43.85797" lon="7.22301">
        <ele>472.399017</ele>
        <time>2017-02-10T15:04:30Z</time>
      </trkpt>
      <trkpt lat="43.85796" lon="7.22305">
        <ele>471.977844</ele>
        <time>2017-02-10T15:04:32Z</time>
      </trkpt>
      <trkpt lat="43.85795" lon="7.22309">
        <ele>471.512054</ele>
        <time>2017-02-10T15:04:34Z</time>
      </trkpt>
      <trkpt lat="43.85795" lon="7.22313">
        <ele>471.033356</ele>
        <time>2017-02-10T15:04:36Z</time>
      </trkpt>
      <trkpt lat="43.85794" lon="7.22317">
        <ele>470.465515</ele>
        <time>2017-02-10T15:04:38Z</time>
      </trkpt>
      <trkpt lat="43.85793" lon="7.22321">
        <ele>470.04718</ele>
        <time>2017-02-10T15:04:40Z</time>
      </trkpt>
      <trkpt lat="43.85793" lon="7.22326">
        <ele>469.646881</ele>
        <time>2017-02-10T15:04:42Z</time>
      </trkpt>
      <trkpt lat="43.85793" lon="7.22331">
        <ele>469.420563</ele>
        <time>2017-02-10T15:04:44Z</time>
      </trkpt>
      <trkpt lat="43.85796" lon="7.22335">
        <ele>469.051514</ele>
        <time>2017-02-10T15:04:46Z</time>
      </trkpt>
      <trkpt lat="43.85798" lon="7.22338">
        <ele>468.639252</ele>
        <time>2017-02-10T15:04:48Z</time>
      </trkpt>
      <trkpt lat="43.85801" lon="7.22341">
        <ele>468.21933</ele>
        <time>2017-02-10T15:04:50Z</time>
      </trkpt>
      <trkpt lat="43.85804" lon="7.22344">
        <ele>467.742096</ele>
        <time>2017-02-10T15:04:52Z</time>
      </trkpt>
      <trkpt lat="43.85807" lon="7.22346">
        <ele>467.400543</ele>
        <time>2017-02-10T15:04:54Z</time>
      </trkpt>
      <trkpt lat="43.85808" lon="7.22348">
        <ele>467.176422</ele>
        <time>2017-02-10T15:04:56Z</time>
      </trkpt>
      <trkpt lat="43.8581" lon="7.2235">
        <ele>466.880554</ele>
        <time>2017-02-10T15:04:58Z</time>
      </trkpt>
      <trkpt lat="43.85812" lon="7.22352">
        <ele>466.669586</ele>
        <time>2017-02-10T15:05:00Z</time>
      </trkpt>
      <trkpt lat="43.85814" lon="7.22354">
        <ele>466.61084</ele>
        <time>2017-02-10T15:05:02Z</time>
      </trkpt>
      <trkpt lat="43.85817" lon="7.22352">
        <ele>466.465973</ele>
        <time>2017-02-10T15:05:04Z</time>
      </trkpt>
      <trkpt lat="43.8582" lon="7.22352">
        <ele>466.364319</ele>
        <time>2017-02-10T15:05:06Z</time>
      </trkpt>
      <trkpt lat="43.85823" lon="7.22351">
        <ele>466.259918</ele>
        <time>2017-02-10T15:05:08Z</time>
      </trkpt>
      <trkpt lat="43.85825" lon="7.22349">
        <ele>466.327393</ele>
        <time>2017-02-10T15:05:10Z</time>
      </trkpt>
      <trkpt lat="43.85828" lon="7.22348">
        <ele>466.288269</ele>
        <time>2017-02-10T15:05:12Z</time>
      </trkpt>
      <trkpt lat="43.85831" lon="7.22347">
        <ele>466.307129</ele>
        <time>2017-02-10T15:05:14Z</time>
      </trkpt>
      <trkpt lat="43.85833" lon="7.22346">
        <ele>466.304993</ele>
        <time>2017-02-10T15:05:16Z</time>
      </trkpt>
      <trkpt lat="43.85836" lon="7.22344">
        <ele>466.334229</ele>
        <time>2017-02-10T15:05:18Z</time>
      </trkpt>
      <trkpt lat="43.85838" lon="7.22343">
        <ele>466.521301</ele>
        <time>2017-02-10T15:05:20Z</time>
      </trkpt>
      <trkpt lat="43.8584" lon="7.22341">
        <ele>466.677887</ele>
        <time>2017-02-10T15:05:22Z</time>
      </trkpt>
      <trkpt lat="43.85842" lon="7.22339">
        <ele>466.838867</ele>
        <time>2017-02-10T15:05:24Z</time>
      </trkpt>
      <trkpt lat="43.85844" lon="7.22337">
        <ele>466.906555</ele>
        <time>2017-02-10T15:05:26Z</time>
      </trkpt>
      <trkpt lat="43.85846" lon="7.22335">
        <ele>467.07489</ele>
        <time>2017-02-10T15:05:30Z</time>
      </trkpt>
      <trkpt lat="43.85848" lon="7.22332">
        <ele>467.111877</ele>
        <time>2017-02-10T15:05:32Z</time>
      </trkpt>
      <trkpt lat="43.85851" lon="7.2233">
        <ele>467.292145</ele>
        <time>2017-02-10T15:05:34Z</time>
      </trkpt>
      <trkpt lat="43.85852" lon="7.22329">
        <ele>467.368256</ele>
        <time>2017-02-10T15:05:36Z</time>
      </trkpt>
      <trkpt lat="43.85855" lon="7.22328">
        <ele>467.387848</ele>
        <time>2017-02-10T15:05:38Z</time>
      </trkpt>
      <trkpt lat="43.85857" lon="7.22326">
        <ele>467.361725</ele>
        <time>2017-02-10T15:05:40Z</time>
      </trkpt>
      <trkpt lat="43.85859" lon="7.22325">
        <ele>467.33194</ele>
        <time>2017-02-10T15:05:42Z</time>
      </trkpt>
      <trkpt lat="43.85862" lon="7.22325">
        <ele>467.236237</ele>
        <time>2017-02-10T15:05:44Z</time>
      </trkpt>
      <trkpt lat="43.85864" lon="7.22322">
        <ele>467.304993</ele>
        <time>2017-02-10T15:05:46Z</time>
      </trkpt>
      <trkpt lat="43.85866" lon="7.2232">
        <ele>467.328918</ele>
        <time>2017-02-10T15:05:48Z</time>
      </trkpt>
      <trkpt lat="43.85868" lon="7.22318">
        <ele>467.311462</ele>
        <time>2017-02-10T15:05:50Z</time>
      </trkpt>
      <trkpt lat="43.8587" lon="7.22316">
        <ele>467.204834</ele>
        <time>2017-02-10T15:05:52Z</time>
      </trkpt>
      <trkpt lat="43.85873" lon="7.22313">
        <ele>467.170074</ele>
        <time>2017-02-10T15:05:54Z</time>
      </trkpt>
      <trkpt lat="43.85875" lon="7.22312">
        <ele>467.141785</ele>
        <time>2017-02-10T15:05:56Z</time>
      </trkpt>
      <trkpt lat="43.85877" lon="7.22311">
        <ele>467.100586</ele>
        <time>2017-02-10T15:05:58Z</time>
      </trkpt>
      <trkpt lat="43.85879" lon="7.22309">
        <ele>466.980957</ele>
        <time>2017-02-10T15:06:00Z</time>
      </trkpt>
      <trkpt lat="43.85881" lon="7.22307">
        <ele>466.961426</ele>
        <time>2017-02-10T15:06:02Z</time>
      </trkpt>
      <trkpt lat="43.85883" lon="7.22305">
        <ele>466.833099</ele>
        <time>2017-02-10T15:06:04Z</time>
      </trkpt>
      <trkpt lat="43.85884" lon="7.22303">
        <ele>466.752594</ele>
        <time>2017-02-10T15:06:06Z</time>
      </trkpt>
      <trkpt lat="43.85885" lon="7.223">
        <ele>466.564514</ele>
        <time>2017-02-10T15:06:08Z</time>
      </trkpt>
      <trkpt lat="43.85886" lon="7.22296">
        <ele>466.468201</ele>
        <time>2017-02-10T15:06:10Z</time>
      </trkpt>
      <trkpt lat="43.85886" lon="7.22293">
        <ele>466.311615</ele>
        <time>2017-02-10T15:06:12Z</time>
      </trkpt>
      <trkpt lat="43.85888" lon="7.2229">
        <ele>466.250732</ele>
        <time>2017-02-10T15:06:14Z</time>
      </trkpt>
      <trkpt lat="43.85891" lon="7.22288">
        <ele>466.066803</ele>
        <time>2017-02-10T15:06:16Z</time>
      </trkpt>
      <trkpt lat="43.85893" lon="7.22286">
        <ele>465.842834</ele>
        <time>2017-02-10T15:06:18Z</time>
      </trkpt>
      <trkpt lat="43.85896" lon="7.22283">
        <ele>465.74234</ele>
        <time>2017-02-10T15:06:20Z</time>
      </trkpt>
      <trkpt lat="43.85899" lon="7.2228">
        <ele>465.619568</ele>
        <time>2017-02-10T15:06:22Z</time>
      </trkpt>
      <trkpt lat="43.85902" lon="7.22278">
        <ele>465.443451</ele>
        <time>2017-02-10T15:06:24Z</time>
      </trkpt>
      <trkpt lat="43.85905" lon="7.22276">
        <ele>465.204254</ele>
        <time>2017-02-10T15:06:26Z</time>
      </trkpt>
      <trkpt lat="43.85907" lon="7.22273">
        <ele>465.017181</ele>
        <time>2017-02-10T15:06:28Z</time>
      </trkpt>
      <trkpt lat="43.8591" lon="7.22272">
        <ele>464.791016</ele>
        <time>2017-02-10T15:06:30Z</time>
      </trkpt>
      <trkpt lat="43.85912" lon="7.2227">
        <ele>464.649658</ele>
        <time>2017-02-10T15:06:32Z</time>
      </trkpt>
      <trkpt lat="43.85914" lon="7.22268">
        <ele>464.608337</ele>
        <time>2017-02-10T15:06:34Z</time>
      </trkpt>
      <trkpt lat="43.85917" lon="7.22266">
        <ele>464.438416</ele>
        <time>2017-02-10T15:06:36Z</time>
      </trkpt>
      <trkpt lat="43.8592" lon="7.22264">
        <ele>464.222351</ele>
        <time>2017-02-10T15:06:38Z</time>
      </trkpt>
      <trkpt lat="43.85923" lon="7.22261">
        <ele>464.060699</ele>
        <time>2017-02-10T15:06:40Z</time>
      </trkpt>
      <trkpt lat="43.85926" lon="7.22259">
        <ele>463.976807</ele>
        <time>2017-02-10T15:06:42Z</time>
      </trkpt>
      <trkpt lat="43.85928" lon="7.22257">
        <ele>463.735352</ele>
        <time>2017-02-10T15:06:44Z</time>
      </trkpt>
      <trkpt lat="43.85931" lon="7.22255">
        <ele>463.587494</ele>
        <time>2017-02-10T15:06:46Z</time>
      </trkpt>
      <trkpt lat="43.85934" lon="7.22251">
        <ele>463.465729</ele>
        <time>2017-02-10T15:06:48Z</time>
      </trkpt>
      <trkpt lat="43.85936" lon="7.22248">
        <ele>463.442627</ele>
        <time>2017-02-10T15:06:50Z</time>
      </trkpt>
      <trkpt lat="43.85938" lon="7.22247">
        <ele>463.431793</ele>
        <time>2017-02-10T15:06:52Z</time>
      </trkpt>
      <trkpt lat="43.8594" lon="7.22245">
        <ele>463.370911</ele>
        <time>2017-02-10T15:06:54Z</time>
      </trkpt>
      <trkpt lat="43.85942" lon="7.22242">
        <ele>463.318695</ele>
        <time>2017-02-10T15:06:56Z</time>
      </trkpt>
      <trkpt lat="43.85943" lon="7.22239">
        <ele>463.281067</ele>
        <time>2017-02-10T15:06:58Z</time>
      </trkpt>
      <trkpt lat="43.85943" lon="7.22233">
        <ele>463.270355</ele>
        <time>2017-02-10T15:07:00Z</time>
      </trkpt>
      <trkpt lat="43.85946" lon="7.22229">
        <ele>463.199066</ele>
        <time>2017-02-10T15:07:02Z</time>
      </trkpt>
      <trkpt lat="43.85948" lon="7.22226">
        <ele>463.077576</ele>
        <time>2017-02-10T15:07:04Z</time>
      </trkpt>
      <trkpt lat="43.85951" lon="7.22224">
        <ele>462.971039</ele>
        <time>2017-02-10T15:07:06Z</time>
      </trkpt>
      <trkpt lat="43.85952" lon="7.22221">
        <ele>462.994934</ele>
        <time>2017-02-10T15:07:08Z</time>
      </trkpt>
      <trkpt lat="43.85954" lon="7.22219">
        <ele>462.890564</ele>
        <time>2017-02-10T15:07:10Z</time>
      </trkpt>
      <trkpt lat="43.85955" lon="7.22218">
        <ele>462.808197</ele>
        <time>2017-02-10T15:07:12Z</time>
      </trkpt>
      <trkpt lat="43.85957" lon="7.22216">
        <ele>462.67984</ele>
        <time>2017-02-10T15:07:14Z</time>
      </trkpt>
      <trkpt lat="43.8596" lon="7.22214">
        <ele>462.621399</ele>
        <time>2017-02-10T15:07:16Z</time>
      </trkpt>
      <trkpt lat="43.85962" lon="7.22211">
        <ele>462.39389</ele>
        <time>2017-02-10T15:07:18Z</time>
      </trkpt>
      <trkpt lat="43.85965" lon="7.2221">
        <ele>462.228668</ele>
        <time>2017-02-10T15:07:20Z</time>
      </trkpt>
      <trkpt lat="43.85967" lon="7.22207">
        <ele>462.125824</ele>
        <time>2017-02-10T15:07:22Z</time>
      </trkpt>
      <trkpt lat="43.8597" lon="7.22204">
        <ele>462.053162</ele>
        <time>2017-02-10T15:07:24Z</time>
      </trkpt>
      <trkpt lat="43.85972" lon="7.22202">
        <ele>461.920563</ele>
        <time>2017-02-10T15:07:26Z</time>
      </trkpt>
      <trkpt lat="43.85975" lon="7.222">
        <ele>461.807526</ele>
        <time>2017-02-10T15:07:28Z</time>
      </trkpt>
      <trkpt lat="43.85977" lon="7.22198">
        <ele>461.728455</ele>
        <time>2017-02-10T15:07:30Z</time>
      </trkpt>
      <trkpt lat="43.85979" lon="7.22195">
        <ele>461.541504</ele>
        <time>2017-02-10T15:07:32Z</time>
      </trkpt>
      <trkpt lat="43.85981" lon="7.22193">
        <ele>461.332764</ele>
        <time>2017-02-10T15:07:34Z</time>
      </trkpt>
      <trkpt lat="43.85984" lon="7.22191">
        <ele>461.250153</ele>
        <time>2017-02-10T15:07:36Z</time>
      </trkpt>
      <trkpt lat="43.85985" lon="7.22186">
        <ele>461.037109</ele>
        <time>2017-02-10T15:07:38Z</time>
      </trkpt>
      <trkpt lat="43.85987" lon="7.22182">
        <ele>460.902161</ele>
        <time>2017-02-10T15:07:40Z</time>
      </trkpt>
      <trkpt lat="43.85988" lon="7.22179">
        <ele>460.730408</ele>
        <time>2017-02-10T15:07:42Z</time>
      </trkpt>
      <trkpt lat="43.8599" lon="7.22176">
        <ele>460.652161</ele>
        <time>2017-02-10T15:07:44Z</time>
      </trkpt>
      <trkpt lat="43.85992" lon="7.22174">
        <ele>460.643463</ele>
        <time>2017-02-10T15:07:46Z</time>
      </trkpt>
      <trkpt lat="43.85994" lon="7.22171">
        <ele>460.530426</ele>
        <time>2017-02-10T15:07:48Z</time>
      </trkpt>
      <trkpt lat="43.85996" lon="7.22168">
        <ele>460.417419</ele>
        <time>2017-02-10T15:07:50Z</time>
      </trkpt>
      <trkpt lat="43.85999" lon="7.22166">
        <ele>460.367126</ele>
        <time>2017-02-10T15:07:52Z</time>
      </trkpt>
      <trkpt lat="43.86001" lon="7.22165">
        <ele>460.382324</ele>
        <time>2017-02-10T15:07:54Z</time>
      </trkpt>
      <trkpt lat="43.86002" lon="7.22163">
        <ele>460.356628</ele>
        <time>2017-02-10T15:07:56Z</time>
      </trkpt>
      <trkpt lat="43.86005" lon="7.2216">
        <ele>460.29361</ele>
        <time>2017-02-10T15:07:58Z</time>
      </trkpt>
      <trkpt lat="43.86007" lon="7.22158">
        <ele>460.43399</ele>
        <time>2017-02-10T15:08:00Z</time>
      </trkpt>
      <trkpt lat="43.86008" lon="7.22156">
        <ele>460.564392</ele>
        <time>2017-02-10T15:08:02Z</time>
      </trkpt>
      <trkpt lat="43.8601" lon="7.22154">
        <ele>460.679932</ele>
        <time>2017-02-10T15:08:04Z</time>
      </trkpt>
      <trkpt lat="43.86013" lon="7.22152">
        <ele>460.68866</ele>
        <time>2017-02-10T15:08:06Z</time>
      </trkpt>
      <trkpt lat="43.86014" lon="7.2215">
        <ele>460.769135</ele>
        <time>2017-02-10T15:08:08Z</time>
      </trkpt>
      <trkpt lat="43.86016" lon="7.22148">
        <ele>460.917725</ele>
        <time>2017-02-10T15:08:10Z</time>
      </trkpt>
      <trkpt lat="43.86018" lon="7.22146">
        <ele>461.000336</ele>
        <time>2017-02-10T15:08:12Z</time>
      </trkpt>
      <trkpt lat="43.8602" lon="7.22144">
        <ele>461.180817</ele>
        <time>2017-02-10T15:08:14Z</time>
      </trkpt>
      <trkpt lat="43.86021" lon="7.22142">
        <ele>461.365631</ele>
        <time>2017-02-10T15:08:16Z</time>
      </trkpt>
      <trkpt lat="43.86023" lon="7.2214">
        <ele>461.476501</ele>
        <time>2017-02-10T15:08:18Z</time>
      </trkpt>
      <trkpt lat="43.86025" lon="7.22138">
        <ele>461.780334</ele>
        <time>2017-02-10T15:08:20Z</time>
      </trkpt>
      <trkpt lat="43.86028" lon="7.22135">
        <ele>461.967621</ele>
        <time>2017-02-10T15:08:22Z</time>
      </trkpt>
      <trkpt lat="43.8603" lon="7.22133">
        <ele>462.345947</ele>
        <time>2017-02-10T15:08:24Z</time>
      </trkpt>
      <trkpt lat="43.86032" lon="7.22131">
        <ele>462.559021</ele>
        <time>2017-02-10T15:08:26Z</time>
      </trkpt>
      <trkpt lat="43.86033" lon="7.22127">
        <ele>462.811279</ele>
        <time>2017-02-10T15:08:28Z</time>
      </trkpt>
      <trkpt lat="43.86035" lon="7.22124">
        <ele>463.076508</ele>
        <time>2017-02-10T15:08:30Z</time>
      </trkpt>
      <trkpt lat="43.86037" lon="7.22123">
        <ele>463.328705</ele>
        <time>2017-02-10T15:08:32Z</time>
      </trkpt>
      <trkpt lat="43.86039" lon="7.22123">
        <ele>463.572205</ele>
        <time>2017-02-10T15:08:34Z</time>
      </trkpt>
      <trkpt lat="43.86039" lon="7.22124">
        <ele>463.844055</ele>
        <time>2017-02-10T15:08:36Z</time>
      </trkpt>
      <trkpt lat="43.86042" lon="7.22121">
        <ele>464.527527</ele>
        <time>2017-02-10T15:08:40Z</time>
      </trkpt>
      <trkpt lat="43.86042" lon="7.22118">
        <ele>464.766754</ele>
        <time>2017-02-10T15:08:42Z</time>
      </trkpt>
      <trkpt lat="43.86043" lon="7.22115">
        <ele>464.962463</ele>
        <time>2017-02-10T15:08:44Z</time>
      </trkpt>
      <trkpt lat="43.86044" lon="7.22111">
        <ele>465.295105</ele>
        <time>2017-02-10T15:08:46Z</time>
      </trkpt>
      <trkpt lat="43.86046" lon="7.22108">
        <ele>465.412537</ele>
        <time>2017-02-10T15:08:48Z</time>
      </trkpt>
      <trkpt lat="43.86048" lon="7.22106">
        <ele>465.71051</ele>
        <time>2017-02-10T15:08:50Z</time>
      </trkpt>
      <trkpt lat="43.8605" lon="7.22103">
        <ele>465.969299</ele>
        <time>2017-02-10T15:08:52Z</time>
      </trkpt>
      <trkpt lat="43.86052" lon="7.221">
        <ele>466.193298</ele>
        <time>2017-02-10T15:08:54Z</time>
      </trkpt>
      <trkpt lat="43.86054" lon="7.22098">
        <ele>466.390076</ele>
        <time>2017-02-10T15:08:56Z</time>
      </trkpt>
      <trkpt lat="43.86055" lon="7.22095">
        <ele>466.538422</ele>
        <time>2017-02-10T15:08:58Z</time>
      </trkpt>
      <trkpt lat="43.86057" lon="7.22093">
        <ele>466.641052</ele>
        <time>2017-02-10T15:09:00Z</time>
      </trkpt>
      <trkpt lat="43.86058" lon="7.22091">
        <ele>466.795258</ele>
        <time>2017-02-10T15:09:02Z</time>
      </trkpt>
      <trkpt lat="43.86059" lon="7.22089">
        <ele>466.869202</ele>
        <time>2017-02-10T15:09:04Z</time>
      </trkpt>
      <trkpt lat="43.86061" lon="7.22089">
        <ele>467.099762</ele>
        <time>2017-02-10T15:09:08Z</time>
      </trkpt>
      <trkpt lat="43.86062" lon="7.22089">
        <ele>467.219391</ele>
        <time>2017-02-10T15:09:10Z</time>
      </trkpt>
      <trkpt lat="43.86062" lon="7.2209">
        <ele>467.434723</ele>
        <time>2017-02-10T15:09:12Z</time>
      </trkpt>
      <trkpt lat="43.86063" lon="7.22091">
        <ele>467.541351</ele>
        <time>2017-02-10T15:09:14Z</time>
      </trkpt>
      <trkpt lat="43.86062" lon="7.22092">
        <ele>467.677185</ele>
        <time>2017-02-10T15:09:16Z</time>
      </trkpt>
      <trkpt lat="43.86061" lon="7.22093">
        <ele>467.805237</ele>
        <time>2017-02-10T15:09:18Z</time>
      </trkpt>
      <trkpt lat="43.86058" lon="7.22094">
        <ele>468.104828</ele>
        <time>2017-02-10T15:09:22Z</time>
      </trkpt>
      <trkpt lat="43.86057" lon="7.22096">
        <ele>468.284912</ele>
        <time>2017-02-10T15:09:24Z</time>
      </trkpt>
      <trkpt lat="43.86057" lon="7.22096">
        <ele>468.528625</ele>
        <time>2017-02-10T15:09:26Z</time>
      </trkpt>
      <trkpt lat="43.86055" lon="7.22098">
        <ele>469.438538</ele>
        <time>2017-02-10T15:09:33Z</time>
      </trkpt>
      <trkpt lat="43.86055" lon="7.22099">
        <ele>469.821533</ele>
        <time>2017-02-10T15:09:35Z</time>
      </trkpt>
      <trkpt lat="43.86055" lon="7.22101">
        <ele>470.279694</ele>
        <time>2017-02-10T15:09:37Z</time>
      </trkpt>
      <trkpt lat="43.86055" lon="7.22103">
        <ele>470.681488</ele>
        <time>2017-02-10T15:09:39Z</time>
      </trkpt>
      <trkpt lat="43.86054" lon="7.22105">
        <ele>471.151184</ele>
        <time>2017-02-10T15:09:41Z</time>
      </trkpt>
      <trkpt lat="43.86053" lon="7.22107">
        <ele>471.360504</ele>
        <time>2017-02-10T15:09:43Z</time>
      </trkpt>
      <trkpt lat="43.86052" lon="7.22109">
        <ele>471.793518</ele>
        <time>2017-02-10T15:09:45Z</time>
      </trkpt>
      <trkpt lat="43.8605" lon="7.2211">
        <ele>472.20697</ele>
        <time>2017-02-10T15:09:47Z</time>
      </trkpt>
      <trkpt lat="43.86049" lon="7.22114">
        <ele>472.592133</ele>
        <time>2017-02-10T15:09:49Z</time>
      </trkpt>
      <trkpt lat="43.86047" lon="7.22117">
        <ele>472.946838</ele>
        <time>2017-02-10T15:09:51Z</time>
      </trkpt>
      <trkpt lat="43.86045" lon="7.22119">
        <ele>473.281891</ele>
        <time>2017-02-10T15:09:53Z</time>
      </trkpt>
      <trkpt lat="43.86044" lon="7.22122">
        <ele>473.562592</ele>
        <time>2017-02-10T15:09:55Z</time>
      </trkpt>
      <trkpt lat="43.86043" lon="7.22125">
        <ele>473.916077</ele>
        <time>2017-02-10T15:09:57Z</time>
      </trkpt>
      <trkpt lat="43.86042" lon="7.22127">
        <ele>474.224915</ele>
        <time>2017-02-10T15:09:59Z</time>
      </trkpt>
      <trkpt lat="43.86042" lon="7.22129">
        <ele>474.494781</ele>
        <time>2017-02-10T15:10:01Z</time>
      </trkpt>
      <trkpt lat="43.86042" lon="7.22132">
        <ele>474.760834</ele>
        <time>2017-02-10T15:10:03Z</time>
      </trkpt>
      <trkpt lat="43.86041" lon="7.22135">
        <ele>474.994202</ele>
        <time>2017-02-10T15:10:05Z</time>
      </trkpt>
      <trkpt lat="43.86041" lon="7.22138">
        <ele>475.536285</ele>
        <time>2017-02-10T15:10:09Z</time>
      </trkpt>
      <trkpt lat="43.8604" lon="7.2214">
        <ele>475.614655</ele>
        <time>2017-02-10T15:10:11Z</time>
      </trkpt>
      <trkpt lat="43.8604" lon="7.22142">
        <ele>475.914368</ele>
        <time>2017-02-10T15:10:13Z</time>
      </trkpt>
      <trkpt lat="43.8604" lon="7.22144">
        <ele>476.151672</ele>
        <time>2017-02-10T15:10:15Z</time>
      </trkpt>
      <trkpt lat="43.8604" lon="7.22147">
        <ele>476.306244</ele>
        <time>2017-02-10T15:10:17Z</time>
      </trkpt>
      <trkpt lat="43.86039" lon="7.22148">
        <ele>476.43515</ele>
        <time>2017-02-10T15:10:19Z</time>
      </trkpt>
      <trkpt lat="43.86039" lon="7.2215">
        <ele>476.617371</ele>
        <time>2017-02-10T15:10:21Z</time>
      </trkpt>
      <trkpt lat="43.86038" lon="7.22153">
        <ele>476.747559</ele>
        <time>2017-02-10T15:10:23Z</time>
      </trkpt>
      <trkpt lat="43.86038" lon="7.22155">
        <ele>476.912994</ele>
        <time>2017-02-10T15:10:25Z</time>
      </trkpt>
      <trkpt lat="43.86037" lon="7.22159">
        <ele>477.343933</ele>
        <time>2017-02-10T15:10:29Z</time>
      </trkpt>
      <trkpt lat="43.86036" lon="7.22161">
        <ele>477.611816</ele>
        <time>2017-02-10T15:10:31Z</time>
      </trkpt>
      <trkpt lat="43.86035" lon="7.22164">
        <ele>478.289063</ele>
        <time>2017-02-10T15:10:35Z</time>
      </trkpt>
      <trkpt lat="43.86035" lon="7.22166">
        <ele>478.657043</ele>
        <time>2017-02-10T15:10:37Z</time>
      </trkpt>
      <trkpt lat="43.86035" lon="7.22172">
        <ele>480.415436</ele>
        <time>2017-02-10T15:10:47Z</time>
      </trkpt>
      <trkpt lat="43.86035" lon="7.22174">
        <ele>480.752136</ele>
        <time>2017-02-10T15:10:49Z</time>
      </trkpt>
      <trkpt lat="43.86034" lon="7.22176">
        <ele>481.118164</ele>
        <time>2017-02-10T15:10:51Z</time>
      </trkpt>
      <trkpt lat="43.86034" lon="7.22181">
        <ele>482.246887</ele>
        <time>2017-02-10T15:10:57Z</time>
      </trkpt>
      <trkpt lat="43.86033" lon="7.22183">
        <ele>482.671204</ele>
        <time>2017-02-10T15:10:59Z</time>
      </trkpt>
      <trkpt lat="43.86033" lon="7.22185">
        <ele>483.000153</ele>
        <time>2017-02-10T15:11:01Z</time>
      </trkpt>
      <trkpt lat="43.86032" lon="7.22186">
        <ele>483.439056</ele>
        <time>2017-02-10T15:11:03Z</time>
      </trkpt>
      <trkpt lat="43.86031" lon="7.22188">
        <ele>483.842621</ele>
        <time>2017-02-10T15:11:05Z</time>
      </trkpt>
      <trkpt lat="43.86031" lon="7.2219">
        <ele>484.306824</ele>
        <time>2017-02-10T15:11:07Z</time>
      </trkpt>
      <trkpt lat="43.8603" lon="7.22192">
        <ele>484.731689</ele>
        <time>2017-02-10T15:11:09Z</time>
      </trkpt>
      <trkpt lat="43.8603" lon="7.22194">
        <ele>484.967041</ele>
        <time>2017-02-10T15:11:11Z</time>
      </trkpt>
      <trkpt lat="43.86029" lon="7.22197">
        <ele>485.361725</ele>
        <time>2017-02-10T15:11:13Z</time>
      </trkpt>
      <trkpt lat="43.86029" lon="7.222">
        <ele>485.76593</ele>
        <time>2017-02-10T15:11:15Z</time>
      </trkpt>
      <trkpt lat="43.86028" lon="7.22203">
        <ele>486.169037</ele>
        <time>2017-02-10T15:11:17Z</time>
      </trkpt>
      <trkpt lat="43.86027" lon="7.22206">
        <ele>486.487213</ele>
        <time>2017-02-10T15:11:19Z</time>
      </trkpt>
      <trkpt lat="43.86026" lon="7.22208">
        <ele>486.864197</ele>
        <time>2017-02-10T15:11:21Z</time>
      </trkpt>
      <trkpt lat="43.86027" lon="7.2221">
        <ele>487.273926</ele>
        <time>2017-02-10T15:11:23Z</time>
      </trkpt>
      <trkpt lat="43.86027" lon="7.22212">
        <ele>487.683685</ele>
        <time>2017-02-10T15:11:25Z</time>
      </trkpt>
      <trkpt lat="43.86026" lon="7.22214">
        <ele>487.988831</ele>
        <time>2017-02-10T15:11:27Z</time>
      </trkpt>
      <trkpt lat="43.86026" lon="7.22216">
        <ele>488.349274</ele>
        <time>2017-02-10T15:11:29Z</time>
      </trkpt>
      <trkpt lat="43.86024" lon="7.22218">
        <ele>488.743835</ele>
        <time>2017-02-10T15:11:31Z</time>
      </trkpt>
      <trkpt lat="43.86023" lon="7.22221">
        <ele>489.090424</ele>
        <time>2017-02-10T15:11:33Z</time>
      </trkpt>
      <trkpt lat="43.86021" lon="7.22224">
        <ele>489.452301</ele>
        <time>2017-02-10T15:11:35Z</time>
      </trkpt>
      <trkpt lat="43.8602" lon="7.22226">
        <ele>489.772766</ele>
        <time>2017-02-10T15:11:37Z</time>
      </trkpt>
      <trkpt lat="43.86019" lon="7.22229">
        <ele>489.901367</ele>
        <time>2017-02-10T15:11:39Z</time>
      </trkpt>
      <trkpt lat="43.86018" lon="7.22232">
        <ele>490.188293</ele>
        <time>2017-02-10T15:11:41Z</time>
      </trkpt>
      <trkpt lat="43.86017" lon="7.22234">
        <ele>490.494537</ele>
        <time>2017-02-10T15:11:43Z</time>
      </trkpt>
      <trkpt lat="43.86015" lon="7.22237">
        <ele>490.666748</ele>
        <time>2017-02-10T15:11:45Z</time>
      </trkpt>
      <trkpt lat="43.86015" lon="7.2224">
        <ele>490.858551</ele>
        <time>2017-02-10T15:11:47Z</time>
      </trkpt>
      <trkpt lat="43.86014" lon="7.22242">
        <ele>491.043854</ele>
        <time>2017-02-10T15:11:49Z</time>
      </trkpt>
      <trkpt lat="43.86014" lon="7.22245">
        <ele>491.214661</ele>
        <time>2017-02-10T15:11:51Z</time>
      </trkpt>
      <trkpt lat="43.86013" lon="7.22248">
        <ele>491.355316</ele>
        <time>2017-02-10T15:11:53Z</time>
      </trkpt>
      <trkpt lat="43.86013" lon="7.2225">
        <ele>491.559174</ele>
        <time>2017-02-10T15:11:55Z</time>
      </trkpt>
      <trkpt lat="43.86012" lon="7.22252">
        <ele>491.676941</ele>
        <time>2017-02-10T15:11:57Z</time>
      </trkpt>
      <trkpt lat="43.86012" lon="7.22255">
        <ele>491.868805</ele>
        <time>2017-02-10T15:11:59Z</time>
      </trkpt>
      <trkpt lat="43.86011" lon="7.22257">
        <ele>492.060699</ele>
        <time>2017-02-10T15:12:01Z</time>
      </trkpt>
      <trkpt lat="43.8601" lon="7.2226">
        <ele>492.252594</ele>
        <time>2017-02-10T15:12:03Z</time>
      </trkpt>
      <trkpt lat="43.8601" lon="7.22263">
        <ele>492.34198</ele>
        <time>2017-02-10T15:12:05Z</time>
      </trkpt>
      <trkpt lat="43.86009" lon="7.22265">
        <ele>492.520813</ele>
        <time>2017-02-10T15:12:07Z</time>
      </trkpt>
      <trkpt lat="43.86009" lon="7.22267">
        <ele>492.679504</ele>
        <time>2017-02-10T15:12:09Z</time>
      </trkpt>
      <trkpt lat="43.86007" lon="7.2227">
        <ele>492.87265</ele>
        <time>2017-02-10T15:12:11Z</time>
      </trkpt>
      <trkpt lat="43.86007" lon="7.22272">
        <ele>493.073242</ele>
        <time>2017-02-10T15:12:13Z</time>
      </trkpt>
      <trkpt lat="43.86006" lon="7.22274">
        <ele>493.293457</ele>
        <time>2017-02-10T15:12:15Z</time>
      </trkpt>
      <trkpt lat="43.86005" lon="7.22276">
        <ele>493.478821</ele>
        <time>2017-02-10T15:12:17Z</time>
      </trkpt>
      <trkpt lat="43.86004" lon="7.22279">
        <ele>493.714417</ele>
        <time>2017-02-10T15:12:19Z</time>
      </trkpt>
      <trkpt lat="43.86004" lon="7.22281">
        <ele>494.044525</ele>
        <time>2017-02-10T15:12:21Z</time>
      </trkpt>
      <trkpt lat="43.86004" lon="7.22283">
        <ele>494.405579</ele>
        <time>2017-02-10T15:12:23Z</time>
      </trkpt>
      <trkpt lat="43.86004" lon="7.22286">
        <ele>494.785065</ele>
        <time>2017-02-10T15:12:25Z</time>
      </trkpt>
      <trkpt lat="43.86003" lon="7.22288">
        <ele>495.203857</ele>
        <time>2017-02-10T15:12:27Z</time>
      </trkpt>
      <trkpt lat="43.86002" lon="7.2229">
        <ele>495.567688</ele>
        <time>2017-02-10T15:12:29Z</time>
      </trkpt>
      <trkpt lat="43.86002" lon="7.22292">
        <ele>495.7836</ele>
        <time>2017-02-10T15:12:31Z</time>
      </trkpt>
      <trkpt lat="43.86002" lon="7.22294">
        <ele>496.174072</ele>
        <time>2017-02-10T15:12:33Z</time>
      </trkpt>
      <trkpt lat="43.86002" lon="7.22296">
        <ele>496.624207</ele>
        <time>2017-02-10T15:12:35Z</time>
      </trkpt>
      <trkpt lat="43.86001" lon="7.22298">
        <ele>497.010315</ele>
        <time>2017-02-10T15:12:37Z</time>
      </trkpt>
      <trkpt lat="43.86001" lon="7.22301">
        <ele>497.861023</ele>
        <time>2017-02-10T15:12:41Z</time>
      </trkpt>
      <trkpt lat="43.85999" lon="7.22303">
        <ele>498.332275</ele>
        <time>2017-02-10T15:12:43Z</time>
      </trkpt>
      <trkpt lat="43.85999" lon="7.22305">
        <ele>498.770813</ele>
        <time>2017-02-10T15:12:45Z</time>
      </trkpt>
      <trkpt lat="43.85998" lon="7.22307">
        <ele>499.170074</ele>
        <time>2017-02-10T15:12:47Z</time>
      </trkpt>
      <trkpt lat="43.85997" lon="7.22309">
        <ele>499.641907</ele>
        <time>2017-02-10T15:12:49Z</time>
      </trkpt>
      <trkpt lat="43.85996" lon="7.22312">
        <ele>500.480713</ele>
        <time>2017-02-10T15:12:53Z</time>
      </trkpt>
      <trkpt lat="43.85996" lon="7.22314">
        <ele>500.698975</ele>
        <time>2017-02-10T15:12:55Z</time>
      </trkpt>
      <trkpt lat="43.85995" lon="7.22316">
        <ele>501.085358</ele>
        <time>2017-02-10T15:12:57Z</time>
      </trkpt>
      <trkpt lat="43.85994" lon="7.22317">
        <ele>501.482513</ele>
        <time>2017-02-10T15:12:59Z</time>
      </trkpt>
      <trkpt lat="43.85994" lon="7.22319">
        <ele>501.899353</ele>
        <time>2017-02-10T15:13:01Z</time>
      </trkpt>
      <trkpt lat="43.85993" lon="7.22321">
        <ele>502.243164</ele>
        <time>2017-02-10T15:13:03Z</time>
      </trkpt>
      <trkpt lat="43.85993" lon="7.22323">
        <ele>502.538025</ele>
        <time>2017-02-10T15:13:05Z</time>
      </trkpt>
      <trkpt lat="43.85992" lon="7.22325">
        <ele>502.909088</ele>
        <time>2017-02-10T15:13:07Z</time>
      </trkpt>
      <trkpt lat="43.85991" lon="7.22329">
        <ele>503.680115</ele>
        <time>2017-02-10T15:13:11Z</time>
      </trkpt>
      <trkpt lat="43.8599" lon="7.22332">
        <ele>504.456482</ele>
        <time>2017-02-10T15:13:15Z</time>
      </trkpt>
      <trkpt lat="43.85989" lon="7.22334">
        <ele>504.826996</ele>
        <time>2017-02-10T15:13:17Z</time>
      </trkpt>
      <trkpt lat="43.85988" lon="7.22335">
        <ele>505.049652</ele>
        <time>2017-02-10T15:13:19Z</time>
      </trkpt>
      <trkpt lat="43.85986" lon="7.22339">
        <ele>505.804047</ele>
        <time>2017-02-10T15:13:23Z</time>
      </trkpt>
      <trkpt lat="43.85985" lon="7.2234">
        <ele>506.18399</ele>
        <time>2017-02-10T15:13:25Z</time>
      </trkpt>
      <trkpt lat="43.85983" lon="7.22342">
        <ele>506.50885</ele>
        <time>2017-02-10T15:13:27Z</time>
      </trkpt>
      <trkpt lat="43.85982" lon="7.22344">
        <ele>506.862549</ele>
        <time>2017-02-10T15:13:29Z</time>
      </trkpt>
      <trkpt lat="43.85979" lon="7.22346">
        <ele>508.109375</ele>
        <time>2017-02-10T15:13:37Z</time>
      </trkpt>
      <trkpt lat="43.85977" lon="7.22346">
        <ele>508.399811</ele>
        <time>2017-02-10T15:13:39Z</time>
      </trkpt>
      <trkpt lat="43.85975" lon="7.22347">
        <ele>508.692444</ele>
        <time>2017-02-10T15:13:41Z</time>
      </trkpt>
      <trkpt lat="43.85973" lon="7.22349">
        <ele>509.289703</ele>
        <time>2017-02-10T15:13:45Z</time>
      </trkpt>
      <trkpt lat="43.85972" lon="7.22351">
        <ele>509.444519</ele>
        <time>2017-02-10T15:13:47Z</time>
      </trkpt>
      <trkpt lat="43.8597" lon="7.22352">
        <ele>509.702637</ele>
        <time>2017-02-10T15:13:49Z</time>
      </trkpt>
      <trkpt lat="43.85969" lon="7.22353">
        <ele>510.014954</ele>
        <time>2017-02-10T15:13:51Z</time>
      </trkpt>
      <trkpt lat="43.85968" lon="7.22354">
        <ele>510.305817</ele>
        <time>2017-02-10T15:13:53Z</time>
      </trkpt>
      <trkpt lat="43.85965" lon="7.22356">
        <ele>511.247894</ele>
        <time>2017-02-10T15:13:59Z</time>
      </trkpt>
      <trkpt lat="43.85965" lon="7.22357">
        <ele>511.496735</ele>
        <time>2017-02-10T15:14:01Z</time>
      </trkpt>
      <trkpt lat="43.85965" lon="7.22361">
        <ele>513.256531</ele>
        <time>2017-02-10T15:14:13Z</time>
      </trkpt>
      <trkpt lat="43.85965" lon="7.22362">
        <ele>513.598633</ele>
        <time>2017-02-10T15:14:15Z</time>
      </trkpt>
      <trkpt lat="43.85965" lon="7.22364">
        <ele>514.297729</ele>
        <time>2017-02-10T15:14:19Z</time>
      </trkpt>
      <trkpt lat="43.85967" lon="7.22367">
        <ele>516.739624</ele>
        <time>2017-02-10T15:14:31Z</time>
      </trkpt>
      <trkpt lat="43.85968" lon="7.2237">
        <ele>518.092651</ele>
        <time>2017-02-10T15:14:39Z</time>
      </trkpt>
      <trkpt lat="43.85969" lon="7.22371">
        <ele>518.484985</ele>
        <time>2017-02-10T15:14:41Z</time>
      </trkpt>
      <trkpt lat="43.8597" lon="7.22372">
        <ele>518.942383</ele>
        <time>2017-02-10T15:14:43Z</time>
      </trkpt>
      <trkpt lat="43.8597" lon="7.22373">
        <ele>519.362183</ele>
        <time>2017-02-10T15:14:45Z</time>
      </trkpt>
      <trkpt lat="43.85971" lon="7.22379">
        <ele>521.262329</ele>
        <time>2017-02-10T15:14:55Z</time>
      </trkpt>
      <trkpt lat="43.85973" lon="7.2238">
        <ele>521.688904</ele>
        <time>2017-02-10T15:14:57Z</time>
      </trkpt>
      <trkpt lat="43.85973" lon="7.22382">
        <ele>522.130676</ele>
        <time>2017-02-10T15:14:59Z</time>
      </trkpt>
      <trkpt lat="43.85972" lon="7.22383">
        <ele>522.519897</ele>
        <time>2017-02-10T15:15:01Z</time>
      </trkpt>
      <trkpt lat="43.85971" lon="7.22384">
        <ele>522.743896</ele>
        <time>2017-02-10T15:15:03Z</time>
      </trkpt>
      <trkpt lat="43.85972" lon="7.22385">
        <ele>523.875427</ele>
        <time>2017-02-10T15:15:09Z</time>
      </trkpt>
      <trkpt lat="43.85974" lon="7.22385">
        <ele>524.551208</ele>
        <time>2017-02-10T15:15:13Z</time>
      </trkpt>
      <trkpt lat="43.85975" lon="7.22388">
        <ele>525.668701</ele>
        <time>2017-02-10T15:15:19Z</time>
      </trkpt>
      <trkpt lat="43.85975" lon="7.2239">
        <ele>526.065796</ele>
        <time>2017-02-10T15:15:21Z</time>
      </trkpt>
      <trkpt lat="43.85975" lon="7.22391">
        <ele>526.446533</ele>
        <time>2017-02-10T15:15:23Z</time>
      </trkpt>
      <trkpt lat="43.85974" lon="7.22393">
        <ele>526.649963</ele>
        <time>2017-02-10T15:15:25Z</time>
      </trkpt>
      <trkpt lat="43.85973" lon="7.22394">
        <ele>527.005432</ele>
        <time>2017-02-10T15:15:27Z</time>
      </trkpt>
      <trkpt lat="43.85972" lon="7.22395">
        <ele>527.42572</ele>
        <time>2017-02-10T15:15:29Z</time>
      </trkpt>
      <trkpt lat="43.85971" lon="7.22397">
        <ele>528.288818</ele>
        <time>2017-02-10T15:15:33Z</time>
      </trkpt>
      <trkpt lat="43.85969" lon="7.224">
        <ele>529.184509</ele>
        <time>2017-02-10T15:15:37Z</time>
      </trkpt>
      <trkpt lat="43.85969" lon="7.22402">
        <ele>529.595947</ele>
        <time>2017-02-10T15:15:39Z</time>
      </trkpt>
      <trkpt lat="43.85967" lon="7.22404">
        <ele>530.467041</ele>
        <time>2017-02-10T15:15:43Z</time>
      </trkpt>
      <trkpt lat="43.85966" lon="7.22406">
        <ele>531.354858</ele>
        <time>2017-02-10T15:15:47Z</time>
      </trkpt>
      <trkpt lat="43.85965" lon="7.22407">
        <ele>531.781677</ele>
        <time>2017-02-10T15:15:49Z</time>
      </trkpt>
      <trkpt lat="43.85965" lon="7.22407">
        <ele>532.232605</ele>
        <time>2017-02-10T15:15:51Z</time>
      </trkpt>
      <trkpt lat="43.85964" lon="7.22408">
        <ele>532.482117</ele>
        <time>2017-02-10T15:15:53Z</time>
      </trkpt>
      <trkpt lat="43.85963" lon="7.22409">
        <ele>532.931763</ele>
        <time>2017-02-10T15:15:55Z</time>
      </trkpt>
      <trkpt lat="43.85962" lon="7.2241">
        <ele>533.413391</ele>
        <time>2017-02-10T15:15:57Z</time>
      </trkpt>
      <trkpt lat="43.8596" lon="7.22411">
        <ele>533.857788</ele>
        <time>2017-02-10T15:15:59Z</time>
      </trkpt>
      <trkpt lat="43.8596" lon="7.22412">
        <ele>534.28418</ele>
        <time>2017-02-10T15:16:01Z</time>
      </trkpt>
      <trkpt lat="43.85959" lon="7.22414">
        <ele>534.713257</ele>
        <time>2017-02-10T15:16:03Z</time>
      </trkpt>
      <trkpt lat="43.85958" lon="7.22415">
        <ele>535.122986</ele>
        <time>2017-02-10T15:16:05Z</time>
      </trkpt>
      <trkpt lat="43.85956" lon="7.22417">
        <ele>535.978149</ele>
        <time>2017-02-10T15:16:09Z</time>
      </trkpt>
      <trkpt lat="43.85955" lon="7.22418">
        <ele>536.427124</ele>
        <time>2017-02-10T15:16:11Z</time>
      </trkpt>
      <trkpt lat="43.85955" lon="7.2242">
        <ele>536.883911</ele>
        <time>2017-02-10T15:16:13Z</time>
      </trkpt>
      <trkpt lat="43.85954" lon="7.22422">
        <ele>537.47522</ele>
        <time>2017-02-10T15:16:17Z</time>
      </trkpt>
      <trkpt lat="43.85953" lon="7.22423">
        <ele>537.836243</ele>
        <time>2017-02-10T15:16:19Z</time>
      </trkpt>
      <trkpt lat="43.85951" lon="7.22425">
        <ele>538.996216</ele>
        <time>2017-02-10T15:16:25Z</time>
      </trkpt>
      <trkpt lat="43.85949" lon="7.22426">
        <ele>539.410217</ele>
        <time>2017-02-10T15:16:27Z</time>
      </trkpt>
      <trkpt lat="43.85948" lon="7.22426">
        <ele>539.82428</ele>
        <time>2017-02-10T15:16:29Z</time>
      </trkpt>
      <trkpt lat="43.85947" lon="7.22427">
        <ele>540.225159</ele>
        <time>2017-02-10T15:16:31Z</time>
      </trkpt>
      <trkpt lat="43.85947" lon="7.2243">
        <ele>541.4776</ele>
        <time>2017-02-10T15:16:37Z</time>
      </trkpt>
      <trkpt lat="43.85949" lon="7.2243">
        <ele>542.544067</ele>
        <time>2017-02-10T15:16:43Z</time>
      </trkpt>
      <trkpt lat="43.8595" lon="7.22433">
        <ele>543.355042</ele>
        <time>2017-02-10T15:16:47Z</time>
      </trkpt>
      <trkpt lat="43.85949" lon="7.22434">
        <ele>543.78894</ele>
        <time>2017-02-10T15:16:49Z</time>
      </trkpt>
      <trkpt lat="43.85947" lon="7.22435">
        <ele>544.176514</ele>
        <time>2017-02-10T15:16:51Z</time>
      </trkpt>
      <trkpt lat="43.85944" lon="7.22436">
        <ele>544.912842</ele>
        <time>2017-02-10T15:16:55Z</time>
      </trkpt>
      <trkpt lat="43.85944" lon="7.22438">
        <ele>545.735596</ele>
        <time>2017-02-10T15:16:59Z</time>
      </trkpt>
      <trkpt lat="43.85943" lon="7.22439">
        <ele>546.214294</ele>
        <time>2017-02-10T15:17:01Z</time>
      </trkpt>
      <trkpt lat="43.85941" lon="7.22443">
        <ele>547.60675</ele>
        <time>2017-02-10T15:17:09Z</time>
      </trkpt>
      <trkpt lat="43.85941" lon="7.22444">
        <ele>547.991577</ele>
        <time>2017-02-10T15:17:11Z</time>
      </trkpt>
      <trkpt lat="43.85939" lon="7.22445">
        <ele>548.408142</ele>
        <time>2017-02-10T15:17:13Z</time>
      </trkpt>
      <trkpt lat="43.85939" lon="7.22447">
        <ele>548.798462</ele>
        <time>2017-02-10T15:17:15Z</time>
      </trkpt>
      <trkpt lat="43.85939" lon="7.22448">
        <ele>549.178833</ele>
        <time>2017-02-10T15:17:17Z</time>
      </trkpt>
      <trkpt lat="43.85939" lon="7.22451">
        <ele>549.566895</ele>
        <time>2017-02-10T15:17:19Z</time>
      </trkpt>
      <trkpt lat="43.85939" lon="7.22453">
        <ele>549.972595</ele>
        <time>2017-02-10T15:17:21Z</time>
      </trkpt>
      <trkpt lat="43.85939" lon="7.22456">
        <ele>550.820618</ele>
        <time>2017-02-10T15:17:25Z</time>
      </trkpt>
      <trkpt lat="43.85942" lon="7.22456">
        <ele>551.31189</ele>
        <time>2017-02-10T15:17:27Z</time>
      </trkpt>
      <trkpt lat="43.85944" lon="7.22455">
        <ele>551.748108</ele>
        <time>2017-02-10T15:17:29Z</time>
      </trkpt>
      <trkpt lat="43.85946" lon="7.22456">
        <ele>552.173645</ele>
        <time>2017-02-10T15:17:31Z</time>
      </trkpt>
      <trkpt lat="43.85947" lon="7.22457">
        <ele>552.577515</ele>
        <time>2017-02-10T15:17:33Z</time>
      </trkpt>
      <trkpt lat="43.85949" lon="7.22459">
        <ele>553.20697</ele>
        <time>2017-02-10T15:17:37Z</time>
      </trkpt>
      <trkpt lat="43.85951" lon="7.2246">
        <ele>553.550781</ele>
        <time>2017-02-10T15:17:39Z</time>
      </trkpt>
      <trkpt lat="43.85952" lon="7.22461">
        <ele>553.920532</ele>
        <time>2017-02-10T15:17:41Z</time>
      </trkpt>
      <trkpt lat="43.85954" lon="7.22462">
        <ele>554.196899</ele>
        <time>2017-02-10T15:17:43Z</time>
      </trkpt>
      <trkpt lat="43.85955" lon="7.22462">
        <ele>554.497375</ele>
        <time>2017-02-10T15:17:45Z</time>
      </trkpt>
      <trkpt lat="43.85957" lon="7.22464">
        <ele>554.804443</ele>
        <time>2017-02-10T15:17:47Z</time>
      </trkpt>
      <trkpt lat="43.85959" lon="7.22466">
        <ele>555.112061</ele>
        <time>2017-02-10T15:17:49Z</time>
      </trkpt>
      <trkpt lat="43.85961" lon="7.22468">
        <ele>555.446228</ele>
        <time>2017-02-10T15:17:51Z</time>
      </trkpt>
      <trkpt lat="43.85963" lon="7.2247">
        <ele>556.067139</ele>
        <time>2017-02-10T15:17:55Z</time>
      </trkpt>
      <trkpt lat="43.85965" lon="7.2247">
        <ele>556.387512</ele>
        <time>2017-02-10T15:17:57Z</time>
      </trkpt>
      <trkpt lat="43.85967" lon="7.22469">
        <ele>556.722107</ele>
        <time>2017-02-10T15:17:59Z</time>
      </trkpt>
      <trkpt lat="43.8597" lon="7.22469">
        <ele>557.0271</ele>
        <time>2017-02-10T15:18:01Z</time>
      </trkpt>
      <trkpt lat="43.85972" lon="7.22469">
        <ele>557.292603</ele>
        <time>2017-02-10T15:18:03Z</time>
      </trkpt>
      <trkpt lat="43.85974" lon="7.22467">
        <ele>557.435242</ele>
        <time>2017-02-10T15:18:05Z</time>
      </trkpt>
      <trkpt lat="43.85977" lon="7.22467">
        <ele>557.723083</ele>
        <time>2017-02-10T15:18:07Z</time>
      </trkpt>
      <trkpt lat="43.8598" lon="7.22467">
        <ele>557.8797</ele>
        <time>2017-02-10T15:18:09Z</time>
      </trkpt>
      <trkpt lat="43.85982" lon="7.22466">
        <ele>558.088196</ele>
        <time>2017-02-10T15:18:11Z</time>
      </trkpt>
      <trkpt lat="43.85984" lon="7.22466">
        <ele>558.283508</ele>
        <time>2017-02-10T15:18:13Z</time>
      </trkpt>
      <trkpt lat="43.85987" lon="7.22466">
        <ele>558.494202</ele>
        <time>2017-02-10T15:18:15Z</time>
      </trkpt>
      <trkpt lat="43.85989" lon="7.22467">
        <ele>558.690063</ele>
        <time>2017-02-10T15:18:17Z</time>
      </trkpt>
      <trkpt lat="43.85992" lon="7.22466">
        <ele>558.90155</ele>
        <time>2017-02-10T15:18:19Z</time>
      </trkpt>
      <trkpt lat="43.85994" lon="7.22466">
        <ele>559.143433</ele>
        <time>2017-02-10T15:18:21Z</time>
      </trkpt>
      <trkpt lat="43.85997" lon="7.22466">
        <ele>559.347107</ele>
        <time>2017-02-10T15:18:23Z</time>
      </trkpt>
      <trkpt lat="43.85998" lon="7.22465">
        <ele>559.586548</ele>
        <time>2017-02-10T15:18:25Z</time>
      </trkpt>
      <trkpt lat="43.86" lon="7.22465">
        <ele>559.834595</ele>
        <time>2017-02-10T15:18:27Z</time>
      </trkpt>
      <trkpt lat="43.86001" lon="7.22462">
        <ele>560.10144</ele>
        <time>2017-02-10T15:18:29Z</time>
      </trkpt>
      <trkpt lat="43.86003" lon="7.22461">
        <ele>560.381836</ele>
        <time>2017-02-10T15:18:31Z</time>
      </trkpt>
      <trkpt lat="43.86005" lon="7.2246">
        <ele>560.519897</ele>
        <time>2017-02-10T15:18:33Z</time>
      </trkpt>
      <trkpt lat="43.86007" lon="7.22459">
        <ele>560.713318</ele>
        <time>2017-02-10T15:18:35Z</time>
      </trkpt>
      <trkpt lat="43.8601" lon="7.22459">
        <ele>560.884888</ele>
        <time>2017-02-10T15:18:37Z</time>
      </trkpt>
      <trkpt lat="43.86012" lon="7.22457">
        <ele>561.034119</ele>
        <time>2017-02-10T15:18:39Z</time>
      </trkpt>
      <trkpt lat="43.86014" lon="7.22455">
        <ele>561.260254</ele>
        <time>2017-02-10T15:18:41Z</time>
      </trkpt>
      <trkpt lat="43.86016" lon="7.22454">
        <ele>561.420532</ele>
        <time>2017-02-10T15:18:43Z</time>
      </trkpt>
      <trkpt lat="43.86018" lon="7.22453">
        <ele>561.627197</ele>
        <time>2017-02-10T15:18:45Z</time>
      </trkpt>
      <trkpt lat="43.8602" lon="7.22451">
        <ele>561.812561</ele>
        <time>2017-02-10T15:18:47Z</time>
      </trkpt>
      <trkpt lat="43.86021" lon="7.22448">
        <ele>562.02063</ele>
        <time>2017-02-10T15:18:49Z</time>
      </trkpt>
      <trkpt lat="43.86023" lon="7.22446">
        <ele>562.242371</ele>
        <time>2017-02-10T15:18:51Z</time>
      </trkpt>
      <trkpt lat="43.86026" lon="7.22444">
        <ele>562.475098</ele>
        <time>2017-02-10T15:18:53Z</time>
      </trkpt>
      <trkpt lat="43.86028" lon="7.22442">
        <ele>562.714417</ele>
        <time>2017-02-10T15:18:55Z</time>
      </trkpt>
      <trkpt lat="43.86031" lon="7.22441">
        <ele>562.826355</ele>
        <time>2017-02-10T15:18:57Z</time>
      </trkpt>
      <trkpt lat="43.86034" lon="7.2244">
        <ele>563.072144</ele>
        <time>2017-02-10T15:18:59Z</time>
      </trkpt>
      <trkpt lat="43.86036" lon="7.22439">
        <ele>563.302551</ele>
        <time>2017-02-10T15:19:01Z</time>
      </trkpt>
      <trkpt lat="43.86039" lon="7.22437">
        <ele>563.552856</ele>
        <time>2017-02-10T15:19:03Z</time>
      </trkpt>
      <trkpt lat="43.86042" lon="7.22436">
        <ele>563.862915</ele>
        <time>2017-02-10T15:19:05Z</time>
      </trkpt>
      <trkpt lat="43.86044" lon="7.22434">
        <ele>564.128113</ele>
        <time>2017-02-10T15:19:07Z</time>
      </trkpt>
      <trkpt lat="43.86046" lon="7.22433">
        <ele>564.382874</ele>
        <time>2017-02-10T15:19:09Z</time>
      </trkpt>
      <trkpt lat="43.86049" lon="7.22431">
        <ele>564.636353</ele>
        <time>2017-02-10T15:19:11Z</time>
      </trkpt>
      <trkpt lat="43.86051" lon="7.2243">
        <ele>564.827148</ele>
        <time>2017-02-10T15:19:13Z</time>
      </trkpt>
      <trkpt lat="43.86053" lon="7.22428">
        <ele>565.081604</ele>
        <time>2017-02-10T15:19:15Z</time>
      </trkpt>
      <trkpt lat="43.86055" lon="7.22426">
        <ele>565.215515</ele>
        <time>2017-02-10T15:19:17Z</time>
      </trkpt>
      <trkpt lat="43.86057" lon="7.22424">
        <ele>565.448853</ele>
        <time>2017-02-10T15:19:19Z</time>
      </trkpt>
      <trkpt lat="43.8606" lon="7.22422">
        <ele>565.765076</ele>
        <time>2017-02-10T15:19:21Z</time>
      </trkpt>
      <trkpt lat="43.86063" lon="7.2242">
        <ele>566.004517</ele>
        <time>2017-02-10T15:19:23Z</time>
      </trkpt>
      <trkpt lat="43.86065" lon="7.22418">
        <ele>566.259827</ele>
        <time>2017-02-10T15:19:25Z</time>
      </trkpt>
      <trkpt lat="43.86068" lon="7.22415">
        <ele>566.493286</ele>
        <time>2017-02-10T15:19:27Z</time>
      </trkpt>
      <trkpt lat="43.8607" lon="7.22412">
        <ele>566.778809</ele>
        <time>2017-02-10T15:19:29Z</time>
      </trkpt>
      <trkpt lat="43.86073" lon="7.2241">
        <ele>567.077209</ele>
        <time>2017-02-10T15:19:31Z</time>
      </trkpt>
      <trkpt lat="43.86075" lon="7.22407">
        <ele>567.345154</ele>
        <time>2017-02-10T15:19:33Z</time>
      </trkpt>
      <trkpt lat="43.86077" lon="7.22404">
        <ele>567.608765</ele>
        <time>2017-02-10T15:19:35Z</time>
      </trkpt>
      <trkpt lat="43.86079" lon="7.22401">
        <ele>567.885498</ele>
        <time>2017-02-10T15:19:37Z</time>
      </trkpt>
      <trkpt lat="43.8608" lon="7.22398">
        <ele>568.168396</ele>
        <time>2017-02-10T15:19:39Z</time>
      </trkpt>
      <trkpt lat="43.86082" lon="7.22395">
        <ele>568.495605</ele>
        <time>2017-02-10T15:19:41Z</time>
      </trkpt>
      <trkpt lat="43.86084" lon="7.22392">
        <ele>568.65155</ele>
        <time>2017-02-10T15:19:43Z</time>
      </trkpt>
      <trkpt lat="43.86086" lon="7.2239">
        <ele>568.878296</ele>
        <time>2017-02-10T15:19:45Z</time>
      </trkpt>
      <trkpt lat="43.86087" lon="7.22387">
        <ele>569.170532</ele>
        <time>2017-02-10T15:19:47Z</time>
      </trkpt>
      <trkpt lat="43.86091" lon="7.22385">
        <ele>569.454041</ele>
        <time>2017-02-10T15:19:49Z</time>
      </trkpt>
      <trkpt lat="43.86092" lon="7.22382">
        <ele>569.682495</ele>
        <time>2017-02-10T15:19:51Z</time>
      </trkpt>
      <trkpt lat="43.86095" lon="7.22379">
        <ele>569.931946</ele>
        <time>2017-02-10T15:19:53Z</time>
      </trkpt>
      <trkpt lat="43.86096" lon="7.22376">
        <ele>570.224304</ele>
        <time>2017-02-10T15:19:55Z</time>
      </trkpt>
      <trkpt lat="43.86098" lon="7.22373">
        <ele>570.47052</ele>
        <time>2017-02-10T15:19:57Z</time>
      </trkpt>
      <trkpt lat="43.86099" lon="7.22369">
        <ele>570.742004</ele>
        <time>2017-02-10T15:19:59Z</time>
      </trkpt>
      <trkpt lat="43.861" lon="7.22366">
        <ele>571.007935</ele>
        <time>2017-02-10T15:20:01Z</time>
      </trkpt>
      <trkpt lat="43.86101" lon="7.22362">
        <ele>571.267212</ele>
        <time>2017-02-10T15:20:03Z</time>
      </trkpt>
      <trkpt lat="43.86102" lon="7.22358">
        <ele>571.612183</ele>
        <time>2017-02-10T15:20:05Z</time>
      </trkpt>
      <trkpt lat="43.86103" lon="7.22354">
        <ele>571.791809</ele>
        <time>2017-02-10T15:20:07Z</time>
      </trkpt>
      <trkpt lat="43.86104" lon="7.22351">
        <ele>572.098755</ele>
        <time>2017-02-10T15:20:09Z</time>
      </trkpt>
      <trkpt lat="43.86105" lon="7.22347">
        <ele>572.380066</ele>
        <time>2017-02-10T15:20:11Z</time>
      </trkpt>
      <trkpt lat="43.86105" lon="7.22343">
        <ele>572.628418</ele>
        <time>2017-02-10T15:20:13Z</time>
      </trkpt>
      <trkpt lat="43.86107" lon="7.2234">
        <ele>572.88446</ele>
        <time>2017-02-10T15:20:15Z</time>
      </trkpt>
      <trkpt lat="43.86107" lon="7.22337">
        <ele>573.165833</ele>
        <time>2017-02-10T15:20:17Z</time>
      </trkpt>
      <trkpt lat="43.86108" lon="7.22333">
        <ele>573.495483</ele>
        <time>2017-02-10T15:20:19Z</time>
      </trkpt>
      <trkpt lat="43.86109" lon="7.2233">
        <ele>573.829468</ele>
        <time>2017-02-10T15:20:21Z</time>
      </trkpt>
      <trkpt lat="43.86109" lon="7.22326">
        <ele>574.082336</ele>
        <time>2017-02-10T15:20:23Z</time>
      </trkpt>
      <trkpt lat="43.8611" lon="7.22323">
        <ele>574.374146</ele>
        <time>2017-02-10T15:20:25Z</time>
      </trkpt>
      <trkpt lat="43.86111" lon="7.2232">
        <ele>574.646667</ele>
        <time>2017-02-10T15:20:27Z</time>
      </trkpt>
      <trkpt lat="43.86112" lon="7.22316">
        <ele>574.736816</ele>
        <time>2017-02-10T15:20:29Z</time>
      </trkpt>
      <trkpt lat="43.86113" lon="7.22314">
        <ele>575.00769</ele>
        <time>2017-02-10T15:20:31Z</time>
      </trkpt>
      <trkpt lat="43.86113" lon="7.22311">
        <ele>575.355042</ele>
        <time>2017-02-10T15:20:33Z</time>
      </trkpt>
      <trkpt lat="43.86113" lon="7.22308">
        <ele>575.701111</ele>
        <time>2017-02-10T15:20:35Z</time>
      </trkpt>
      <trkpt lat="43.86113" lon="7.22304">
        <ele>576.048462</ele>
        <time>2017-02-10T15:20:37Z</time>
      </trkpt>
      <trkpt lat="43.86114" lon="7.22302">
        <ele>576.399963</ele>
        <time>2017-02-10T15:20:39Z</time>
      </trkpt>
      <trkpt lat="43.86115" lon="7.22298">
        <ele>576.732544</ele>
        <time>2017-02-10T15:20:41Z</time>
      </trkpt>
      <trkpt lat="43.86116" lon="7.22295">
        <ele>577.086487</ele>
        <time>2017-02-10T15:20:43Z</time>
      </trkpt>
      <trkpt lat="43.86118" lon="7.22292">
        <ele>577.348083</ele>
        <time>2017-02-10T15:20:45Z</time>
      </trkpt>
      <trkpt lat="43.8612" lon="7.22289">
        <ele>577.596558</ele>
        <time>2017-02-10T15:20:47Z</time>
      </trkpt>
      <trkpt lat="43.86121" lon="7.22286">
        <ele>577.851257</ele>
        <time>2017-02-10T15:20:49Z</time>
      </trkpt>
      <trkpt lat="43.86123" lon="7.22284">
        <ele>578.079956</ele>
        <time>2017-02-10T15:20:51Z</time>
      </trkpt>
      <trkpt lat="43.86125" lon="7.22281">
        <ele>578.187622</ele>
        <time>2017-02-10T15:20:53Z</time>
      </trkpt>
      <trkpt lat="43.86128" lon="7.22278">
        <ele>578.449707</ele>
        <time>2017-02-10T15:20:55Z</time>
      </trkpt>
      <trkpt lat="43.86129" lon="7.22275">
        <ele>578.723328</ele>
        <time>2017-02-10T15:20:57Z</time>
      </trkpt>
      <trkpt lat="43.86132" lon="7.22272">
        <ele>578.99762</ele>
        <time>2017-02-10T15:20:59Z</time>
      </trkpt>
      <trkpt lat="43.86134" lon="7.2227">
        <ele>579.197693</ele>
        <time>2017-02-10T15:21:01Z</time>
      </trkpt>
      <trkpt lat="43.86137" lon="7.22268">
        <ele>579.424194</ele>
        <time>2017-02-10T15:21:03Z</time>
      </trkpt>
      <trkpt lat="43.86139" lon="7.22267">
        <ele>579.699097</ele>
        <time>2017-02-10T15:21:05Z</time>
      </trkpt>
      <trkpt lat="43.86142" lon="7.22266">
        <ele>579.973267</ele>
        <time>2017-02-10T15:21:07Z</time>
      </trkpt>
      <trkpt lat="43.86144" lon="7.22265">
        <ele>580.235901</ele>
        <time>2017-02-10T15:21:09Z</time>
      </trkpt>
      <trkpt lat="43.86147" lon="7.22266">
        <ele>580.542664</ele>
        <time>2017-02-10T15:21:11Z</time>
      </trkpt>
      <trkpt lat="43.8615" lon="7.22266">
        <ele>580.774231</ele>
        <time>2017-02-10T15:21:13Z</time>
      </trkpt>
      <trkpt lat="43.86152" lon="7.22268">
        <ele>580.985352</ele>
        <time>2017-02-10T15:21:15Z</time>
      </trkpt>
      <trkpt lat="43.86154" lon="7.22271">
        <ele>581.222778</ele>
        <time>2017-02-10T15:21:17Z</time>
      </trkpt>
      <trkpt lat="43.86154" lon="7.22274">
        <ele>581.321838</ele>
        <time>2017-02-10T15:21:19Z</time>
      </trkpt>
      <trkpt lat="43.86153" lon="7.22278">
        <ele>581.544189</ele>
        <time>2017-02-10T15:21:21Z</time>
      </trkpt>
      <trkpt lat="43.86153" lon="7.22281">
        <ele>581.756897</ele>
        <time>2017-02-10T15:21:23Z</time>
      </trkpt>
      <trkpt lat="43.86154" lon="7.22284">
        <ele>581.921814</ele>
        <time>2017-02-10T15:21:25Z</time>
      </trkpt>
      <trkpt lat="43.86153" lon="7.22289">
        <ele>582.165955</ele>
        <time>2017-02-10T15:21:27Z</time>
      </trkpt>
      <trkpt lat="43.86153" lon="7.22294">
        <ele>582.344177</ele>
        <time>2017-02-10T15:21:29Z</time>
      </trkpt>
      <trkpt lat="43.86153" lon="7.223">
        <ele>582.583923</ele>
        <time>2017-02-10T15:21:31Z</time>
      </trkpt>
      <trkpt lat="43.86153" lon="7.22305">
        <ele>582.733459</ele>
        <time>2017-02-10T15:21:33Z</time>
      </trkpt>
      <trkpt lat="43.86153" lon="7.2231">
        <ele>583.001404</ele>
        <time>2017-02-10T15:21:35Z</time>
      </trkpt>
      <trkpt lat="43.86154" lon="7.22315">
        <ele>583.15564</ele>
        <time>2017-02-10T15:21:37Z</time>
      </trkpt>
      <trkpt lat="43.86155" lon="7.22321">
        <ele>583.345337</ele>
        <time>2017-02-10T15:21:39Z</time>
      </trkpt>
      <trkpt lat="43.86156" lon="7.22326">
        <ele>583.422424</ele>
        <time>2017-02-10T15:21:41Z</time>
      </trkpt>
      <trkpt lat="43.86157" lon="7.22332">
        <ele>583.497131</ele>
        <time>2017-02-10T15:21:43Z</time>
      </trkpt>
      <trkpt lat="43.86157" lon="7.22338">
        <ele>583.593506</ele>
        <time>2017-02-10T15:21:45Z</time>
      </trkpt>
      <trkpt lat="43.86157" lon="7.22343">
        <ele>583.540649</ele>
        <time>2017-02-10T15:21:47Z</time>
      </trkpt>
      <trkpt lat="43.86158" lon="7.22349">
        <ele>583.512939</ele>
        <time>2017-02-10T15:21:49Z</time>
      </trkpt>
      <trkpt lat="43.86158" lon="7.22354">
        <ele>583.51416</ele>
        <time>2017-02-10T15:21:51Z</time>
      </trkpt>
      <trkpt lat="43.86159" lon="7.2236">
        <ele>583.42688</ele>
        <time>2017-02-10T15:21:53Z</time>
      </trkpt>
      <trkpt lat="43.86159" lon="7.22365">
        <ele>583.327271</ele>
        <time>2017-02-10T15:21:55Z</time>
      </trkpt>
      <trkpt lat="43.86158" lon="7.22371">
        <ele>583.234253</ele>
        <time>2017-02-10T15:21:57Z</time>
      </trkpt>
      <trkpt lat="43.86157" lon="7.22376">
        <ele>583.196411</ele>
        <time>2017-02-10T15:21:59Z</time>
      </trkpt>
      <trkpt lat="43.86155" lon="7.2238">
        <ele>583.088562</ele>
        <time>2017-02-10T15:22:01Z</time>
      </trkpt>
      <trkpt lat="43.86152" lon="7.22384">
        <ele>583.027222</ele>
        <time>2017-02-10T15:22:03Z</time>
      </trkpt>
      <trkpt lat="43.8615" lon="7.22387">
        <ele>582.926819</ele>
        <time>2017-02-10T15:22:05Z</time>
      </trkpt>
      <trkpt lat="43.86148" lon="7.22391">
        <ele>582.816833</ele>
        <time>2017-02-10T15:22:07Z</time>
      </trkpt>
      <trkpt lat="43.86146" lon="7.22394">
        <ele>582.753052</ele>
        <time>2017-02-10T15:22:09Z</time>
      </trkpt>
      <trkpt lat="43.86143" lon="7.22398">
        <ele>582.704651</ele>
        <time>2017-02-10T15:22:11Z</time>
      </trkpt>
      <trkpt lat="43.86141" lon="7.22402">
        <ele>582.548645</ele>
        <time>2017-02-10T15:22:13Z</time>
      </trkpt>
      <trkpt lat="43.86139" lon="7.22405">
        <ele>582.438599</ele>
        <time>2017-02-10T15:22:15Z</time>
      </trkpt>
      <trkpt lat="43.86136" lon="7.22409">
        <ele>582.190063</ele>
        <time>2017-02-10T15:22:17Z</time>
      </trkpt>
      <trkpt lat="43.86133" lon="7.22412">
        <ele>581.950134</ele>
        <time>2017-02-10T15:22:19Z</time>
      </trkpt>
      <trkpt lat="43.86131" lon="7.22415">
        <ele>581.766968</ele>
        <time>2017-02-10T15:22:21Z</time>
      </trkpt>
      <trkpt lat="43.86129" lon="7.22417">
        <ele>581.610779</ele>
        <time>2017-02-10T15:22:23Z</time>
      </trkpt>
    </trkseg>
  </trk>
</gpx>